[[{"header":{"parameterUnit":"m.s-1","parameterCategory":1,"la1":31.0,"la2":29.5877,"lo1":-88.7671,"lo2":-86.6584,"dy":0.0162,"dx":0.0185,"nx":115,"ny":88,"refTime":"2023-04-23T00:00:00:Z","depth":0,"parameterNumber":2,"parameterNumberName":"U-component_of_WINDS"},"data":[0.0,0.0,0.0,0.0,0.0,0.0,0.0,0.0,0.0,0.0,0.0,0.0,0.0,0.0,0.0,0.0,0.0,0.0,0.0,0.0,0.0,0.0,0.0,0.0,0.0,0.0,0.0,0.0,0.0,0.0,0.0,0.0,0.0,0.0,0.0,0.0,0.0,0.0,0.0,0.0,0.0,0.0,0.0,0.0,0.0,0.0,0.0,0.0,0.0,0.0,0.0,0.0,0.0,0.0,0.0,0.0,0.0,0.0,0.0,0.0,0.0,0.0,0.0,0.0,0.0,0.0,0.0,0.0,0.0,0.0,0.0,0.0,0.0,0.0,0.0,0.0,0.0,0.0,0.0,0.0,0.0,0.0,0.0,0.0,0.0,0.0,0.0,0.0,0.0,0.0,0.0,0.0,0.0,0.0,0.0,0.0,0.0,0.0,0.0,0.0,0.0,0.0,0.0,0.0,0.0,0.0,0.0,0.0,0.0,0.0,0.0,0.0,0.0,0.0,0.0,0.0,0.0,0.0,0.0,0.0,0.0,0.0,0.0,0.0,0.0,0.0,0.0,0.0,0.0,0.0,0.0,0.0,0.0,0.0,0.0,0.0,0.0,0.0,0.0,0.0,0.0,0.0,0.0,0.0,0.0,0.0,0.0,0.0,0.0,0.0,0.0,0.0,0.0,0.0,0.0,0.0,0.0,0.0,0.0,0.0,0.0,0.0,0.0,0.0,0.0,0.0,0.0,0.0,0.0,0.0,0.0,0.0,0.0,0.0,0.0,0.0,0.0,0.0,0.0,0.0,0.0,0.0,0.0,0.0,0.0,0.0,0.0,0.0,0.0,0.0,0.0,0.0,0.0,0.0,0.0,0.0,0.0,0.0,0.0,0.0,0.0,0.0,0.0,0.0,0.0,0.0,0.0,0.0,0.0,0.0,0.0,0.0,0.0,0.0,0.0,0.0,0.0,0.0,0.0,0.0,0.0,0.0,0.0,0.0,0.0,0.0,0.0,0.0,0.0,0.0,0.0,0.0,0.0,0.0,0.0,0.0,0.0,0.0,0.0,0.0,0.0,0.0,0.0,0.0,0.0,0.0,0.0,0.0,0.0,0.0,0.0,0.0,0.0,0.0,0.0,0.0,0.0,0.0,0.0,0.0,0.0,0.0,0.0,0.0,0.0,0.0,0.0,0.0,0.0,0.0,0.0,0.0,0.0,0.0,0.0,0.0,0.0,0.0,0.0,0.0,0.0,0.0,0.0,0.0,0.0,0.0,0.0,0.0,0.0,0.0,0.0,0.0,0.0,0.0,0.0,0.0,0.0,0.0,0.0,0.0,0.0,0.0,0.0,0.0,0.0,0.0,0.0,0.0,0.0,0.0,0.0,0.0,0.0,0.0,0.0,0.0,0.0,0.0,0.0,0.0,0.0,0.0,0.0,0.0,0.0,0.0,0.0,0.0,0.0,0.0,0.0,0.0,0.0,0.0,0.0,0.0,0.0,0.0,0.0,0.0,0.0,0.0,0.0,0.0,0.0,0.0,0.0,0.0,0.0,0.0,0.0,0.0,0.0,0.0,0.0,0.0,0.0,0.0,0.0,0.0,0.0,0.0,0.0,0.0,0.0,0.0,0.0,0.0,0.0,0.0,0.0,0.0,0.0,0.0,0.0,0.0,0.0,0.0,0.0,0.0,0.0,0.0,0.0,0.0,0.0,0.0,0.0,0.0,0.0,0.0,0.0,0.0,0.0,0.0,0.0,0.0,0.0,0.0,0.0,0.0,0.0,0.0,0.0,0.0,0.0,0.0,0.0,0.0,0.0,0.0,0.0,0.0,0.0,0.0,0.0,0.0,0.0,0.0,0.0,0.0,0.0,0.0,0.0,0.0,0.0,0.0,0.0,0.0,0.0,0.0,0.0,0.0,0.0,0.0,0.0,0.0,0.0,0.0,0.0,0.0,0.0,0.0,0.0,0.0,0.0,0.0,0.0,0.0,0.0,0.0,0.0,0.0,0.0,0.0,0.0,0.0,0.0,0.0,0.0,0.0,0.0,0.0,0.0,0.0,0.0,0.0,0.0,0.0,0.0,0.0,0.0,0.0,0.0,0.0,0.0,0.0,0.0,0.0,0.0,0.0,0.0,0.0,0.0,0.0,0.0,0.0,0.0,0.0,0.0,0.0,0.0,0.0,0.0,0.0,0.0,0.0,0.0,0.0,0.0,0.0,0.0,0.0,0.0,0.0,0.0,0.0,0.0,0.0,0.0,0.0,0.0,0.0,0.0,0.0,0.0,0.0,0.0,0.0,0.0,0.0,0.0,0.0,0.0,0.0,0.0,0.0,0.0,0.0,0.0,0.0,0.0,0.0,0.0,0.0,0.0,0.0,0.0,0.0,0.0,0.0,0.0,0.0,0.0,0.0,0.0,0.0,0.0,0.0,0.0,0.0,0.0,0.0,0.0,0.0,0.0,0.0,0.0,0.0,0.0,0.0,0.0,0.0,0.0,0.0,0.0,0.0,0.0,0.0,0.0,0.0,0.0,0.0,0.0,0.0,0.0,0.0,0.0,0.0,0.0,0.0,0.0,0.0,0.0,0.0,0.0,0.0,0.0,0.0,0.0,0.0,0.0,0.0,0.0,0.0,0.0,0.0,0.0,0.0,0.0,0.0,0.0,0.0,0.0,0.0,0.0,0.0,0.0,0.0,0.0,0.0,0.0,0.0,0.0,0.0,0.0,0.0,0.0,0.0,0.0,0.0,0.0,0.0,0.0,0.0,0.0,0.0,0.0,0.0,0.0,0.0,0.0,0.0,0.0,0.0,0.0,0.0,0.0,0.0,0.0,0.0,0.0,0.0,0.0,0.0,0.0,0.0,0.0,0.0,0.0,0.0,0.0,0.0,0.0,0.0,0.0,0.0,0.0,0.0,0.0,0.0,0.0,0.0,0.0,0.0,0.0,0.0,0.0,0.0,0.0,0.0,0.0,0.0,0.0,0.0,0.0,0.0,0.0,0.0,0.0,0.0,0.0,0.0,0.0,0.0,0.0,0.0,0.0,0.0,0.0,0.0,0.0,0.0,0.0,0.0,0.0,0.0,0.0,0.0,0.0,0.0,0.0,0.0,0.0,0.0,0.0,0.0,0.0,0.0,0.0,0.0,0.0,0.0,0.0,0.0,0.0,0.0,0.0,0.0,0.0,0.0,0.0,0.0,0.0,0.0,0.0,0.0,0.0,0.0,0.0,0.0,0.0,0.0,0.0,0.0,0.0,0.0,0.0,0.0,0.0,0.0,0.0,0.0,0.0,0.0,0.0,0.0,0.0,0.0,0.0,0.0,0.0,0.0,0.0,0.0,0.0,0.0,0.0,0.0,0.0,0.0,0.0,0.0,0.0,0.0,0.0,0.0,0.0,0.0,0.0,0.0,0.0,0.0,0.0,0.0,0.0,0.0,0.0,0.0,0.0,0.0,0.0,0.0,0.0,0.0,0.0,0.0,0.0,0.0,0.0,0.0,0.0,0.0,0.0,0.0,0.0,0.0,0.0,0.0,0.0,0.0,0.0,0.0,0.0,0.0,0.0,0.0,0.0,0.0,0.0,0.0,0.0,0.0,0.0,0.0,0.0,0.0,0.0,0.0,0.0,0.0,0.0,0.0,0.0,0.0,0.0,0.0,0.0,0.0,0.0,0.0,0.0,0.0,0.0,0.0,0.0,0.0,0.0,0.0,0.0,0.0,0.0,0.0,0.0,0.0,0.0,0.0,0.0,0.0,0.0,0.0,0.0,0.0,0.0,0.0,0.0,0.0,0.0,0.0,0.0,0.0,0.0,0.0,0.0,0.0,0.0,0.0,0.0,0.0,0.0,0.0,0.0,0.0,0.0,0.0,0.0,0.0,0.0,0.0,0.0,0.0,0.0,0.0,0.0,0.0,0.0,0.0,0.0,0.0,0.0,0.0,0.0,0.0,0.0,0.0,0.0,0.0,0.0,0.0,0.0,0.0,0.0,0.0,0.0,0.0,0.0,0.0,0.0,0.0,0.0,0.0,0.0,0.0,0.0,0.0,0.0,0.0,0.0,0.0,0.0,0.0,0.0,0.0,0.0,0.0,0.0,0.0,0.0,0.0,0.0,0.0,0.0,0.0,0.0,0.0,0.0,0.0,0.0,0.0,0.0,0.0,0.0,0.0,0.0,0.0,0.0,0.0,0.0,0.0,0.0,0.0,0.0,0.0,0.0,0.0,0.0,0.0,0.0,0.0,0.0,0.0,0.0,0.0,0.0,0.0,0.0,0.0,2.2735,0.0,0.0,0.0,0.0,0.0,0.0,0.0,0.0,0.0,0.0,0.0,0.0,0.0,0.0,0.0,0.0,0.0,0.0,0.0,0.0,0.0,0.0,0.0,0.0,0.0,0.0,0.0,0.0,0.0,0.0,0.0,0.0,0.0,0.0,0.0,0.0,0.0,0.0,0.0,0.0,0.0,0.0,0.0,0.0,0.0,0.0,0.0,0.0,0.0,0.0,0.0,0.0,0.0,0.0,0.0,0.0,0.0,0.0,0.0,0.0,0.0,0.0,0.0,0.0,0.0,0.0,0.0,0.0,0.0,0.0,0.0,0.0,0.0,0.0,0.0,0.0,0.0,0.0,0.0,0.0,0.0,0.0,0.0,0.0,0.0,0.0,0.0,0.0,0.0,0.0,0.0,0.0,0.0,0.0,0.0,0.0,0.0,0.0,0.0,0.0,0.0,0.0,0.0,0.0,0.0,0.0,0.0,0.0,0.0,0.0,2.2888,2.2888,2.2888,2.2872,2.2809,0.0,0.0,0.0,0.0,0.0,0.0,0.0,0.0,0.0,0.0,0.0,0.0,0.0,0.0,0.0,0.0,0.0,0.0,0.0,0.0,0.0,0.0,0.0,0.0,0.0,0.0,0.0,0.0,0.0,0.0,0.0,0.0,0.0,0.0,0.0,0.0,0.0,0.0,0.0,0.0,0.0,0.0,0.0,0.0,0.0,0.0,0.0,0.0,0.0,0.0,0.0,0.0,0.0,0.0,0.0,0.0,0.0,0.0,0.0,0.0,0.0,0.0,0.0,0.0,0.0,0.0,0.0,0.0,0.0,0.0,0.0,0.0,0.0,0.0,0.0,0.0,0.0,0.0,0.0,0.0,0.0,0.0,0.0,0.0,0.0,0.0,0.0,0.0,0.0,0.0,0.0,0.0,0.0,0.0,0.0,0.0,0.0,0.0,0.0,0.0,0.0,0.0,0.0,0.0,0.0,0.0,0.0,0.0,0.0,0.0,0.0,0.0,2.2888,2.2872,2.2795,0.0,0.0,0.0,0.0,0.0,0.0,0.0,0.0,0.0,0.0,0.0,0.0,0.0,0.0,0.0,0.0,0.0,0.0,0.0,0.0,0.0,0.0,0.0,0.0,0.0,0.0,0.0,0.0,0.0,0.0,0.0,0.0,0.0,0.0,0.0,0.0,0.0,0.0,0.0,0.0,0.0,0.0,0.0,0.0,0.0,0.0,0.0,0.0,0.0,0.0,0.0,0.0,0.0,0.0,0.0,0.0,0.0,0.0,0.0,0.0,0.0,0.0,0.0,0.0,0.0,0.0,0.0,0.0,0.0,0.0,0.0,0.0,0.0,0.0,0.0,0.0,0.0,0.0,0.0,0.0,0.0,0.0,0.0,0.0,0.0,0.0,0.0,0.0,0.0,0.0,0.0,0.0,0.0,0.0,0.0,0.0,0.0,0.0,0.0,0.0,0.0,0.0,0.0,0.0,0.0,0.0,0.0,0.0,0.0,0.0,2.2888,2.2888,2.2888,0.0,2.2857,0.0,0.0,0.0,0.0,0.0,0.0,0.0,0.0,0.0,0.0,0.0,0.0,0.0,0.0,0.0,0.0,0.0,0.0,0.0,0.0,0.0,0.0,0.0,0.0,0.0,0.0,0.0,0.0,0.0,0.0,0.0,0.0,0.0,0.0,0.0,0.0,0.0,0.0,0.0,0.0,0.0,0.0,0.0,0.0,0.0,0.0,0.0,0.0,0.0,0.0,0.0,0.0,0.0,0.0,0.0,0.0,0.0,0.0,0.0,0.0,0.0,0.0,0.0,0.0,0.0,0.0,0.0,0.0,0.0,0.0,0.0,0.0,0.0,0.0,0.0,0.0,0.0,0.0,0.0,0.0,0.0,0.0,0.0,0.0,0.0,0.0,0.0,0.0,0.0,0.0,0.0,0.0,0.0,0.0,0.0,0.0,0.0,0.0,0.0,0.0,0.0,0.0,0.0,0.0,0.0,0.0,0.0,0.0,0.0,0.0,2.2888,2.2888,2.2888,2.2888,0.0,0.0,0.0,0.0,0.0,0.0,0.0,0.0,0.0,0.0,0.0,0.0,0.0,0.0,0.0,0.0,0.0,0.0,0.0,0.0,0.0,0.0,0.0,0.0,0.0,0.0,0.0,0.0,0.0,0.0,0.0,0.0,0.0,0.0,0.0,0.0,0.0,0.0,0.0,0.0,0.0,0.0,0.0,0.0,0.0,0.0,0.0,0.0,0.0,0.0,0.0,0.0,0.0,0.0,0.0,0.0,0.0,0.0,0.0,0.0,0.0,0.0,0.0,0.0,0.0,0.0,0.0,0.0,0.0,0.0,0.0,0.0,0.0,0.0,0.0,0.0,0.0,0.0,0.0,0.0,0.0,0.0,0.0,0.0,0.0,0.0,0.0,0.0,0.0,0.0,0.0,0.0,0.0,0.0,0.0,0.0,0.0,0.0,0.0,0.0,0.0,0.0,0.0,0.0,0.0,0.0,0.0,0.0,0.0,0.0,2.2888,2.2888,2.2888,2.2888,2.2888,2.2888,0.0,0.0,0.0,0.0,0.0,0.0,0.0,0.0,0.0,0.0,0.0,0.0,0.0,0.0,0.0,0.0,0.0,0.0,0.0,0.0,0.0,0.0,0.0,0.0,0.0,0.0,0.0,0.0,0.0,0.0,0.0,0.0,0.0,0.0,0.0,0.0,0.0,0.0,0.0,0.0,0.0,0.0,0.0,0.0,0.0,0.0,0.0,0.0,0.0,0.0,0.0,0.0,0.0,0.0,0.0,0.0,0.0,0.0,0.0,0.0,0.0,0.0,0.0,0.0,0.0,0.0,0.0,0.0,0.0,0.0,0.0,0.0,0.0,0.0,0.0,0.0,0.0,0.0,0.0,0.0,0.0,0.0,0.0,0.0,0.0,0.0,0.0,0.0,0.0,0.0,0.0,0.0,0.0,0.0,0.0,0.0,0.0,0.0,0.0,0.0,0.0,0.0,0.0,0.0,0.0,0.0,0.0,0.0,2.2888,2.2888,2.2888,2.2888,2.2888,2.2888,0.0,0.0,0.0,0.0,0.0,0.0,0.0,0.0,0.0,0.0,0.0,0.0,0.0,0.0,0.0,0.0,0.0,0.0,0.0,0.0,0.0,0.0,0.0,0.0,0.0,0.0,0.0,0.0,0.0,0.0,0.0,0.0,0.0,0.0,0.0,0.0,0.0,0.0,0.0,0.0,0.0,0.0,0.0,0.0,0.0,0.0,0.0,0.0,0.0,0.0,0.0,0.0,0.0,0.0,0.0,0.0,0.0,0.0,0.0,0.0,0.0,0.0,0.0,0.0,0.0,0.0,0.0,0.0,0.0,0.0,0.0,0.0,0.0,0.0,0.0,0.0,0.0,0.0,0.0,0.0,0.0,0.0,0.0,0.0,0.0,0.0,0.0,0.0,0.0,0.0,0.0,0.0,0.0,0.0,0.0,0.0,0.0,0.0,0.0,0.0,0.0,0.0,0.0,0.0,0.0,0.0,0.0,0.0,0.0,2.2888,2.2992,2.3082,2.3157,2.3082,2.3023,0.0,0.0,0.0,0.0,0.0,0.0,0.0,0.0,0.0,0.0,0.0,0.0,0.0,0.0,0.0,0.0,0.0,0.0,0.0,0.0,0.0,0.0,0.0,0.0,0.0,0.0,0.0,0.0,0.0,0.0,0.0,0.0,0.0,0.0,0.0,0.0,0.0,0.0,0.0,0.0,0.0,0.0,0.0,0.0,0.0,0.0,0.0,0.0,0.0,0.0,0.0,0.0,0.0,0.0,0.0,0.0,0.0,0.0,0.0,0.0,0.0,0.0,0.0,0.0,0.0,0.0,0.0,0.0,0.0,0.0,0.0,0.0,0.0,0.0,0.0,0.0,0.0,0.0,0.0,0.0,0.0,0.0,0.0,0.0,0.0,0.0,0.0,0.0,0.0,0.0,0.0,0.0,0.0,0.0,0.0,0.0,0.0,0.0,0.0,0.0,0.0,0.0,0.0,0.0,0.0,0.0,0.0,0.0,0.0,2.3023,0.0,2.3187,2.3275,2.3157,2.3097,0.0,0.0,0.0,0.0,0.0,0.0,0.0,0.0,0.0,0.0,0.0,0.0,0.0,0.0,0.0,0.0,0.0,0.0,0.0,0.0,0.0,0.0,0.0,0.0,0.0,0.0,0.0,0.0,0.0,0.0,0.0,0.0,0.0,0.0,0.0,0.0,0.0,0.0,0.0,0.0,0.0,0.0,0.0,0.0,0.0,0.0,0.0,0.0,0.0,0.0,0.0,0.0,0.0,0.0,0.0,0.0,0.0,0.0,0.0,0.0,0.0,0.0,0.0,0.0,0.0,0.0,0.0,0.0,0.0,0.0,0.0,0.0,0.0,0.0,0.0,0.0,0.0,0.0,0.0,0.0,0.0,0.0,0.0,0.0,0.0,0.0,0.0,0.0,0.0,0.0,0.0,0.0,0.0,0.0,0.0,0.0,0.0,0.0,0.0,0.0,0.0,0.0,0.0,0.0,0.0,0.0,0.0,0.0,2.3157,2.329,2.3319,2.3319,2.3304,2.3201,2.3142,0.0,0.0,0.0,0.0,0.0,0.0,0.0,0.0,0.0,0.0,0.0,0.0,0.0,0.0,0.0,0.0,0.0,0.0,0.0,0.0,0.0,0.0,0.0,0.0,0.0,0.0,0.0,0.0,0.0,0.0,0.0,0.0,0.0,0.0,0.0,0.0,0.0,0.0,0.0,0.0,0.0,0.0,0.0,0.0,0.0,0.0,0.0,0.0,0.0,0.0,0.0,0.0,0.0,0.0,0.0,0.0,0.0,0.0,0.0,0.0,0.0,0.0,0.0,0.0,0.0,0.0,0.0,0.0,0.0,0.0,0.0,0.0,0.0,0.0,0.0,0.0,0.0,0.0,0.0,0.0,0.0,0.0,0.0,0.0,0.0,0.0,0.0,0.0,0.0,0.0,0.0,0.0,0.0,0.0,0.0,0.0,0.0,0.0,0.0,0.0,0.0,0.0,0.0,0.0,0.0,0.0,0.0,0.0,0.0,2.3523,2.3523,2.3566,2.361,2.3538,2.3407,0.0,0.0,0.0,0.0,0.0,0.0,0.0,0.0,0.0,0.0,0.0,0.0,0.0,0.0,0.0,0.0,0.0,0.0,0.0,0.0,0.0,0.0,0.0,0.0,0.0,0.0,0.0,0.0,0.0,0.0,0.0,0.0,0.0,0.0,0.0,0.0,0.0,0.0,0.0,0.0,0.0,0.0,0.0,0.0,0.0,0.0,0.0,0.0,0.0,0.0,0.0,0.0,0.0,0.0,0.0,0.0,0.0,0.0,0.0,0.0,0.0,0.0,0.0,0.0,0.0,0.0,0.0,0.0,0.0,0.0,0.0,0.0,0.0,0.0,0.0,0.0,0.0,0.0,0.0,0.0,0.0,0.0,0.0,0.0,0.0,0.0,0.0,0.0,0.0,0.0,0.0,0.0,0.0,0.0,0.0,0.0,0.0,0.0,0.0,0.0,0.0,0.0,0.0,0.0,0.0,0.0,0.0,0.0,0.0,2.4724,2.468,2.4802,2.5148,2.4714,2.4267,2.3792,0.0,0.0,0.0,0.0,0.0,0.0,0.0,0.0,0.0,0.0,0.0,0.0,0.0,0.0,0.0,0.0,0.0,0.0,0.0,0.0,0.0,0.0,0.0,0.0,0.0,0.0,0.0,0.0,0.0,0.0,0.0,0.0,0.0,0.0,0.0,0.0,0.0,0.0,0.0,0.0,0.0,0.0,0.0,0.0,0.0,0.0,0.0,0.0,0.0,0.0,0.0,0.0,0.0,0.0,0.0,0.0,0.0,0.0,0.0,0.0,0.0,0.0,0.0,0.0,0.0,0.0,0.0,0.0,0.0,0.0,0.0,0.0,0.0,0.0,0.0,0.0,0.0,0.0,0.0,0.0,0.0,0.0,0.0,0.0,0.0,0.0,0.0,0.0,0.0,0.0,0.0,0.0,0.0,0.0,0.0,0.0,0.0,0.0,0.0,0.0,0.0,0.0,0.0,0.0,0.0,0.0,0.0,0.0,2.6801,2.6727,2.6916,2.7442,2.655,2.5637,0.0,0.0,0.0,0.0,0.0,0.0,0.0,0.0,0.0,0.0,0.0,0.0,0.0,0.0,0.0,0.0,0.0,0.0,0.0,0.0,0.0,0.0,0.0,0.0,0.0,0.0,0.0,0.0,0.0,0.0,0.0,0.0,0.0,0.0,0.0,0.0,0.0,0.0,0.0,0.0,0.0,0.0,0.0,0.0,0.0,0.0,0.0,0.0,0.0,0.0,0.0,0.0,0.0,0.0,0.0,0.0,0.0,0.0,0.0,0.0,0.0,0.0,0.0,0.0,0.0,0.0,0.0,0.0,0.0,0.0,0.0,0.0,0.0,0.0,0.0,0.0,0.0,0.0,0.0,0.0,0.0,0.0,0.0,0.0,0.0,0.0,0.0,0.0,0.0,0.0,0.0,0.0,0.0,0.0,0.0,0.0,0.0,0.0,0.0,0.0,0.0,0.0,0.0,0.0,0.0,0.0,0.0,0.0,0.0,2.914,2.9927,2.98,2.8653,2.7162,2.6121,0.0,0.0,0.0,0.0,0.0,0.0,0.0,0.0,0.0,0.0,0.0,0.0,0.0,0.0,0.0,0.0,0.0,0.0,0.0,0.0,0.0,0.0,0.0,0.0,0.0,0.0,0.0,0.0,0.0,0.0,0.0,0.0,0.0,0.0,0.0,0.0,0.0,0.0,0.0,0.0,0.0,0.0,0.0,0.0,0.0,0.0,0.0,0.0,0.0,0.0,0.0,0.0,0.0,0.0,0.0,0.0,0.0,0.0,0.0,0.0,0.0,0.0,0.0,0.0,0.0,0.0,0.0,0.0,0.0,0.0,0.0,0.0,0.0,0.0,0.0,0.0,0.0,0.0,0.0,0.0,0.0,0.0,0.0,0.0,0.0,0.0,0.0,0.0,0.0,0.0,0.0,0.0,0.0,0.0,0.0,0.0,0.0,0.0,0.0,0.0,0.0,0.0,0.0,0.0,0.0,0.0,0.0,0.0,2.8449,3.0212,3.1855,3.224,3.123,2.9061,2.755,0.0,0.0,0.0,0.0,0.0,0.0,0.0,0.0,0.0,0.0,0.0,0.0,0.0,0.0,0.0,0.0,0.0,0.0,0.0,0.0,0.0,0.0,0.0,0.0,0.0,0.0,0.0,0.0,0.0,0.0,0.0,0.0,0.0,0.0,0.0,0.0,0.0,0.0,0.0,0.0,0.0,0.0,0.0,0.0,0.0,0.0,0.0,0.0,0.0,0.0,0.0,0.0,0.0,0.0,0.0,0.0,0.0,0.0,0.0,0.0,0.0,0.0,0.0,0.0,0.0,0.0,0.0,0.0,0.0,0.0,0.0,0.0,0.0,0.0,0.0,0.0,0.0,0.0,0.0,0.0,0.0,0.0,0.0,0.0,0.0,0.0,0.0,0.0,0.0,0.0,0.0,0.0,0.0,0.0,0.0,0.0,0.0,0.0,0.0,0.0,0.0,0.0,0.0,0.0,0.0,0.0,0.0,0.0,2.961,3.064,3.2918,3.4101,3.4036,3.1484,2.9249,0.0,0.0,0.0,0.0,0.0,0.0,0.0,0.0,0.0,0.0,0.0,0.0,0.0,0.0,0.0,0.0,0.0,0.0,0.0,0.0,0.0,0.0,0.0,0.0,0.0,0.0,0.0,0.0,0.0,0.0,0.0,0.0,0.0,0.0,0.0,0.0,0.0,0.0,0.0,0.0,0.0,0.0,0.0,0.0,0.0,0.0,0.0,0.0,0.0,0.0,0.0,0.0,0.0,0.0,0.0,0.0,0.0,0.0,0.0,0.0,0.0,0.0,0.0,0.0,0.0,0.0,0.0,0.0,0.0,0.0,0.0,0.0,0.0,0.0,0.0,0.0,0.0,0.0,0.0,0.0,0.0,0.0,0.0,0.0,0.0,0.0,0.0,0.0,0.0,0.0,0.0,0.0,0.0,0.0,0.0,0.0,0.0,0.0,0.0,0.0,0.0,0.0,0.0,0.0,0.0,0.0,0.0,0.0,3.0179,3.2158,3.3433,3.4101,3.4101,3.15,2.9611,0.0,0.0,0.0,0.0,0.0,0.0,0.0,0.0,0.0,0.0,0.0,0.0,0.0,0.0,0.0,0.0,0.0,0.0,0.0,0.0,0.0,0.0,0.0,0.0,0.0,0.0,0.0,0.0,0.0,0.0,0.0,0.0,0.0,0.0,0.0,0.0,0.0,0.0,0.0,0.0,0.0,0.0,0.0,0.0,0.0,0.0,0.0,0.0,2.5843,0.0,0.0,0.0,0.0,0.0,0.0,0.0,0.0,0.0,0.0,0.0,0.0,0.0,0.0,0.0,0.0,0.0,0.0,0.0,0.0,0.0,0.0,0.0,0.0,0.0,0.0,0.0,0.0,0.0,0.0,0.0,0.0,0.0,0.0,0.0,0.0,0.0,0.0,0.0,0.0,0.0,0.0,0.0,0.0,0.0,0.0,0.0,0.0,0.0,0.0,0.0,0.0,0.0,0.0,0.0,0.0,0.0,0.0,0.0,3.0752,3.2721,3.3695,3.4151,3.4052,3.2286,3.0703,0.0,0.0,0.0,0.0,0.0,0.0,0.0,0.0,0.0,0.0,0.0,0.0,0.0,0.0,0.0,0.0,0.0,0.0,0.0,0.0,0.0,0.0,0.0,0.0,0.0,0.0,0.0,0.0,0.0,0.0,0.0,0.0,0.0,0.0,0.0,0.0,0.0,0.0,0.0,0.0,0.0,0.0,0.0,0.0,0.0,0.0,0.0,0.0,0.0,0.0,0.0,0.0,0.0,0.0,0.0,0.0,0.0,0.0,0.0,0.0,0.0,0.0,0.0,0.0,0.0,0.0,0.0,0.0,0.0,0.0,0.0,0.0,0.0,0.0,0.0,0.0,0.0,0.0,0.0,0.0,0.0,0.0,0.0,0.0,0.0,0.0,0.0,0.0,0.0,0.0,0.0,0.0,0.0,0.0,0.0,0.0,0.0,0.0,0.0,0.0,0.0,0.0,0.0,0.0,0.0,0.0,0.0,2.9641,3.1262,3.303,3.3859,3.4201,3.4084,3.3157,3.1899,3.0127,0.0,0.0,0.0,0.0,0.0,0.0,0.0,0.0,0.0,0.0,0.0,0.0,0.0,0.0,0.0,0.0,0.0,0.0,0.0,0.0,0.0,0.0,0.0,0.0,0.0,0.0,0.0,0.0,0.0,0.0,0.0,0.0,0.0,0.0,0.0,0.0,0.0,0.0,2.4161,2.4997,0.0,0.0,0.0,0.0,0.0,0.0,0.0,0.0,2.701,0.0,0.0,0.0,0.0,0.0,0.0,0.0,0.0,0.0,0.0,0.0,0.0,0.0,0.0,0.0,0.0,0.0,0.0,0.0,0.0,0.0,0.0,0.0,0.0,0.0,0.0,0.0,0.0,0.0,0.0,0.0,0.0,0.0,0.0,0.0,0.0,0.0,0.0,0.0,0.0,0.0,0.0,0.0,0.0,0.0,0.0,0.0,0.0,0.0,0.0,0.0,0.0,0.0,0.0,0.0,0.0,2.9596,3.0133,3.1566,3.3824,3.4036,3.4101,3.4068,3.3173,3.2056,3.0736,0.0,0.0,0.0,0.0,0.0,0.0,0.0,0.0,0.0,0.0,0.0,0.0,0.0,0.0,0.0,0.0,0.0,0.0,0.0,0.0,0.0,0.0,0.0,0.0,0.0,0.0,0.0,0.0,0.0,0.0,0.0,0.0,0.0,0.0,0.0,0.0,0.0,0.0,0.0,2.5729,2.5897,0.0,0.0,0.0,0.0,0.0,0.0,0.0,0.0,2.7947,0.0,0.0,0.0,0.0,0.0,0.0,0.0,0.0,0.0,0.0,0.0,0.0,0.0,0.0,0.0,0.0,0.0,0.0,0.0,0.0,0.0,0.0,0.0,0.0,0.0,0.0,0.0,0.0,0.0,0.0,0.0,0.0,0.0,0.0,0.0,0.0,0.0,0.0,0.0,0.0,0.0,0.0,0.0,0.0,0.0,0.0,0.0,0.0,0.0,0.0,0.0,0.0,0.0,0.0,0.0,2.999,3.1485,3.3029,3.4603,3.5075,3.527,3.5218,3.3979,3.2711,0.0,0.0,0.0,0.0,0.0,0.0,0.0,0.0,0.0,0.0,0.0,0.0,0.0,0.0,0.0,0.0,0.0,0.0,0.0,0.0,0.0,0.0,0.0,0.0,0.0,0.0,0.0,0.0,0.0,0.0,0.0,0.0,0.0,0.0,0.0,0.0,0.0,0.0,0.0,0.0,2.655,2.6902,2.7575,0.0,0.0,0.0,0.0,0.0,0.0,2.9108,2.9016,0.0,0.0,0.0,0.0,0.0,0.0,0.0,0.0,0.0,0.0,0.0,0.0,0.0,0.0,0.0,0.0,0.0,0.0,0.0,0.0,0.0,0.0,0.0,0.0,0.0,0.0,0.0,0.0,0.0,0.0,0.0,0.0,0.0,0.0,0.0,0.0,0.0,0.0,0.0,0.0,0.0,0.0,0.0,0.0,0.0,0.0,0.0,0.0,0.0,0.0,0.0,0.0,0.0,0.0,0.0,3.0633,3.2876,3.4533,3.538,3.6068,3.6377,3.627,3.4619,3.3153,0.0,0.0,0.0,0.0,0.0,0.0,0.0,0.0,0.0,0.0,0.0,0.0,0.0,0.0,0.0,0.0,0.0,0.0,0.0,0.0,0.0,0.0,0.0,0.0,0.0,0.0,0.0,0.0,0.0,0.0,0.0,0.0,0.0,0.0,0.0,0.0,0.0,0.0,0.0,0.0,0.0,2.7897,2.8759,2.8352,0.0,0.0,0.0,0.0,2.9715,3.016,0.0,0.0,0.0,0.0,0.0,0.0,0.0,0.0,0.0,0.0,0.0,0.0,0.0,0.0,0.0,0.0,0.0,0.0,0.0,0.0,0.0,0.0,0.0,0.0,0.0,0.0,0.0,0.0,0.0,0.0,0.0,0.0,0.0,0.0,0.0,0.0,0.0,0.0,0.0,0.0,0.0,0.0,0.0,0.0,0.0,0.0,0.0,0.0,0.0,0.0,0.0,0.0,0.0,0.0,0.0,0.0,3.2535,3.3969,3.5186,3.6141,3.6254,3.6303,3.6287,3.4393,3.2929,0.0,0.0,0.0,0.0,0.0,0.0,0.0,0.0,0.0,0.0,0.0,0.0,0.0,0.0,0.0,0.0,0.0,0.0,0.0,0.0,0.0,0.0,0.0,0.0,0.0,0.0,0.0,0.0,0.0,0.0,0.0,0.0,0.0,0.0,0.0,0.0,0.0,0.0,0.0,0.0,0.0,2.8183,2.9336,2.897,2.8619,0.0,0.0,3.0333,3.0417,3.1188,0.0,0.0,0.0,0.0,0.0,0.0,0.0,0.0,0.0,0.0,0.0,0.0,0.0,0.0,0.0,0.0,0.0,0.0,0.0,0.0,0.0,0.0,0.0,0.0,0.0,0.0,0.0,0.0,0.0,0.0,0.0,0.0,0.0,0.0,0.0,0.0,0.0,0.0,0.0,0.0,0.0,0.0,0.0,0.0,0.0,0.0,0.0,0.0,0.0,0.0,0.0,0.0,0.0,0.0,0.0,3.1557,3.2926,3.5112,3.6438,3.6886,3.729,3.7485,3.7501,3.5192,3.3461,0.0,0.0,0.0,0.0,0.0,0.0,0.0,0.0,0.0,0.0,0.0,0.0,0.0,0.0,0.0,0.0,0.0,0.0,0.0,0.0,0.0,0.0,0.0,0.0,0.0,0.0,0.0,0.0,0.0,0.0,0.0,0.0,0.0,0.0,0.0,0.0,0.0,0.0,0.0,0.0,0.0,0.0,3.001,2.9897,0.0,0.0,0.0,3.0656,3.1021,0.0,0.0,0.0,0.0,0.0,0.0,0.0,0.0,0.0,0.0,0.0,0.0,0.0,0.0,0.0,0.0,0.0,0.0,0.0,0.0,0.0,0.0,0.0,0.0,0.0,0.0,0.0,0.0,0.0,0.0,0.0,0.0,0.0,0.0,0.0,0.0,0.0,0.0,0.0,0.0,0.0,0.0,0.0,0.0,0.0,0.0,0.0,0.0,0.0,0.0,0.0,0.0,0.0,0.0,0.0,0.0,0.0,3.3459,3.6181,3.7598,3.7598,3.8116,3.8391,3.8359,3.6206,0.0,0.0,0.0,0.0,0.0,0.0,0.0,0.0,0.0,0.0,0.0,0.0,0.0,0.0,0.0,0.0,0.0,0.0,0.0,0.0,0.0,0.0,0.0,0.0,0.0,0.0,0.0,2.4653,0.0,0.0,0.0,0.0,0.0,0.0,0.0,0.0,0.0,0.0,0.0,0.0,0.0,0.0,2.9897,3.0656,3.0755,3.0993,0.0,0.0,3.0979,3.1626,3.208,3.2123,0.0,0.0,0.0,0.0,0.0,0.0,0.0,0.0,0.0,0.0,0.0,0.0,0.0,0.0,0.0,0.0,0.0,0.0,0.0,0.0,0.0,0.0,0.0,0.0,0.0,0.0,0.0,0.0,0.0,0.0,0.0,0.0,0.0,0.0,0.0,0.0,0.0,0.0,0.0,0.0,0.0,0.0,0.0,0.0,0.0,0.0,0.0,0.0,0.0,0.0,0.0,0.0,0.0,0.0,0.0,3.4883,3.7174,3.8311,3.8327,3.8375,3.8391,3.8391,3.7335,3.584,0.0,0.0,0.0,0.0,0.0,0.0,0.0,0.0,0.0,0.0,0.0,0.0,0.0,0.0,0.0,0.0,0.0,0.0,0.0,0.0,0.0,0.0,0.0,0.0,0.0,0.0,0.0,0.0,0.0,0.0,0.0,0.0,0.0,0.0,0.0,0.0,0.0,0.0,0.0,0.0,0.0,3.0052,3.126,3.1429,3.164,0.0,0.0,3.164,3.2244,3.2848,3.2862,3.1668,0.0,0.0,0.0,0.0,0.0,0.0,0.0,0.0,0.0,0.0,0.0,0.0,0.0,0.0,0.0,0.0,0.0,0.0,0.0,0.0,0.0,0.0,0.0,0.0,0.0,0.0,0.0,0.0,0.0,0.0,0.0,0.0,0.0,0.0,0.0,0.0,0.0,0.0,0.0,0.0,0.0,0.0,0.0,0.0,0.0,0.0,0.0,0.0,0.0,0.0,0.0,0.0,0.0,3.3942,3.5023,3.727,3.8391,3.8391,3.8391,3.8391,3.8391,3.7432,3.6039,0.0,0.0,0.0,0.0,0.0,0.0,0.0,0.0,0.0,0.0,0.0,0.0,0.0,0.0,0.0,0.0,0.0,0.0,0.0,0.0,0.0,0.0,0.0,0.0,0.0,0.0,0.0,0.0,2.7959,2.8268,2.7994,0.0,0.0,0.0,0.0,0.0,0.0,0.0,0.0,0.0,0.0,3.0628,3.1878,3.2061,0.0,0.0,3.2216,3.2005,3.1864,3.2356,3.2328,3.1106,3.0375,0.0,0.0,0.0,0.0,0.0,0.0,0.0,0.0,0.0,0.0,0.0,0.0,0.0,0.0,0.0,0.0,0.0,0.0,0.0,0.0,0.0,0.0,0.0,0.0,0.0,0.0,0.0,0.0,0.0,0.0,0.0,0.0,0.0,0.0,0.0,0.0,0.0,0.0,0.0,0.0,0.0,0.0,0.0,0.0,0.0,0.0,0.0,0.0,0.0,0.0,0.0,0.0,3.4263,3.5023,3.7254,3.8391,3.8391,3.8391,3.8391,3.8391,3.7738,3.6622,0.0,0.0,0.0,0.0,0.0,0.0,0.0,0.0,0.0,0.0,0.0,0.0,0.0,0.0,0.0,0.0,0.0,0.0,0.0,0.0,0.0,0.0,0.0,0.0,0.0,0.0,0.0,0.0,2.8591,2.8587,2.7583,0.0,0.0,0.0,0.0,0.0,0.0,0.0,0.0,0.0,0.0,3.1134,3.2005,3.2131,3.2131,3.2131,3.1977,3.1752,3.1527,3.1864,3.1822,3.0951,0.0,0.0,0.0,0.0,0.0,0.0,0.0,0.0,0.0,0.0,0.0,0.0,0.0,0.0,0.0,0.0,0.0,0.0,0.0,0.0,0.0,0.0,0.0,0.0,0.0,0.0,0.0,0.0,0.0,0.0,3.0427,0.0,0.0,0.0,0.0,0.0,0.0,0.0,0.0,0.0,0.0,0.0,0.0,0.0,0.0,0.0,0.0,0.0,0.0,0.0,0.0,0.0,0.0,3.4319,3.5023,3.727,3.8391,3.8391,3.8391,3.8391,3.8391,3.8375,3.7794,3.6612,0.0,0.0,0.0,0.0,0.0,0.0,0.0,0.0,0.0,0.0,0.0,0.0,0.0,0.0,0.0,0.0,0.0,0.0,0.0,0.0,0.0,0.0,0.0,0.0,0.0,0.0,2.8563,2.9209,2.9007,0.0,0.0,0.0,0.0,0.0,0.0,0.0,0.0,0.0,0.0,3.067,3.1471,3.1513,3.1513,3.1555,3.1555,3.1007,3.0797,3.1401,3.1499,3.1499,0.0,0.0,0.0,0.0,0.0,0.0,0.0,0.0,0.0,0.0,0.0,0.0,0.0,0.0,0.0,0.0,0.0,0.0,0.0,0.0,0.0,0.0,0.0,0.0,0.0,0.0,0.0,3.2326,3.1703,0.0,0.0,0.0,0.0,0.0,0.0,0.0,0.0,0.0,0.0,0.0,3.3761,3.3761,0.0,0.0,0.0,0.0,0.0,0.0,0.0,0.0,0.0,0.0,0.0,0.0,3.4789,3.5086,3.7254,3.8391,3.8391,3.8391,3.8391,3.8391,3.8391,3.7883,3.6749,0.0,0.0,0.0,0.0,0.0,0.0,0.0,0.0,0.0,0.0,0.0,0.0,0.0,0.0,0.0,0.0,0.0,0.0,0.0,0.0,0.0,0.0,0.0,0.0,0.0,2.8769,0.0,0.0,0.0,0.0,0.0,0.0,0.0,0.0,0.0,0.0,0.0,2.9307,3.0108,3.0572,3.1007,3.1429,3.1485,3.164,0.0,0.0,0.0,0.0,0.0,0.0,0.0,0.0,0.0,0.0,0.0,0.0,0.0,0.0,2.9693,2.9563,2.9813,2.9955,2.9686,0.0,0.0,0.0,0.0,0.0,0.0,0.0,0.0,0.0,0.0,0.0,0.0,0.0,0.0,3.3617,0.0,3.3067,0.0,0.0,0.0,0.0,0.0,0.0,0.0,0.0,3.4603,3.504,3.5218,3.5218,3.5218,0.0,3.4975,3.4325,0.0,0.0,0.0,0.0,0.0,0.0,0.0,0.0,3.508,3.5127,3.7254,3.8391,3.8391,3.8391,3.8391,3.8391,3.8391,3.8052,3.7287,3.5872,3.4605,0.0,0.0,0.0,0.0,0.0,0.0,0.0,0.0,0.0,0.0,0.0,0.0,0.0,0.0,0.0,0.0,0.0,0.0,0.0,0.0,0.0,0.0,0.0,2.954,0.0,0.0,0.0,0.0,0.0,0.0,0.0,0.0,0.0,2.8594,2.9407,3.015,3.0783,3.1036,3.1176,3.1162,0.0,0.0,0.0,0.0,0.0,0.0,0.0,3.1007,3.1415,3.1499,3.1629,3.2164,3.1664,3.1386,3.183,0.0,0.0,3.0918,3.1265,3.1612,3.1392,3.1323,3.1323,3.1323,3.1007,3.0842,0.0,0.0,0.0,0.0,0.0,0.0,0.0,0.0,3.4871,3.4427,0.0,3.43,0.0,0.0,0.0,0.0,0.0,3.454,0.0,0.0,3.7323,3.8003,3.7339,3.7307,3.7339,3.7307,3.6675,3.6367,3.6303,3.555,0.0,0.0,0.0,0.0,0.0,0.0,3.5241,3.5376,3.7423,3.8489,3.8489,3.8489,3.8489,3.8432,3.8432,3.8359,3.8327,3.7326,3.6437,3.5705,3.3597,0.0,0.0,0.0,0.0,0.0,0.0,0.0,0.0,0.0,0.0,0.0,0.0,0.0,0.0,0.0,0.0,0.0,0.0,0.0,0.0,2.9645,0.0,0.0,0.0,0.0,0.0,0.0,0.0,0.0,0.0,0.0,2.9162,2.9973,3.0755,3.1359,0.0,0.0,0.0,0.0,3.105,2.9982,3.0235,3.0614,3.0698,3.1176,3.1963,3.3129,0.0,0.0,3.4068,3.3761,3.3368,3.3382,3.3859,3.3844,3.2514,3.2765,3.3071,3.2687,3.2616,3.2616,3.2616,3.2588,3.2674,3.7023,0.0,0.0,0.0,0.0,3.525,3.5861,3.6894,3.6842,3.6362,3.5535,3.5834,0.0,0.0,0.0,0.0,0.0,0.0,3.572,3.6707,3.7355,3.7792,3.8084,3.81,3.8084,3.8068,3.789,3.7792,3.7809,3.8044,3.6749,3.3981,0.0,0.0,0.0,0.0,3.64,3.7054,3.8921,3.9897,3.9897,3.9881,3.9629,3.9116,3.8623,3.8309,3.8309,3.8481,3.7698,3.5738,3.5505,0.0,0.0,0.0,0.0,0.0,0.0,0.0,0.0,0.0,0.0,0.0,0.0,0.0,0.0,0.0,0.0,0.0,0.0,0.0,3.0178,3.0684,3.0289,0.0,0.0,0.0,0.0,0.0,0.0,0.0,0.0,0.0,3.0498,3.0541,3.0586,0.0,0.0,3.0445,3.0502,3.0684,3.1148,3.2131,3.2047,0.0,3.3045,3.296,3.3059,3.3859,3.4337,3.4688,3.4857,3.4745,3.4632,3.4632,3.5124,3.5419,3.5022,3.4699,3.4573,3.4458,3.4472,3.4385,3.4385,3.4472,3.4325,3.8405,3.7319,3.6257,3.6208,3.687,3.6786,3.731,3.8187,3.815,3.7649,3.6831,3.7091,3.6425,3.4975,3.4959,0.0,0.0,0.0,3.6643,3.776,3.7744,3.797,3.8391,3.8699,3.8829,3.8829,3.9104,3.9233,3.9233,3.9671,3.8689,3.6294,0.0,0.0,3.5284,3.6717,3.7711,3.8275,3.972,4.0496,4.0496,4.0496,4.0164,3.9439,3.8997,3.8611,3.8299,3.8741,3.8224,3.6782,3.6938,3.6059,0.0,0.0,0.0,0.0,0.0,0.0,0.0,0.0,0.0,0.0,0.0,2.8141,2.8141,0.0,0.0,0.0,2.9996,3.0502,3.0867,3.0811,0.0,0.0,0.0,0.0,0.0,0.0,0.0,2.8787,2.9956,3.1002,3.1604,3.1643,3.1541,3.1302,3.1162,3.1134,3.126,0.0,3.2314,3.3213,3.3213,3.3382,3.4112,3.4126,3.4253,3.4857,3.5475,3.5944,3.5958,3.5944,3.5883,3.5925,3.6178,3.6431,3.6431,3.6121,3.5958,3.5883,3.5883,3.5883,3.5883,3.5807,3.5593,3.9288,3.9209,3.7831,3.7665,3.8278,3.8242,3.8537,3.8952,3.886,3.8302,3.7655,3.814,3.7679,3.6465,3.6481,0.0,3.7404,3.7469,3.7857,3.8489,3.8537,3.857,3.8586,3.925,3.9557,3.959,4.0189,4.0496,4.048,4.0545,4.0178,3.943,3.9285,3.8738,3.7769,3.8626,3.9129,3.9253,4.0183,4.0658,4.0598,4.0522,4.0142,3.9424,3.9345,3.896,3.8335,3.8335,3.8305,3.8228,3.7923,3.7361,3.6387,0.0,0.0,0.0,0.0,0.0,0.0,0.0,0.0,0.0,0.0,0.0,0.0,0.0,0.0,0.0,3.1232,0.0,3.1626,3.06,0.0,0.0,0.0,2.9031,2.9448,2.9636,2.9987,3.049,0.0,0.0,3.2483,3.3045,3.3213,3.2693,3.3031,3.3143,3.2637,3.3466,3.4056,3.3691,3.4042,3.4321,3.4632,3.4997,3.5475,3.5995,3.6613,3.6894,3.6908,3.6908,3.695,3.6908,3.6978,3.6964,3.6978,3.6922,3.6978,3.6922,3.6936,3.695,3.6894,3.666,3.6425,3.9288,3.9309,3.8891,3.8858,3.9023,3.8884,3.8821,3.8843,3.8711,3.8463,3.8205,3.8311,3.8213,3.7906,3.7906,3.7987,3.8165,3.8715,3.9055,3.925,3.9752,3.9994,3.9994,4.0173,4.0254,4.027,4.0415,4.0496,4.0529,4.1047,4.1225,4.1096,4.1536,4.0784,3.89,3.9585,4.0333,4.1003,4.1698,4.185,4.1294,4.0692,4.0059,3.9319,3.877,3.844,3.8238,3.8784,3.856,3.7647,3.7973,3.7503,3.5869,3.4522,0.0,0.0,0.0,0.0,0.0,0.0,0.0,0.0,0.0,2.9378,2.9392,0.0,3.0951,0.0,3.2258,3.2876,3.289,3.2623,0.0,0.0,3.2179,3.1999,3.1944,3.25,3.2793,3.2472,3.3129,3.3635,3.3789,3.393,3.414,3.4421,3.3817,3.3424,3.3747,3.4028,3.4534,3.5236,3.5503,3.5798,3.6178,3.6445,3.6557,3.6754,3.6894,3.6978,3.6978,3.6978,3.6978,3.6978,3.6978,3.6978,3.6978,3.6978,3.6978,3.6978,3.6978,3.6978,3.6978,3.69,3.6836,4.0216,4.0233,4.0216,4.0233,4.0183,3.9412,3.904,3.886,3.875,3.8795,3.9024,3.9259,3.9331,3.9331,3.9331,3.9331,3.9363,3.9735,3.993,3.9962,4.0318,4.0496,4.0513,4.082,4.0966,4.0982,4.1306,4.1436,4.1468,4.184,4.2035,4.2051,4.2439,4.1973,4.0797,4.112,4.1585,4.2035,4.2439,4.2222,4.1525,4.1095,4.0262,3.8957,3.8542,3.7989,3.7375,3.7768,3.7607,3.6939,3.7594,3.7322,3.6018,3.503,3.4082,0.0,0.0,0.0,0.0,0.0,0.0,0.0,0.0,0.0,0.0,0.0,3.2314,3.2314,3.3171,3.3607,3.3354,3.3312,3.3367,3.3563,3.3591,3.3688,3.381,3.429,3.436,3.4111,3.4615,3.5054,3.5068,3.5293,3.5574,3.5925,3.5377,3.4983,3.5054,3.5264,3.5714,3.636,3.6473,3.6571,3.695,3.6978,3.6978,3.6978,3.6978,3.6978,3.6978,3.6978,3.6978,3.6978,3.6978,3.6978,3.6978,3.6978,3.6978,3.6978,3.6652,3.6573,3.69,3.6508,3.6177,4.1425,4.1425,4.1425,4.1425,4.1309,4.0067,3.9483,3.9249,3.9139,3.9348,3.9812,4.0296,4.0496,4.0496,4.0496,4.0496,4.0496,4.0594,4.0626,4.0626,4.0723,4.0772,4.0788,4.1419,4.1711,4.1743,4.2326,4.2571,4.2571,4.2571,4.2571,4.2571,4.2571,4.2571,4.2571,4.2571,4.2571,4.2571,4.2555,4.2094,4.1317,4.1185,4.0189,3.8257,3.8157,3.7553,3.6344,3.6286,3.6286,3.6301,3.6906,3.702,3.6459,3.5813,3.5134,0.0,3.3192,0.0,0.0,0.0,0.0,0.0,0.0,0.0,0.0,3.3087,3.3466,3.355,3.4042,3.4169,3.3719,3.3677,3.393,3.4433,3.459,3.4801,3.5321,3.5465,3.5465,3.5391,3.5869,3.6192,3.6178,3.6669,3.6964,3.6908,3.6824,3.6599,3.6332,3.6571,3.6866,3.6978,3.6978,3.6936,3.6978,3.6978,3.6978,3.6978,3.6978,3.6978,3.6978,3.6978,3.6978,3.6978,3.6978,3.6978,3.6978,3.69,3.6822,3.6978,3.6322,3.599,3.6494,3.6004,3.5453,4.1425,4.1425,4.1425,4.1425,4.1392,4.111,4.0899,4.0786,4.0631,4.0482,4.0361,4.0432,4.0496,4.0496,4.0496,4.0496,4.0529,4.1096,4.1355,4.1387,4.197,4.2229,4.2245,4.2359,4.2439,4.2439,4.2569,4.2571,4.2571,4.2571,4.2571,4.2571,4.2571,4.2571,4.2571,0.0,0.0,0.0,4.2142,4.1306,4.01,3.948,3.8521,3.7016,3.676,0.0,3.6301,3.6286,3.6286,3.6301,3.6443,0.0,0.0,0.0,0.0,0.0,0.0,0.0,0.0,0.0,0.0,0.0,3.355,3.355,3.3199,3.3705,3.4267,3.4759,3.4913,3.5138,3.5517,3.5545,3.5798,3.6374,3.6459,3.6515,3.6627,3.6613,3.6641,3.6641,3.674,3.681,3.6796,3.6922,3.6978,3.6978,3.6978,3.695,3.6824,3.6894,3.6978,3.6978,3.6978,3.6978,3.6978,3.6978,3.6978,3.6978,3.6978,3.6978,3.6978,3.6978,3.6978,3.69,3.6978,3.6978,3.6978,3.6415,3.6163,3.6822,3.6243,3.5749,3.591,3.5736,3.5588,4.2518,0.0,4.2502,4.2518,0.0,4.2502,4.246,4.2336,4.1453,4.118,4.1287,4.1569,4.1687,4.1671,4.1549,4.1549,4.1549,4.1921,4.2083,4.2116,4.2472,4.2571,4.2571,4.2571,4.2571,4.2571,4.2571,4.2571,4.2571,4.2571,4.2571,4.2571,4.2571,4.2571,4.2571,4.2222,4.2077,4.2077,4.1803,4.0939,3.9581,3.9179,3.8329,3.6982,3.6881,0.0,0.0,0.0,0.0,0.0,0.0,0.0,0.0,0.0,0.0,3.6,3.5424,3.5123,3.5139,3.5095,3.5165,3.5257,3.5479,3.5335,3.4716,3.5236,3.5728,3.6023,3.6051,3.6178,3.6473,3.6529,3.6641,3.695,3.6978,3.6978,3.6978,3.6978,3.6978,3.6978,3.6978,3.6978,3.6978,3.6978,3.6978,3.6978,3.6978,3.6978,3.6978,3.6978,3.6978,3.6978,3.6978,3.6978,3.6978,3.6978,3.6978,3.6978,3.6978,3.6808,3.6401,3.6336,3.6229,3.5816,3.5642,3.5803,3.6149,3.5655,3.5318,3.5976,3.5332,3.4284,3.4088,3.4534,3.5156,4.3645,4.3645,4.3645,4.3645,4.3645,4.3645,4.3645,4.3469,0.0,0.0,0.0,4.2717,4.2899,4.2837,4.2696,4.2571,4.2571,4.2571,4.2571,4.2571,4.2571,4.2571,4.2571,4.2571,4.2571,4.2571,4.2571,4.2571,4.2571,4.2571,4.2571,4.2571,4.2571,4.2555,4.2349,4.1803,4.1393,4.1111,4.1111,4.0507,3.9197,3.9068,3.8426,3.7216,3.7128,3.6881,3.633,3.6286,3.6286,3.6286,3.6286,3.6359,3.6475,3.6489,3.6461,3.6404,3.6404,3.6576,3.6885,3.6928,3.6992,3.7275,3.7134,3.6845,3.6262,3.6697,3.6978,3.6978,3.6978,3.6978,3.6978,3.6978,3.6978,3.6978,3.6978,3.6978,3.6978,3.6978,3.6978,3.6978,3.6978,3.6978,3.6978,3.6978,3.6978,3.6978,3.6978,3.6978,3.6978,3.6978,3.6978,3.6978,3.6808,3.6744,3.6744,3.648,3.6559,3.6401,3.6559,3.6494,3.5924,3.583,3.5575,3.4897,3.4555,3.4897,3.5251,3.4733,3.4446,3.5103,3.3996,3.2751,3.2548,3.3091,3.394,4.3645,4.3645,4.3645,4.3645,4.3645,4.3645,4.3645,4.3568,4.3201,4.2961,4.2831,4.2851,4.2821,4.2634,4.2618,4.2571,4.2571,4.2571,4.2571,4.2571,4.2571,4.2571,4.2571,4.2571,4.2571,4.2571,4.2571,4.2571,4.2571,4.2571,4.2571,4.2571,4.2571,4.2285,4.1672,4.1525,4.0909,3.9662,3.9748,3.9476,3.8747,3.8157,3.7461,3.6718,3.6561,3.6402,3.633,3.6315,3.6286,3.6286,3.6286,3.6577,3.7128,3.7157,3.7389,3.7808,3.7852,3.7835,3.7724,3.7724,3.7601,3.7366,3.7303,3.7183,3.6944,3.6936,3.6978,3.6978,3.6978,3.6978,3.6978,3.6978,3.6978,3.6978,3.6978,3.6978,3.6978,3.6978,3.6978,3.6978,3.6978,3.6978,3.6978,3.6978,3.6978,3.6978,3.69,3.6978,3.69,3.6978,3.6978,3.69,3.6336,3.591,3.591,3.5142,3.4979,3.4733,3.54,3.583,3.5507,3.607,3.607,3.548,3.5156,3.5061,3.465,3.3817,3.3456,3.3783,3.2995,3.2319,3.2333,3.2107,3.1902,4.3645,4.3645,4.3645,4.3645,4.3645,4.3645,4.3645,4.3568,4.3568,4.3449,4.3267,4.3068,4.2945,4.2867,4.2696,4.2571,4.2571,4.2571,4.2571,4.2571,4.2571,4.2571,4.2571,4.2571,4.2571,4.2571,4.2571,4.2571,4.2571,4.2571,4.2571,4.2571,4.2571,4.2429,4.2061,4.1327,4.0554,3.9929,3.9591,3.9098,3.8398,3.8047,3.7784,3.7492,3.7346,3.7346,3.7331,3.7331,3.7331,3.7331,3.7331,3.7476,3.7767,3.7796,3.7912,3.8188,3.8202,3.8127,3.8066,3.7853,3.7625,3.7471,3.7226,3.7056,3.6978,3.6978,3.6978,3.6978,3.6978,3.6978,3.6978,3.6978,3.6978,3.6978,3.6978,3.6978,3.6978,3.6978,3.6978,3.6978,3.6978,3.6978,3.6978,3.6978,3.6978,3.6978,3.6652,3.6336,3.6322,3.591,3.5896,3.673,3.6665,3.6256,3.5749,3.54,3.4897,3.4389,3.465,3.4733,3.4402,3.4979,3.4897,3.3914,3.3914,3.4069,3.3649,3.2907,3.2584,3.265,3.2081,3.1555,3.1035,3.0307,3.0052,4.3645,4.3645,4.3645,4.3645,4.3645,4.3645,4.3645,4.3645,4.3645,4.3645,4.3568,4.3295,4.3174,4.3096,4.2805,4.268,4.2696,4.2713,4.2634,4.2571,4.2571,4.2571,4.2571,4.2571,4.2571,4.2571,4.2571,4.2571,4.2571,4.2571,4.2571,4.2571,4.2571,4.2492,4.2365,4.1044,4.0347,4.0139,3.9448,3.8738,3.8202,3.8202,3.8202,3.8202,3.8202,3.8202,3.8202,3.8202,3.8202,3.8202,3.8202,3.8202,3.8202,3.8202,3.8202,3.8202,3.8202,3.8202,3.8202,3.7915,3.7687,3.7701,3.738,3.7134,3.7056,3.6993,3.6978,3.6978,3.6978,3.6978,3.6978,3.6978,3.6978,3.6978,3.6978,3.6978,3.6978,3.6978,3.6978,3.6978,3.6978,3.6978,3.6978,3.6822,3.6652,3.6573,3.6084,3.5749,3.5575,3.4897,3.4979,3.5896,3.6401,3.607,3.5494,3.5074,3.4581,3.3901,3.3888,3.3733,3.3395,3.3804,3.372,3.2747,3.2661,3.2907,3.2735,3.2239,3.1796,3.1732,3.1113,3.0399,2.9492,2.902,2.8835,4.3645,4.3645,4.3645,4.3645,4.3645,4.3645,4.3645,4.3645,4.3645,4.3645,4.3568,4.3449,4.3312,4.3113,4.3052,4.3007,4.2899,4.2837,4.2775,4.2634,4.2571,4.2571,4.2571,4.2571,4.2571,4.2571,4.2571,4.2571,4.2571,4.2571,4.2571,4.2571,4.2571,4.2285,4.1591,4.0826,4.0069,3.9376,3.8694,3.8263,3.8202,3.8202,3.8202,3.8202,3.8202,3.8202,3.8202,3.8202,3.8202,3.8202,3.8202,3.8202,3.8202,3.8202,3.8202,3.8202,3.8202,3.8202,3.8202,3.8202,3.8066,3.7853,3.7625,3.7471,3.7303,3.7134,3.6978,3.6978,3.6978,3.6978,3.6978,3.6978,3.6978,3.6978,3.6978,3.6978,3.6978,3.6978,3.6978,3.6978,3.6978,3.6978,3.69,3.6415,3.583,3.5669,3.5494,3.5413,3.5332,3.465,3.4223,3.4555,3.4568,3.4568,3.4402,3.3733,3.3152,3.2413,3.2649,3.2895,3.3066,3.3479,3.3888,3.2735,3.2821,3.2747,3.2164,3.1725,3.1363,3.0737,3.029,2.9809,2.8895,2.8558,2.8775,4.3645,4.3645,4.3645,4.3645,4.3645,4.3645,4.3645,4.3645,4.3645,4.3645,4.3568,4.3568,4.3449,4.3235,4.3157,4.299,4.2899,4.2916,4.2775,4.2634,4.2571,4.2571,4.2571,4.2571,4.2571,4.2571,4.2571,4.2571,4.2571,4.2571,4.2571,4.2571,4.2571,4.2412,4.2077,4.0961,4.0278,3.9945,3.8767,3.8202,3.8202,3.8202,3.8202,3.8202,3.8202,3.8202,3.8202,3.8202,3.8202,3.8202,3.8202,3.8202,3.8202,3.8202,3.8202,3.8202,3.8202,3.8202,3.8202,3.8066,3.8005,3.7929,3.7701,3.7534,3.7303,3.7226,3.7148,3.6978,3.6978,3.6978,3.6978,3.6978,3.6978,3.6978,3.6978,3.6978,3.6978,3.6978,3.6978,3.6978,3.6978,3.6978,3.69,3.6243,3.5237,3.4402,3.4165,3.4165,3.4069,3.3322,3.3322,3.3972,3.3888,3.3551,3.3479,3.331,3.2661,3.2077,3.2001,3.2251,3.2413,3.2993,3.3237,3.2401,3.2661,3.2575,3.1913,3.1424,3.0939,3.0194,2.9436,2.8991,2.857,2.851,2.8631,4.3645,4.3645,4.3645,4.3645,4.3645,4.3645,4.3645,4.3645,4.3645,4.3645,4.3645,4.3645,4.3568,4.3432,4.3295,4.319,4.3023,4.3023,4.2961,4.2743,4.2743,4.2759,4.2759,4.2696,4.2696,4.2696,4.2634,4.2571,4.2571,4.2571,4.2571,4.2571,4.2571,4.2492,4.2222,4.0961,4.0278,3.9999,3.8826,3.8202,3.8202,3.8202,3.8202,3.8202,3.8202,3.8202,3.8202,3.8202,3.8202,3.8202,3.8202,3.8202,3.8202,3.8202,3.8202,3.8202,3.8202,3.8202,3.8202,3.8066,3.8005,3.8005,3.7763,3.7625,3.7457,3.7303,3.7226,3.6978,3.6978,3.6978,3.6978,3.6978,3.6978,3.6978,3.6978,3.6978,3.6978,3.6978,3.69,3.673,3.6822,3.673,3.6322,3.5816,3.5074,3.3492,3.3066,3.298,3.2907,3.2413,3.2239,3.331,3.298,3.2821,3.2907,3.298,3.2575,3.2001,3.1749,3.1749,3.1661,3.2326,3.2575,3.2077,3.2413,3.229,3.1622,3.1098,3.0579,2.9929,2.9196,2.8582,2.8522,2.851,2.851,4.3645,4.3645,4.3645,4.3645,4.3645,4.3645,4.3645,4.3645,4.3645,4.3645,4.3645,4.3645,4.3585,4.3568,4.3568,4.3492,4.3388,4.3372,4.3235,4.3035,4.3035,4.3052,4.3052,4.2961,4.2916,4.2837,4.2696,4.2634,4.2634,4.2634,4.2571,4.2571,4.2571,4.2285,4.1656,4.0909,4.0085,3.9448,3.8679,3.8202,3.8202,3.8202,3.8202,3.8202,3.8202,3.8202,3.8202,3.8202,3.8202,3.8202,3.8202,3.8202,3.8202,3.8202,3.8202,3.8202,3.8202,3.8202,3.8202,3.8217,3.8202,3.8127,3.7991,3.7777,3.761,3.7457,3.7303,3.6978,3.6978,3.6978,3.6978,3.6978,3.6978,3.6978,3.6978,3.6978,3.6978,3.6978,3.6573,3.6163,3.6494,3.6149,3.4733,3.5237,3.4664,3.3407,3.2907,3.2907,3.2735,3.2164,3.1913,3.1913,3.2001,3.2089,3.2735,3.2821,3.2488,3.1989,3.1661,3.1661,3.1661,3.1749,3.1749,3.1725,3.1816,3.1634,3.1146,3.0663,3.0218,2.9641,2.9015,2.8558,2.851,2.851,2.851,4.3645,4.3645,4.3645,4.3645,4.3645,4.3645,4.3645,4.3645,4.3645,4.3645,4.3645,4.3645,4.3645,4.3645,4.3645,4.3492,4.3432,4.3372,4.3312,4.3096,4.3096,4.3052,4.2945,4.2899,4.2916,4.2916,4.2837,4.2775,4.2775,4.2775,4.2713,4.2634,4.2571,4.2429,4.2077,4.1459,4.0758,4.0015,3.9233,3.8694,3.8188,3.8202,3.8202,3.8202,3.8202,3.8202,3.8202,3.8202,3.8202,3.8202,3.8202,3.8202,3.8202,3.8202,3.8202,3.8202,3.8202,3.8202,3.8202,3.8202,3.8202,3.8202,3.8142,3.7991,3.7839,3.7701,3.7534,3.7303,3.7226,3.7162,3.6993,3.6978,3.6978,3.6978,3.6978,3.6978,3.6978,3.6978,3.69,3.6573,3.6415,3.5413,3.4152,3.3733,3.3505,3.2413,3.2164,3.2164,3.2164,3.1825,3.1661,3.1661,3.1749,3.1825,3.2089,3.2164,3.2001,3.1825,3.1661,3.1661,3.1661,3.1661,3.1749,3.1592,3.1432,3.112,3.0735,3.0098,2.9677,2.9172,2.8558,2.8546,2.851,2.851,2.851,4.3645,4.3645,4.3645,4.3645,4.3645,4.3645,4.3645,4.3645,4.3645,4.3645,4.3645,4.3645,4.3645,4.3645,4.3645,4.3568,4.3449,4.3449,4.3372,4.3235,4.3235,4.319,4.3146,4.3084,4.3101,4.3023,4.2961,4.2916,4.2899,4.2837,4.2713,4.2634,4.2571,4.2492,4.2158,4.1525,4.0758,4.0085,3.9305,3.8679,3.8277,3.8202,3.8202,3.8202,3.8202,3.8202,3.8202,3.8202,3.8202,3.8202,3.8202,3.8202,3.8202,3.8202,3.8202,3.8202,3.8202,3.8202,3.8202,3.8202,3.8202,3.8202,3.8202,3.8127,3.7929,3.7929,3.7701,3.738,3.7303,3.7226,3.7056,3.6978,3.6978,3.6978,3.6978,3.6978,3.6978,3.6978,3.6978,3.6808,3.5896,3.4733,3.3649,3.3224,3.2661,3.1837,3.1661,3.1661,3.1661,3.1661,3.1661,3.1661,3.1661,3.1749,3.1837,3.1925,3.1825,3.1737,3.1661,3.1661,3.1601,3.1613,3.1529,3.1384,3.112,3.0771,3.0254,2.9593,2.9076,2.8607,2.8522,2.8522,2.851,2.851,2.851,4.3645,4.3645,4.3645,4.3645,4.3645,4.3645,4.3645,4.3645,4.3645,4.3645,4.3645,4.3645,4.3645,4.3645,4.3645,4.3568,4.3568,4.3568,4.3585,4.3568,4.3568,4.3552,4.3509,4.3372,4.3312,4.3328,4.3084,4.2899,4.2899,4.2759,4.2634,4.2634,4.2571,4.2285,4.1591,4.0961,4.0154,3.952,3.8826,3.8352,3.8202,3.8202,3.8202,3.8202,3.8202,3.8202,3.8202,3.8202,3.8202,3.8202,3.8202,3.8202,3.8202,3.8202,3.8202,3.8202,3.8202,3.8202,3.8202,3.8202,3.8202,3.8202,3.8202,3.8127,3.8005,3.7929,3.7701,3.738,3.7303,3.7226,3.7056,3.6978,3.6978,3.6978,3.6978,3.6978,3.6978,3.6978,3.69,3.6494,3.5224,3.4389,3.4056,3.331,3.2488,3.1913,3.1661,3.1661,3.1661,3.1661,3.1661,3.1661,3.1661,3.1661,3.1661,3.1749,3.1649,3.1637,3.1649,3.1649,3.148,3.1432,3.118,3.0999,3.0627,3.0266,2.9629,2.9027,2.8847,2.851,2.851,2.851,2.851,2.851,2.851,4.3645,4.3645,4.3645,4.3645,4.3645,4.3645,4.3645,4.3645,4.3645,4.3645,4.3645,4.3645,4.3645,4.3645,4.3645,4.3645,4.3645,4.3645,4.3645,4.3645,4.3645,4.3568,4.3509,4.3432,4.3372,4.3372,4.3312,4.319,4.3007,4.2883,4.2775,4.2634,4.2571,4.2492,4.2222,4.1525,4.0774,4.0069,3.932,3.8752,3.8277,3.8202,3.8202,3.8202,3.8202,3.8202,3.8202,3.8202,3.8202,3.8202,3.8202,3.8202,3.8202,3.8202,3.8202,3.8202,3.8202,3.8202,3.8202,3.8202,3.8202,3.8202,3.8202,3.8202,3.8142,3.8005,3.7777,3.7534,3.738,3.7226,3.7056,3.6978,3.6978,3.6978,3.6978,3.6978,3.69,3.6494,3.5494,3.4485,3.3733,3.3164,3.2661,3.2251,3.2077,3.1837,3.1661,3.1661,3.1661,3.1661,3.1661,3.1661,3.1661,3.1625,3.1541,3.1444,3.1372,3.1336,3.136,3.1312,3.1204,3.1072,3.0831,3.047,3.011,2.9665,2.9015,2.8691,2.8558,2.851,2.851,2.851,2.851,2.851,2.851,4.3645,4.3645,4.3645,4.3645,4.3645,4.3645,4.3645,4.3645,4.3645,4.3645,4.3645,4.3645,4.3645,4.3645,4.3645,4.3645,4.3645,4.3645,4.3645,4.3645,4.3645,4.3568,4.3509,4.3509,4.3492,4.3449,4.3432,4.3295,4.3113,4.2945,4.2775,4.2634,4.2571,4.2571,4.2492,4.1591,4.0842,4.0332,3.9376,3.8694,3.8277,3.8202,3.8202,3.8202,3.8202,3.8202,3.8202,3.8202,3.8202,3.8202,3.8202,3.8202,3.8202,3.8202,3.8202,3.8202,3.8202,3.8202,3.8202,3.8202,3.8202,3.8202,3.8202,3.8202,3.8202,3.8066,3.7915,3.761,3.7548,3.738,3.7148,3.7148,3.7134,3.7134,3.7056,3.6978,3.69,3.6243,3.5413,3.4415,3.3492,3.2821,3.2326,3.1837,3.1749,3.1661,3.1661,3.1661,3.1661,3.1661,3.1661,3.1661,3.1661,3.1553,3.1372,3.124,3.1108,3.1036,3.0999,3.0855,3.0699,3.0603,3.041,2.9881,2.9472,2.9196,2.8631,2.8595,2.851,2.851,2.851,2.851,2.851,2.851,2.851,4.3645,4.3645,4.3645,4.3645,4.3645,4.3645,4.3645,4.3645,4.3645,4.3645,4.3645,4.3645,4.3645,4.3645,4.3645,4.3645,4.3645,4.3645,4.3645,4.3645,4.3645,4.3568,4.3585,4.3568,4.3568,4.3568,4.3449,4.3312,4.3174,4.3007,4.2821,4.268,4.2634,4.2634,4.2349,4.1178,4.0485,4.0209,3.8957,3.8277,3.8202,3.8202,3.8202,3.8202,3.8202,3.8202,3.8202,3.8202,3.8202,3.8202,3.8202,3.8202,3.8202,3.8202,3.8202,3.8202,3.8202,3.8202,3.8202,3.8202,3.8202,3.8202,3.8202,3.8202,3.8202,3.8142,3.7991,3.7701,3.7777,3.7701,3.738,3.7303,3.7303,3.7303,3.7134,3.6978,3.6822,3.607,3.5237,3.4992,3.3985,3.2907,3.2661,3.2077,3.1837,3.1661,3.1661,3.1661,3.1661,3.1661,3.1661,3.1661,3.1661,3.1432,3.124,3.1096,3.0891,3.035,3.035,3.0266,3.0098,2.9989,2.9821,2.9316,2.9003,2.8691,2.8522,2.851,2.851,2.851,2.851,2.851,2.851,2.851,2.851,4.3645,4.3645,4.3645,4.3645,4.3645,4.3645,4.3645,4.3645,4.3645,4.3645,4.3645,4.3645,4.3645,4.3645,4.3645,4.3645,4.3645,4.3645,4.3645,4.3645,4.3645,4.3645,4.3645,4.3645,4.3645,4.3585,4.3509,4.3372,4.3312,4.3129,4.3007,4.299,4.2883,4.2821,4.2555,4.1178,4.0485,4.0209,3.8957,3.8202,3.8202,3.8202,3.8202,3.8202,3.8202,3.8202,3.8202,3.8202,3.8202,3.8202,3.8202,3.8202,3.8202,3.8202,3.8202,3.8202,3.8202,3.8202,3.8202,3.8202,3.8202,3.8202,3.8202,3.8202,3.8202,3.8066,3.7929,3.7777,3.7777,3.7625,3.7534,3.7534,3.7534,3.7457,3.7226,3.6822,3.6163,3.5237,3.4472,3.3733,3.2834,3.2251,3.2089,3.1913,3.1661,3.1661,3.1661,3.1661,3.1661,3.1661,3.1661,3.1661,3.1613,3.1324,3.1108,3.0963,3.0567,2.9773,2.9581,2.9605,2.9412,2.922,2.9015,2.8679,2.8751,2.8546,2.8522,2.851,2.851,2.851,2.851,2.851,2.851,2.851,2.851,4.3645,4.3645,4.3645,4.3645,4.3645,4.3645,4.3645,4.3645,4.3645,4.3645,4.3645,4.3645,4.3645,4.3645,4.3645,4.3645,4.3645,4.3645,4.3645,4.3645,4.3645,4.3645,4.3645,4.3645,4.3645,4.3585,4.3492,4.3449,4.3388,4.3312,4.3174,4.3113,4.3007,4.2805,4.2349,4.1245,4.0278,3.9804,3.8752,3.8202,3.8202,3.8202,3.8202,3.8202,3.8202,3.8202,3.8202,3.8202,3.8202,3.8202,3.8202,3.8202,3.8202,3.8202,3.8202,3.8202,3.8202,3.8202,3.8202,3.8202,3.8202,3.8202,3.8202,3.8202,3.8202,3.8066,3.7991,3.7839,3.7839,3.7839,3.7777,3.7701,3.7701,3.761,3.7303,3.69,3.6401,3.5305,3.4306,3.3479,3.2488,3.1661,3.1661,3.1661,3.1661,3.1661,3.1661,3.1661,3.1661,3.1661,3.1661,3.1661,3.1517,3.1228,3.0783,3.053,3.0086,2.9316,2.9076,2.9063,2.8955,2.8739,2.8655,2.8546,2.8522,2.851,2.851,2.851,2.851,2.851,2.851,2.851,2.851,2.851,2.851,4.3645,4.3645,4.3645,4.3645,4.3645,4.3645,4.3645,4.3645,4.3645,4.3645,4.3645,4.3645,4.3645,4.3645,4.3645,4.3645,4.3645,4.3645,4.3645,4.3645,4.3645,4.3645,4.3645,4.3645,4.3645,4.3645,4.3645,4.3568,4.3449,4.3432,4.3235,4.3035,4.2974,4.2506,4.1722,4.0909,4.0139,3.9376,3.862,3.8202,3.8202,3.8202,3.8202,3.8202,3.8202,3.8202,3.8202,3.8202,3.8202,3.8202,3.8202,3.8202,3.8202,3.8202,3.8202,3.8202,3.8202,3.8202,3.8202,3.8202,3.8202,3.8202,3.8202,3.8202,3.8202,3.8202,3.8127,3.7991,3.8142,3.8066,3.8005,3.7929,3.7853,3.7763,3.7534,3.7457,3.7042,3.5709,3.4459,3.421,3.2735,3.1913,3.1661,3.1661,3.1661,3.1661,3.1661,3.1661,3.1661,3.1661,3.1661,3.1661,3.1432,3.112,3.0591,3.0062,2.9484,2.8871,2.8751,2.8703,2.8703,2.8582,2.8546,2.851,2.851,2.851,2.851,2.851,2.851,2.851,2.851,2.851,2.851,2.851,2.851,4.3645,4.3645,4.3645,4.3645,4.3645,4.3645,4.3645,4.3645,4.3645,4.3645,4.3645,4.3645,4.3645,4.3645,4.3645,4.3645,4.3645,4.3645,4.3645,4.3645,4.3645,4.3645,4.3645,4.3645,4.3645,4.3645,4.3645,4.3585,4.3568,4.3492,4.3235,4.2772,4.249,4.1885,4.1127,4.0209,3.9591,3.9175,3.8546,3.8202,3.8202,3.8202,3.8202,3.8202,3.8202,3.8202,3.8202,3.8202,3.8202,3.8202,3.8202,3.8202,3.8202,3.8202,3.8202,3.8202,3.8202,3.8202,3.8202,3.8202,3.8202,3.8202,3.8202,3.8202,3.8202,3.8202,3.8202,3.8142,3.8202,3.8127,3.8142,3.8142,3.8066,3.7976,3.7976,3.7839,3.7289,3.5722,3.4541,3.3972,3.2821,3.1661,3.1661,3.1661,3.1661,3.1661,3.1661,3.1661,3.1661,3.1661,3.1661,3.1661,3.13,3.0939,3.0374,2.9785,2.9148,2.8715,2.8595,2.851,2.851,2.851,2.851,2.851,2.851,2.851,2.851,2.851,2.851,2.851,2.851,2.851,2.851,2.851,2.851,4.3645,4.3645,4.3645,4.3645,4.3645,4.3645,4.3645,4.3645,4.3645,4.3645,4.3645,4.3645,4.3645,4.3645,4.3645,4.3645,4.3645,4.3645,4.3645,4.3645,4.3645,4.3645,4.3645,4.3645,4.3645,4.3645,4.3645,4.3645,4.3645,4.3568,4.3218,4.2648,4.2301,4.1559,4.0569,3.9733,3.9233,3.8752,3.8412,3.8202,3.8202,3.8202,3.8202,3.8202,3.8202,3.8202,3.8202,3.8202,3.8202,3.8202,3.8202,3.8202,3.8202,3.8202,3.8202,3.8202,3.8202,3.8202,3.8202,3.8202,3.8202,3.8202,3.8202,3.8202,3.8202,3.8202,3.8202,3.8202,3.8202,3.8202,3.8202,3.8202,3.8202,3.8127,3.8066,3.7839,3.7443,3.5883,3.4555,3.4069,3.2735,3.2001,3.1661,3.1761,3.1661,3.1661,3.1661,3.1661,3.1661,3.1661,3.1661,3.1553,3.1168,3.0711,3.0146,2.9544,2.8907,2.8631,2.8546,2.851,2.851,2.851,2.851,2.851,2.851,2.851,2.851,2.851,2.851,2.851,2.851,2.851,2.851,2.851,2.851,4.3645,4.3645,4.3645,4.3645,4.3645,4.3645,4.3645,4.3645,4.3645,4.3645,4.3645,4.3645,4.3645,4.3645,4.3645,4.3645,4.3645,4.3645,4.3645,4.3645,4.3645,4.3645,4.3645,4.3645,4.3645,4.3645,4.3645,4.3645,4.3645,4.3568,4.3113,4.2522,4.2173,4.1147,4.0015,3.9463,3.8957,3.8337,3.8277,3.8202,3.8202,3.8202,3.8202,3.8202,3.8202,3.8202,3.8202,3.8202,3.8202,3.8202,3.8202,3.8202,3.8202,3.8202,3.8202,3.8202,3.8202,3.8202,3.8202,3.8202,3.8202,3.8202,3.8202,3.8202,3.8202,3.8202,3.8202,3.8202,3.8202,3.8202,3.8202,3.8202,3.8202,3.8127,3.7915,3.7687,3.7352,3.6122,3.4979,3.4223,3.2907,3.1925,3.1761,3.1761,3.1761,3.1661,3.1661,3.1661,3.1661,3.1661,3.1661,3.1396,3.0987,3.017,2.9544,2.9316,2.8679,2.8582,2.851,2.851,2.851,2.851,2.851,2.851,2.851,2.851,2.851,2.851,2.851,2.851,2.851,2.851,2.851,2.851,2.851,4.3645,4.3645,4.3645,4.3645,4.3645,4.3645,4.3645,4.3645,4.3645,4.3645,4.3645,4.3645,4.3645,4.3645,4.3645,4.3645,4.3645,4.3645,4.3645,4.3645,4.3645,4.3645,4.3645,4.3645,4.3645,4.3645,4.3645,4.3645,4.3645,4.3568,4.2912,4.1901,4.133,4.0385,3.932,3.862,3.8486,3.8277,3.8202,3.8202,3.8202,3.8202,3.8202,3.8202,3.8202,3.8202,3.8202,3.8202,3.8202,3.8202,3.8202,3.8202,3.8202,3.8202,3.8202,3.8202,3.8202,3.8202,3.8202,3.8202,3.8202,3.8202,3.8202,3.8202,3.8202,3.8202,3.8202,3.8202,3.8202,3.8202,3.8202,3.8202,3.8202,3.8202,3.8052,3.7749,3.6936,3.5963,3.4979,3.4389,3.3079,3.1849,3.1849,3.1849,3.1761,3.1761,3.1661,3.1661,3.1661,3.1661,3.1661,3.1276,3.0771,2.9809,2.8859,2.8787,2.8534,2.8546,2.851,2.851,2.851,2.851,2.851,2.851,2.851,2.851,2.851,2.851,2.851,2.851,2.851,2.851,2.851,2.851,2.851,4.3645,4.3645,4.3645,4.3645,4.3645,4.3645,4.3645,4.3645,4.3645,4.3645,4.3645,4.3645,4.3645,4.3645,4.3645,4.3645,4.3645,4.3645,4.3645,4.3645,4.3645,4.3645,4.3645,4.3645,4.3645,4.3645,4.3645,4.3645,4.3568,4.3235,4.2506,4.1575,4.0811,3.9859,3.8987,3.8427,3.8202,3.8202,3.8202,3.8202,3.8202,3.8202,3.8202,3.8202,3.8202,3.8202,3.8202,3.8202,3.8202,3.8202,3.8202,3.8202,3.8202,3.8202,3.8202,3.8202,3.8202,3.8202,3.8202,3.8202,3.8202,3.8202,3.8202,3.8202,3.8202,3.8202,3.8202,3.8202,3.8202,3.8202,3.8202,3.8202,3.8202,3.8217,3.8142,3.7672,3.678,3.5789,3.5047,3.4389,3.3091,3.2201,3.1937,3.1849,3.1849,3.1761,3.1761,3.1661,3.1661,3.1661,3.1661,3.1168,3.0639,2.9725,2.8823,2.8582,2.851,2.851,2.851,2.851,2.851,2.851,2.851,2.851,2.851,2.851,2.851,2.851,2.851,2.851,2.851,2.851,2.851,2.851,2.851,4.3645,4.3645,4.3645,4.3645,4.3645,4.3645,4.3645,4.3645,4.3645,4.3645,4.3645,4.3645,4.3645,4.3645,4.3645,4.3645,4.3645,4.3645,4.3645,4.3645,4.3645,4.3645,4.3645,4.3645,4.3645,4.3645,4.3645,4.3645,4.3509,4.2974,4.2253,4.1444,4.0432,3.955,3.8855,3.8412,3.8277,3.8202,3.8202,3.8202,3.8202,3.8202,3.8202,3.8202,3.8202,3.8202,3.8202,3.8202,3.8202,3.8202,3.8202,3.8202,3.8202,3.8202,3.8202,3.8202,3.8202,3.8202,3.8202,3.8202,3.8202,3.8202,3.8202,3.8202,3.8202,3.8202,3.8202,3.8202,3.8202,3.8202,3.8202,3.8202,3.8202,3.8217,3.8066,3.7672,3.6858,3.5949,3.4979,3.4165,3.3116,3.245,3.2113,3.2025,3.2038,3.1761,3.1661,3.1661,3.1661,3.1661,3.1553,3.1072,3.047,2.9665,2.8979,2.857,2.851,2.851,2.851,2.851,2.851,2.851,2.851,2.851,2.851,2.851,2.851,2.851,2.851,2.851,2.851,2.851,2.851,2.851,2.851,4.3645,4.3645,4.3645,4.3645,4.3645,4.3645,4.3645,4.3645,4.3645,4.3645,4.3645,4.3645,4.3645,4.3645,4.3645,4.3645,4.3645,4.3645,4.3645,4.3645,4.3645,4.3645,4.3645,4.3645,4.3645,4.3645,4.3645,4.3645,4.3449,4.2912,4.219,4.1377,4.0363,3.955,3.8855,3.8412,3.8202,3.8202,3.8202,3.8202,3.8202,3.8202,3.8202,3.8202,3.8202,3.8202,3.8202,3.8202,3.8202,3.8202,3.8202,3.8202,3.8202,3.8202,3.8202,3.8202,3.8202,3.8202,3.8202,3.8202,3.8202,3.8202,3.8202,3.8202,3.8202,3.8202,3.8202,3.8202,3.8202,3.8202,3.8202,3.8202,3.8202,3.8202,3.8142,3.7658,3.6844,3.6042,3.5142,3.4191,3.3227,3.2636,3.2213,3.2213,3.2213,3.1937,3.1661,3.1661,3.1661,3.1661,3.142,3.0951,3.0482,2.9701,2.9088,2.8691,2.851,2.851,2.851,2.851,2.851,2.851,2.851,2.851,2.851,2.851,2.851,2.851,2.851,2.851,2.851,2.851,2.851,2.851,2.851,4.3645,4.3645,4.3645,4.3645,4.3645,4.3645,4.3645,4.3645,4.3645,4.3645,4.3645,4.3645,4.3645,4.3645,4.3645,4.3645,4.3645,4.3645,4.3645,4.3645,4.3645,4.3645,4.3645,4.3645,4.3645,4.3645,4.3645,4.3645,4.3312,4.2585,4.1722,4.1393,4.0085,3.9133,3.8782,3.8412,3.8277,3.8202,3.8202,3.8202,3.8202,3.8202,3.8202,3.8202,3.8202,3.8202,3.8202,3.8202,3.8202,3.8202,3.8202,3.8405,3.8551,3.8492,3.8333,3.8754,3.8391,3.8217,3.8202,3.8202,3.8202,3.8202,3.8202,3.8202,3.8202,3.8202,3.8202,3.8202,3.8202,3.8202,3.8202,3.8202,3.8202,3.8202,3.8202,3.74,3.6766,3.6029,3.5142,3.4191,3.3313,3.281,3.2388,3.23,3.2213,3.1937,3.1749,3.1661,3.1661,3.1661,3.1312,3.0819,3.035,2.9821,2.9256,2.8787,2.8558,2.851,2.851,2.851,2.851,2.851,2.851,2.851,2.851,2.851,2.851,2.851,2.851,2.851,2.851,2.851,2.851,2.851,2.851,4.3645,4.3645,4.3645,4.3645,4.3645,4.3645,4.3645,4.3645,4.3645,4.3645,4.3645,4.3645,4.3645,4.3645,4.3645,4.3645,4.3645,4.3645,4.3645,4.3645,4.3645,4.3645,4.3645,4.3645,4.3645,4.3645,4.3645,4.3509,4.2974,4.2253,4.1591,4.1393,3.9733,3.8987,3.8782,3.8501,3.8202,3.8202,3.8202,3.8202,3.8202,3.8202,3.8202,3.8202,3.8202,3.8202,3.8202,3.8202,3.8202,3.8217,3.8449,3.8739,3.8986,3.8783,3.8725,3.8899,3.8565,3.8217,3.8202,3.8202,3.8202,3.8202,3.8202,3.8202,3.8202,3.8202,3.8202,3.8202,3.8202,3.8202,3.8202,3.8202,3.8202,3.8202,3.8202,3.7309,3.6503,3.5949,3.5467,3.4746,3.3869,3.3068,3.2636,3.2475,3.2201,3.1837,3.1749,3.1749,3.1661,3.1661,3.1336,3.0867,3.0374,2.9905,2.9364,2.8931,2.8691,2.851,2.851,2.851,2.851,2.851,2.851,2.851,2.8558,2.851,2.851,2.851,2.851,2.851,2.851,2.851,2.851,2.8546,2.8575,4.3645,4.3645,4.3645,4.3645,4.3645,4.3645,4.3645,4.3645,4.3645,4.3645,4.3645,4.3645,4.3645,4.3645,4.3645,4.3645,4.3645,4.3645,4.3645,4.3645,4.3645,4.3645,4.3645,4.3645,4.3645,4.3645,4.3568,4.3235,4.2632,4.1981,4.1591,4.126,3.9677,3.9133,3.887,3.8501,3.8277,3.8202,3.8202,3.8202,3.8202,3.8202,3.8202,3.8202,3.8202,3.8202,3.8202,3.8202,3.8304,3.8318,3.8739,3.9102,3.9262,3.9088,3.9102,3.9,3.8565,3.826,3.8202,3.8202,3.8202,3.8202,3.8202,3.8202,3.8202,3.8202,3.8202,3.8202,3.8202,3.8202,3.8202,3.8202,3.8202,3.8202,3.8127,3.763,3.6752,3.6029,3.5548,3.5156,3.4345,3.33,3.281,3.2562,3.23,3.1937,3.1749,3.1661,3.1661,3.1637,3.1396,3.0999,3.0482,2.9977,2.9436,2.9076,2.8787,2.8582,2.851,2.851,2.851,2.851,2.8522,2.8667,2.8727,2.8619,2.8607,2.8847,2.8919,2.8631,2.8558,2.8739,2.8698,2.87,2.8831,4.3645,4.3645,4.3645,4.3645,4.3645,4.3645,4.3645,4.3645,4.3645,4.3645,4.3645,4.3645,4.3645,4.3645,4.3645,4.3645,4.3645,4.3645,4.3645,4.3645,4.3645,4.3645,4.3645,4.3645,4.3645,4.3645,4.3568,4.3235,4.2585,4.1852,4.1276,4.06,3.9565,3.9235,3.8885,3.8664,3.8366,3.8202,3.8202,3.8202,3.8202,3.8202,3.8202,3.8202,3.8202,3.8202,3.8202,3.8202,3.8434,3.8754,3.9059,3.9349,3.9552,3.9392,3.9218,3.9117,3.8565,3.826,3.8202,3.8202,3.8202,3.8202,3.8202,3.8202,3.8202,3.8202,3.8202,3.8202,3.8202,3.8202,3.8202,3.8202,3.8202,3.8202,3.7962,3.763,3.6922,3.6042,3.5237,3.4677,3.4037,3.3142,3.281,3.2649,3.23,3.2038,3.1849,3.1661,3.1661,3.1661,3.1468,3.124,3.0759,3.0362,2.9845,2.9376,2.8907,2.8763,2.8631,2.8703,2.8775,2.8522,2.857,2.8751,2.9039,2.9136,2.9256,2.9424,2.9304,2.8943,2.8979,2.9196,2.9116,2.8834,2.8761,4.3645,4.3645,4.3645,4.3645,4.3645,4.3645,4.3645,4.3645,4.3645,4.3645,4.3645,4.3645,4.3645,4.3645,4.3645,4.3645,4.3645,4.3645,4.3645,4.3645,4.3645,4.3645,4.3645,4.3645,4.3645,4.3645,4.3509,4.3235,4.219,4.1722,4.1008,4.02,3.961,3.9265,3.9119,3.8811,3.8441,3.8277,3.8202,3.8202,3.8202,3.8202,3.8202,3.8202,3.8202,3.8202,3.8202,3.8246,3.8551,3.8913,3.9247,3.9523,3.9654,3.961,3.9262,3.8971,3.8638,3.8231,3.8202,3.8202,3.8202,3.8202,3.8202,3.8202,3.8202,3.8202,3.8202,3.8202,3.8202,3.8202,3.8202,3.8202,3.8202,3.8202,3.772,3.7246,3.6531,3.5722,3.4855,3.405,3.3484,3.3068,3.2896,3.2649,3.23,3.2038,3.1849,3.1661,3.1661,3.1661,3.1637,3.1396,3.1096,3.0735,3.0374,2.9893,2.9484,2.9436,2.9304,2.9208,2.916,2.8931,2.8967,2.9352,2.9605,2.9737,2.9797,2.9821,2.9556,2.9196,2.9129,2.9058,2.8818,2.8464,2.8264,4.3645,4.3645,4.3645,4.3645,4.3645,4.3645,4.3645,4.3645,4.3645,4.3645,4.3645,4.3645,4.3645,4.3645,4.3645,4.3645,4.3645,4.3645,4.3645,4.3645,4.3645,4.3645,4.3645,4.3645,4.3645,4.3645,4.3372,4.2772,4.1656,4.1393,4.0668,3.9864,3.9409,3.9265,3.9352,3.8958,3.8575,3.8263,3.8202,3.8202,3.8202,3.8202,3.8202,3.8202,3.8202,3.8202,3.8202,3.8202,3.8536,3.9073,3.9189,3.9465,3.9784,3.9465,3.9189,3.903,3.8522,3.8246,3.8202,3.8202,3.8202,3.8202,3.8202,3.8202,3.8202,3.8202,3.8202,3.8202,3.8202,3.8202,3.8202,3.8202,3.8202,3.8037,3.7567,3.6844,3.6201,3.5426,3.4454,3.3738,3.3411,3.3081,3.2909,3.2649,3.2201,3.1937,3.1761,3.1661,3.1661,3.1661,3.1661,3.1577,3.1312,3.1011,3.0663,3.035,3.0074,3.0025,2.9893,2.9701,2.9689,2.9653,2.9773,3.0025,3.0134,3.023,3.0182,3.0134,3.0074,2.999,2.8916,2.8603,2.8355,2.8119,2.7955,4.3645,4.3645,4.3645,4.3645,4.3645,4.3645,4.3645,4.3645,4.3645,4.3645,4.3645,4.3645,4.3645,4.3645,4.3645,4.3645,4.3645,4.3645,4.3645,4.3645,4.3645,4.3645,4.3645,4.3645,4.3645,4.3449,4.3174,4.2585,4.1525,4.1194,4.0409,3.961,3.9265,3.909,3.8958,3.8723,3.8441,3.8277,3.8202,3.8202,3.8202,3.8202,3.8202,3.8202,3.8202,3.8202,3.8202,3.8202,3.8551,3.9073,3.9175,3.9276,3.9494,3.9204,3.8986,3.8696,3.8231,3.8217,3.8202,3.8202,3.8202,3.8202,3.8202,3.8202,3.8202,3.8202,3.8202,3.8202,3.8202,3.8202,3.8202,3.8202,3.8202,3.8037,3.7491,3.6674,3.5883,3.5019,3.423,3.3569,3.3081,3.2995,3.2822,3.2723,3.2376,3.2025,3.1849,3.1749,3.1661,3.1661,3.1661,3.1661,3.1504,3.1228,3.0951,3.0735,3.0482,3.035,3.0182,2.9989,3.0037,3.0266,3.0386,3.053,3.0615,3.0687,3.0759,3.0855,3.106,3.0823,2.9542,2.8856,2.898,2.8385,2.748,4.3645,4.3645,4.3645,4.3645,4.3645,4.3645,4.3645,4.3645,4.3645,4.3645,4.3645,4.3645,4.3645,4.3645,4.3645,4.3645,4.3645,4.3645,4.3645,4.3645,4.3645,4.3645,4.3645,4.3645,4.3645,4.3449,4.3113,4.2522,4.1525,4.1075,4.0339,3.961,3.9192,3.9031,3.8797,3.8649,3.8441,3.8277,3.8202,3.8202,3.8202,3.8202,3.8202,3.8202,3.8202,3.8202,3.8202,3.8304,3.8507,3.8928,3.903,3.9,3.9059,3.8913,3.8681,3.8318,3.8202,3.8202,3.8202,3.8202,3.8202,3.8202,3.8202,3.8202,3.8202,3.8202,3.8202,3.8202,3.8202,3.8202,3.8202,3.8202,3.8127,3.7962,3.7169,3.6281,3.5642,3.4786,3.3907,3.3253,3.3081,3.2995,3.281,3.2636,3.2463,3.2201,3.2013,3.1837,3.1749,3.1661,3.1661,3.1661,3.1661,3.1456,3.1312,3.1228,3.0975,3.0699,3.0579,3.0482,3.0687,3.0951,3.0999,3.1036,3.1108,3.1228,3.1456,3.1601,3.1517,3.0891,2.9657,2.9444,2.9681,2.8588,2.7189,4.3645,4.3645,4.3645,4.3645,4.3645,4.3645,4.3645,4.3645,4.3645,4.3645,4.3645,4.3645,4.3645,4.3645,4.3645,4.3645,4.3645,4.3645,4.3645,4.3645,4.3645,4.3645,4.3645,4.3645,4.3645,4.3568,4.3174,4.2317,4.1525,4.094,4.027,3.961,3.9192,3.9031,3.8797,3.8575,3.8441,3.8277,3.8202,3.8202,3.8202,3.8202,3.8202,3.8202,3.8202,3.8202,3.8202,3.8246,3.8536,3.8696,3.8594,3.8739,3.8725,3.8522,3.8318,3.8202,3.8202,3.8202,3.8202,3.8202,3.8202,3.8202,3.8202,3.8202,3.8202,3.8202,3.8202,3.8202,3.8202,3.8202,3.8202,3.8202,3.8127,3.74,3.661,3.5883,3.5318,3.4524,3.3569,3.3081,3.3081,3.3081,3.2995,3.281,3.255,3.2463,3.2189,3.1937,3.1849,3.1661,3.1661,3.1661,3.1661,3.1661,3.1577,3.148,3.142,3.112,3.1264,3.1264,3.1468,3.1456,3.1396,3.1396,3.1553,3.1661,3.1661,3.1661,3.1649,3.0843,2.9942,2.9317,2.9326,2.7945,2.6638,4.3645,4.3645,4.3645,4.3645,4.3645,4.3645,4.3645,4.3645,4.3645,4.3645,4.3645,4.3645,4.3645,4.3645,4.3645,4.3645,4.3645,4.3645,4.3645,4.3645,4.3645,4.3645,4.3645,4.3645,4.3645,4.3235,4.271,4.211,4.1343,4.0737,4.0076,3.9424,3.9192,3.9031,3.8797,3.859,3.8441,3.8277,3.8202,3.8202,3.8202,3.8202,3.8202,3.8202,3.8202,3.8202,3.8202,3.8202,3.8405,3.8362,3.8318,3.8391,3.8362,3.8289,3.8202,3.8202,3.8202,3.8202,3.8202,3.8202,3.8202,3.8202,3.8202,3.8202,3.8202,3.8202,3.8202,3.8202,3.8202,3.8202,3.8127,3.8052,3.781,3.7169,3.6294,3.5413,3.4855,3.4134,3.3253,3.3081,3.3081,3.3081,3.3081,3.2896,3.2723,3.255,3.2363,3.2113,3.1937,3.1761,3.1661,3.1661,3.1661,3.1661,3.1661,3.1589,3.1625,3.1625,3.1661,3.1661,3.1613,3.1589,3.1649,3.1661,3.1661,3.1661,3.1661,3.1661,3.1661,3.1383,3.0586,2.9681,2.868,2.7474,2.6466,4.3645,4.3645,4.3645,4.3645,4.3645,4.3645,4.3645,4.3645,4.3645,4.3645,4.3645,4.3645,4.3645,4.3645,4.3645,4.3645,4.3645,4.3645,4.3645,4.3645,4.3645,4.3645,4.3645,4.3645,4.3645,4.3174,4.2569,4.1981,4.1194,4.0216,3.9424,3.9424,3.925,3.909,3.8943,3.8723,3.8501,3.8352,3.8277,3.8202,3.8202,3.8202,3.8202,3.8202,3.8202,3.8202,3.8202,3.8202,3.8202,3.8202,3.8202,3.8202,3.8217,3.8202,3.8202,3.8202,3.8202,3.8202,3.8202,3.8202,3.8202,3.8202,3.8202,3.8202,3.8202,3.8202,3.8202,3.8202,3.8202,3.8202,3.8052,3.7886,3.7414,3.6936,3.5976,3.4937,3.4301,3.3654,3.3338,3.3167,3.3081,3.3081,3.3081,3.2909,3.2822,3.281,3.2636,3.2376,3.2113,3.1849,3.1761,3.1661,3.1661,3.1661,3.1661,3.1661,3.1661,3.1661,3.1661,3.1661,3.1661,3.1661,3.1661,3.1661,3.1661,3.1661,3.1661,3.1661,3.1661,3.1282,3.0722,2.9601,2.8588,2.7662,2.6744,4.3645,4.3645,4.3645,4.3645,4.3645,4.3645,4.3645,4.3645,4.3645,4.3645,4.3645,4.3645,4.3645,4.3645,4.3645,4.3645,4.3645,4.3645,4.3645,4.3645,4.3645,4.3645,4.3645,4.3585,4.3509,4.3312,4.271,4.1656,4.0992,4.0076,3.9424,3.9424,3.9352,3.9265,3.9031,3.887,3.8723,3.8516,3.8427,3.8352,3.8202,3.8202,3.8202,3.8202,3.8202,3.8202,3.8202,3.8202,3.8202,3.8202,3.8202,3.8202,3.8202,3.8202,3.8202,3.8202,3.8202,3.8202,3.8202,3.8202,3.8202,3.8202,3.8202,3.8202,3.8202,3.7886,3.781,3.7644,3.7567,3.7644,3.7491,3.7078,3.6596,3.6201,3.5494,3.462,3.3894,3.3411,3.3253,3.3081,3.3081,3.3081,3.3081,3.2995,3.2995,3.2995,3.2822,3.2562,3.2376,3.2025,3.1849,3.1761,3.1661,3.1661,3.1661,3.1661,3.1661,3.1661,3.1661,3.1661,3.1661,3.1661,3.1661,3.1661,3.1661,3.1661,3.1661,3.1661,3.1661,3.1383,3.0633,2.9326,2.8308,2.7568,2.6829,4.3645,4.3645,4.3645,4.3645,4.3645,4.3645,4.3645,4.3645,4.3645,4.3645,4.3645,4.3645,4.3645,4.3645,4.3645,4.3645,4.3645,4.3645,4.3645,4.3645,4.3645,4.3645,4.3645,4.3585,4.3312,4.271,4.2061,4.1209,4.0216,3.9625,3.9424,3.9424,3.9424,3.9265,3.9104,3.9031,3.8885,3.8738,3.8649,3.8427,3.8277,3.8202,3.8202,3.8202,3.8202,3.8202,3.8202,3.8202,3.8202,3.8202,3.8202,3.8202,3.8202,3.8202,3.8202,3.8202,3.8202,3.8202,3.8202,3.8202,3.8202,3.8202,3.8202,3.8202,3.8037,3.7491,3.7169,3.7078,3.7,3.7092,3.6922,3.6425,3.5869,3.548,3.5019,3.4204,3.3484,3.3326,3.3167,3.3081,3.3081,3.3081,3.3081,3.3081,3.3081,3.2995,3.281,3.2636,3.2463,3.2288,3.1937,3.1849,3.1761,3.1661,3.1661,3.1661,3.1661,3.1661,3.1661,3.1661,3.1661,3.1661,3.1661,3.1661,3.1661,3.1661,3.1661,3.1661,3.1572,3.1294,3.0543,2.9235,2.8308,2.7558,2.6744,4.3645,4.3645,4.3645,4.3645,4.3645,4.3645,4.3645,4.3645,4.3645,4.3645,4.3645,4.3645,4.3645,4.3645,4.3645,4.3645,4.3645,4.3645,4.3645,4.3645,4.3645,4.3645,4.3645,4.3585,4.3174,4.2522,4.1459,4.0478,3.9553,3.9424,3.9424,3.9424,3.9409,3.9337,3.9177,3.9177,3.9031,3.8929,3.887,3.8649,3.8352,3.8366,3.8277,3.8277,3.8202,3.8202,3.8202,3.8202,3.8202,3.8202,3.8202,3.8202,3.8202,3.8202,3.8202,3.8202,3.8202,3.8202,3.8202,3.8202,3.8202,3.8202,3.8202,3.8202,3.8052,3.7644,3.7491,3.7323,3.7567,3.7644,3.6922,3.636,3.5575,3.5032,3.4301,3.3569,3.3326,3.324,3.3081,3.3081,3.3081,3.3081,3.3081,3.3081,3.3081,3.3081,3.2909,3.281,3.2636,3.2463,3.2113,3.1937,3.1849,3.1761,3.1661,3.1661,3.1661,3.1661,3.1661,3.1661,3.1661,3.1661,3.1661,3.1661,3.1661,3.1661,3.1661,3.1661,3.1294,3.0824,2.9988,2.905,2.8308,2.7568,2.6648,4.3645,4.3645,4.3645,4.3645,4.3645,4.3645,4.3645,4.3645,4.3645,4.3645,4.3645,4.3645,4.3645,4.3645,4.3645,4.3645,4.3645,4.3645,4.3645,4.3645,4.3645,4.3645,4.3645,4.3568,4.3035,4.2126,4.1008,4.0216,3.9424,3.9424,3.9424,3.9424,3.9424,3.9424,3.9337,3.9265,3.9104,3.9104,3.9031,3.8797,3.8664,3.8516,3.8366,3.8277,3.8202,3.8202,3.8202,3.8202,3.8202,3.8202,3.8202,3.8202,3.8202,3.8202,3.8202,3.8202,3.8202,3.8202,3.8202,3.8202,3.8202,3.8202,3.8202,3.8127,3.7962,3.7886,3.7734,3.7734,3.7962,3.7477,3.6688,3.5976,3.5182,3.4551,3.3823,3.3167,3.3167,3.3081,3.3081,3.3081,3.3081,3.3081,3.3081,3.3081,3.3081,3.3081,3.3081,3.2995,3.281,3.2636,3.2376,3.2201,3.2125,3.1937,3.1749,3.1761,3.1761,3.1661,3.1661,3.1661,3.1661,3.1661,3.1661,3.1661,3.1661,3.1661,3.1661,3.1661,3.1104,3.0644,3.0453,2.9886,2.8402,2.7568,2.6552,4.3645,4.3645,4.3645,4.3645,4.3645,4.3645,4.3645,4.3645,4.3645,4.3645,4.3645,4.3645,4.3645,4.3645,4.3645,4.3645,4.3645,4.3645,4.3645,4.3645,4.3645,4.3645,4.3509,4.3295,4.271,4.1722,4.0531,3.9681,3.9424,3.9424,3.9424,3.9424,3.9424,3.9424,3.9424,3.9352,3.9265,3.9265,3.9265,3.9046,3.8723,3.859,3.8441,3.8292,3.8202,3.8202,3.8202,3.8202,3.8202,3.8202,3.8202,3.8202,3.8202,3.8202,3.8202,3.8202,3.8202,3.8202,3.8202,3.8202,3.8202,3.8202,3.8202,3.8202,3.8127,3.8127,3.7962,3.7734,3.7567,3.6596,3.5789,3.5182,3.4481,3.4147,3.3654,3.3326,3.3081,3.3081,3.3081,3.3081,3.3081,3.3081,3.3081,3.3081,3.3081,3.3081,3.3081,3.2995,3.2982,3.281,3.2636,3.2463,3.23,3.2025,3.1749,3.1761,3.1761,3.1761,3.1661,3.1661,3.1661,3.1661,3.1661,3.1661,3.1661,3.1661,3.1661,3.1661,3.1472,3.1104,3.1383,3.0824,2.9143,2.7746,2.6839]},{"header":{"parameterUnit":"m.s-1","parameterCategory":1,"la1":31.0,"la2":29.5877,"lo1":-88.7671,"lo2":-86.6584,"dy":0.0162,"dx":0.0185,"nx":115,"ny":88,"refTime":"2023-04-23T00:00:00:Z","depth":0,"parameterNumber":3,"parameterNumberName":"V-component_of_WINDS"},"data":[0.0,0.0,0.0,0.0,0.0,0.0,0.0,0.0,0.0,0.0,0.0,0.0,0.0,0.0,0.0,0.0,0.0,0.0,0.0,0.0,0.0,0.0,0.0,0.0,0.0,0.0,0.0,0.0,0.0,0.0,0.0,0.0,0.0,0.0,0.0,0.0,0.0,0.0,0.0,0.0,0.0,0.0,0.0,0.0,0.0,0.0,0.0,0.0,0.0,0.0,0.0,0.0,0.0,0.0,0.0,0.0,0.0,0.0,0.0,0.0,0.0,0.0,0.0,0.0,0.0,0.0,0.0,0.0,0.0,0.0,0.0,0.0,0.0,0.0,0.0,0.0,0.0,0.0,0.0,0.0,0.0,0.0,0.0,0.0,0.0,0.0,0.0,0.0,0.0,0.0,0.0,0.0,0.0,0.0,0.0,0.0,0.0,0.0,0.0,0.0,0.0,0.0,0.0,0.0,0.0,0.0,0.0,0.0,0.0,0.0,0.0,0.0,0.0,0.0,0.0,0.0,0.0,0.0,0.0,0.0,0.0,0.0,0.0,0.0,0.0,0.0,0.0,0.0,0.0,0.0,0.0,0.0,0.0,0.0,0.0,0.0,0.0,0.0,0.0,0.0,0.0,0.0,0.0,0.0,0.0,0.0,0.0,0.0,0.0,0.0,0.0,0.0,0.0,0.0,0.0,0.0,0.0,0.0,0.0,0.0,0.0,0.0,0.0,0.0,0.0,0.0,0.0,0.0,0.0,0.0,0.0,0.0,0.0,0.0,0.0,0.0,0.0,0.0,0.0,0.0,0.0,0.0,0.0,0.0,0.0,0.0,0.0,0.0,0.0,0.0,0.0,0.0,0.0,0.0,0.0,0.0,0.0,0.0,0.0,0.0,0.0,0.0,0.0,0.0,0.0,0.0,0.0,0.0,0.0,0.0,0.0,0.0,0.0,0.0,0.0,0.0,0.0,0.0,0.0,0.0,0.0,0.0,0.0,0.0,0.0,0.0,0.0,0.0,0.0,0.0,0.0,0.0,0.0,0.0,0.0,0.0,0.0,0.0,0.0,0.0,0.0,0.0,0.0,0.0,0.0,0.0,0.0,0.0,0.0,0.0,0.0,0.0,0.0,0.0,0.0,0.0,0.0,0.0,0.0,0.0,0.0,0.0,0.0,0.0,0.0,0.0,0.0,0.0,0.0,0.0,0.0,0.0,0.0,0.0,0.0,0.0,0.0,0.0,0.0,0.0,0.0,0.0,0.0,0.0,0.0,0.0,0.0,0.0,0.0,0.0,0.0,0.0,0.0,0.0,0.0,0.0,0.0,0.0,0.0,0.0,0.0,0.0,0.0,0.0,0.0,0.0,0.0,0.0,0.0,0.0,0.0,0.0,0.0,0.0,0.0,0.0,0.0,0.0,0.0,0.0,0.0,0.0,0.0,0.0,0.0,0.0,0.0,0.0,0.0,0.0,0.0,0.0,0.0,0.0,0.0,0.0,0.0,0.0,0.0,0.0,0.0,0.0,0.0,0.0,0.0,0.0,0.0,0.0,0.0,0.0,0.0,0.0,0.0,0.0,0.0,0.0,0.0,0.0,0.0,0.0,0.0,0.0,0.0,0.0,0.0,0.0,0.0,0.0,0.0,0.0,0.0,0.0,0.0,0.0,0.0,0.0,0.0,0.0,0.0,0.0,0.0,0.0,0.0,0.0,0.0,0.0,0.0,0.0,0.0,0.0,0.0,0.0,0.0,0.0,0.0,0.0,0.0,0.0,0.0,0.0,0.0,0.0,0.0,0.0,0.0,0.0,0.0,0.0,0.0,0.0,0.0,0.0,0.0,0.0,0.0,0.0,0.0,0.0,0.0,0.0,0.0,0.0,0.0,0.0,0.0,0.0,0.0,0.0,0.0,0.0,0.0,0.0,0.0,0.0,0.0,0.0,0.0,0.0,0.0,0.0,0.0,0.0,0.0,0.0,0.0,0.0,0.0,0.0,0.0,0.0,0.0,0.0,0.0,0.0,0.0,0.0,0.0,0.0,0.0,0.0,0.0,0.0,0.0,0.0,0.0,0.0,0.0,0.0,0.0,0.0,0.0,0.0,0.0,0.0,0.0,0.0,0.0,0.0,0.0,0.0,0.0,0.0,0.0,0.0,0.0,0.0,0.0,0.0,0.0,0.0,0.0,0.0,0.0,0.0,0.0,0.0,0.0,0.0,0.0,0.0,0.0,0.0,0.0,0.0,0.0,0.0,0.0,0.0,0.0,0.0,0.0,0.0,0.0,0.0,0.0,0.0,0.0,0.0,0.0,0.0,0.0,0.0,0.0,0.0,0.0,0.0,0.0,0.0,0.0,0.0,0.0,0.0,0.0,0.0,0.0,0.0,0.0,0.0,0.0,0.0,0.0,0.0,0.0,0.0,0.0,0.0,0.0,0.0,0.0,0.0,0.0,0.0,0.0,0.0,0.0,0.0,0.0,0.0,0.0,0.0,0.0,0.0,0.0,0.0,0.0,0.0,0.0,0.0,0.0,0.0,0.0,0.0,0.0,0.0,0.0,0.0,0.0,0.0,0.0,0.0,0.0,0.0,0.0,0.0,0.0,0.0,0.0,0.0,0.0,0.0,0.0,0.0,0.0,0.0,0.0,0.0,0.0,0.0,0.0,0.0,0.0,0.0,0.0,0.0,0.0,0.0,0.0,0.0,0.0,0.0,0.0,0.0,0.0,0.0,0.0,0.0,0.0,0.0,0.0,0.0,0.0,0.0,0.0,0.0,0.0,0.0,0.0,0.0,0.0,0.0,0.0,0.0,0.0,0.0,0.0,0.0,0.0,0.0,0.0,0.0,0.0,0.0,0.0,0.0,0.0,0.0,0.0,0.0,0.0,0.0,0.0,0.0,0.0,0.0,0.0,0.0,0.0,0.0,0.0,0.0,0.0,0.0,0.0,0.0,0.0,0.0,0.0,0.0,0.0,0.0,0.0,0.0,0.0,0.0,0.0,0.0,0.0,0.0,0.0,0.0,0.0,0.0,0.0,0.0,0.0,0.0,0.0,0.0,0.0,0.0,0.0,0.0,0.0,0.0,0.0,0.0,0.0,0.0,0.0,0.0,0.0,0.0,0.0,0.0,0.0,0.0,0.0,0.0,0.0,0.0,0.0,0.0,0.0,0.0,0.0,0.0,0.0,0.0,0.0,0.0,0.0,0.0,0.0,0.0,0.0,0.0,0.0,0.0,0.0,0.0,0.0,0.0,0.0,0.0,0.0,0.0,0.0,0.0,0.0,0.0,0.0,0.0,0.0,0.0,0.0,0.0,0.0,0.0,0.0,0.0,0.0,0.0,0.0,0.0,0.0,0.0,0.0,0.0,0.0,0.0,0.0,0.0,0.0,0.0,0.0,0.0,0.0,0.0,0.0,0.0,0.0,0.0,0.0,0.0,0.0,0.0,0.0,0.0,0.0,0.0,0.0,0.0,0.0,0.0,0.0,0.0,0.0,0.0,0.0,0.0,0.0,0.0,0.0,0.0,0.0,0.0,0.0,0.0,0.0,0.0,0.0,0.0,0.0,0.0,0.0,0.0,0.0,0.0,0.0,0.0,0.0,0.0,0.0,0.0,0.0,0.0,0.0,0.0,0.0,0.0,0.0,0.0,0.0,0.0,0.0,0.0,0.0,0.0,0.0,0.0,0.0,0.0,0.0,0.0,0.0,0.0,0.0,0.0,0.0,0.0,0.0,0.0,0.0,0.0,0.0,0.0,0.0,0.0,0.0,0.0,0.0,0.0,0.0,0.0,0.0,0.0,0.0,0.0,0.0,0.0,0.0,0.0,0.0,0.0,0.0,0.0,0.0,0.0,0.0,0.0,0.0,0.0,0.0,0.0,0.0,0.0,0.0,0.0,0.0,0.0,0.0,0.0,0.0,0.0,0.0,0.0,0.0,0.0,0.0,0.0,0.0,0.0,0.0,0.0,0.0,0.0,0.0,0.0,0.0,0.0,0.0,0.0,0.0,0.0,0.0,0.0,0.0,0.0,0.0,0.0,0.0,0.0,0.0,0.0,0.0,0.0,0.0,0.0,0.0,0.0,0.0,0.0,0.0,0.0,0.0,0.0,0.0,0.0,0.0,0.0,0.0,0.0,0.0,0.0,0.0,0.0,0.0,0.0,0.0,0.0,0.0,0.0,0.0,0.0,0.0,0.0,0.0,0.0,0.0,0.0,0.0,0.0,0.0,0.0,0.0,0.0,0.0,0.0,0.0,0.0,0.0,0.0,0.0,0.0,0.0,0.0,-2.0924,0.0,0.0,0.0,0.0,0.0,0.0,0.0,0.0,0.0,0.0,0.0,0.0,0.0,0.0,0.0,0.0,0.0,0.0,0.0,0.0,0.0,0.0,0.0,0.0,0.0,0.0,0.0,0.0,0.0,0.0,0.0,0.0,0.0,0.0,0.0,0.0,0.0,0.0,0.0,0.0,0.0,0.0,0.0,0.0,0.0,0.0,0.0,0.0,0.0,0.0,0.0,0.0,0.0,0.0,0.0,0.0,0.0,0.0,0.0,0.0,0.0,0.0,0.0,0.0,0.0,0.0,0.0,0.0,0.0,0.0,0.0,0.0,0.0,0.0,0.0,0.0,0.0,0.0,0.0,0.0,0.0,0.0,0.0,0.0,0.0,0.0,0.0,0.0,0.0,0.0,0.0,0.0,0.0,0.0,0.0,0.0,0.0,0.0,0.0,0.0,0.0,0.0,0.0,0.0,0.0,0.0,0.0,0.0,0.0,0.0,-2.0699,-2.0699,-2.0699,-2.0775,-2.0901,0.0,0.0,0.0,0.0,0.0,0.0,0.0,0.0,0.0,0.0,0.0,0.0,0.0,0.0,0.0,0.0,0.0,0.0,0.0,0.0,0.0,0.0,0.0,0.0,0.0,0.0,0.0,0.0,0.0,0.0,0.0,0.0,0.0,0.0,0.0,0.0,0.0,0.0,0.0,0.0,0.0,0.0,0.0,0.0,0.0,0.0,0.0,0.0,0.0,0.0,0.0,0.0,0.0,0.0,0.0,0.0,0.0,0.0,0.0,0.0,0.0,0.0,0.0,0.0,0.0,0.0,0.0,0.0,0.0,0.0,0.0,0.0,0.0,0.0,0.0,0.0,0.0,0.0,0.0,0.0,0.0,0.0,0.0,0.0,0.0,0.0,0.0,0.0,0.0,0.0,0.0,0.0,0.0,0.0,0.0,0.0,0.0,0.0,0.0,0.0,0.0,0.0,0.0,0.0,0.0,0.0,0.0,0.0,0.0,0.0,0.0,0.0,-2.0699,-2.0775,-2.0888,0.0,0.0,0.0,0.0,0.0,0.0,0.0,0.0,0.0,0.0,0.0,0.0,0.0,0.0,0.0,0.0,0.0,0.0,0.0,0.0,0.0,0.0,0.0,0.0,0.0,0.0,0.0,0.0,0.0,0.0,0.0,0.0,0.0,0.0,0.0,0.0,0.0,0.0,0.0,0.0,0.0,0.0,0.0,0.0,0.0,0.0,0.0,0.0,0.0,0.0,0.0,0.0,0.0,0.0,0.0,0.0,0.0,0.0,0.0,0.0,0.0,0.0,0.0,0.0,0.0,0.0,0.0,0.0,0.0,0.0,0.0,0.0,0.0,0.0,0.0,0.0,0.0,0.0,0.0,0.0,0.0,0.0,0.0,0.0,0.0,0.0,0.0,0.0,0.0,0.0,0.0,0.0,0.0,0.0,0.0,0.0,0.0,0.0,0.0,0.0,0.0,0.0,0.0,0.0,0.0,0.0,0.0,0.0,0.0,0.0,-2.0699,-2.0699,-2.0699,0.0,-2.0762,0.0,0.0,0.0,0.0,0.0,0.0,0.0,0.0,0.0,0.0,0.0,0.0,0.0,0.0,0.0,0.0,0.0,0.0,0.0,0.0,0.0,0.0,0.0,0.0,0.0,0.0,0.0,0.0,0.0,0.0,0.0,0.0,0.0,0.0,0.0,0.0,0.0,0.0,0.0,0.0,0.0,0.0,0.0,0.0,0.0,0.0,0.0,0.0,0.0,0.0,0.0,0.0,0.0,0.0,0.0,0.0,0.0,0.0,0.0,0.0,0.0,0.0,0.0,0.0,0.0,0.0,0.0,0.0,0.0,0.0,0.0,0.0,0.0,0.0,0.0,0.0,0.0,0.0,0.0,0.0,0.0,0.0,0.0,0.0,0.0,0.0,0.0,0.0,0.0,0.0,0.0,0.0,0.0,0.0,0.0,0.0,0.0,0.0,0.0,0.0,0.0,0.0,0.0,0.0,0.0,0.0,0.0,0.0,0.0,0.0,-2.0699,-2.0699,-2.0699,-2.0699,0.0,0.0,0.0,0.0,0.0,0.0,0.0,0.0,0.0,0.0,0.0,0.0,0.0,0.0,0.0,0.0,0.0,0.0,0.0,0.0,0.0,0.0,0.0,0.0,0.0,0.0,0.0,0.0,0.0,0.0,0.0,0.0,0.0,0.0,0.0,0.0,0.0,0.0,0.0,0.0,0.0,0.0,0.0,0.0,0.0,0.0,0.0,0.0,0.0,0.0,0.0,0.0,0.0,0.0,0.0,0.0,0.0,0.0,0.0,0.0,0.0,0.0,0.0,0.0,0.0,0.0,0.0,0.0,0.0,0.0,0.0,0.0,0.0,0.0,0.0,0.0,0.0,0.0,0.0,0.0,0.0,0.0,0.0,0.0,0.0,0.0,0.0,0.0,0.0,0.0,0.0,0.0,0.0,0.0,0.0,0.0,0.0,0.0,0.0,0.0,0.0,0.0,0.0,0.0,0.0,0.0,0.0,0.0,0.0,0.0,-2.0699,-2.0699,-2.0699,-2.0699,-2.0699,-2.0699,0.0,0.0,0.0,0.0,0.0,0.0,0.0,0.0,0.0,0.0,0.0,0.0,0.0,0.0,0.0,0.0,0.0,0.0,0.0,0.0,0.0,0.0,0.0,0.0,0.0,0.0,0.0,0.0,0.0,0.0,0.0,0.0,0.0,0.0,0.0,0.0,0.0,0.0,0.0,0.0,0.0,0.0,0.0,0.0,0.0,0.0,0.0,0.0,0.0,0.0,0.0,0.0,0.0,0.0,0.0,0.0,0.0,0.0,0.0,0.0,0.0,0.0,0.0,0.0,0.0,0.0,0.0,0.0,0.0,0.0,0.0,0.0,0.0,0.0,0.0,0.0,0.0,0.0,0.0,0.0,0.0,0.0,0.0,0.0,0.0,0.0,0.0,0.0,0.0,0.0,0.0,0.0,0.0,0.0,0.0,0.0,0.0,0.0,0.0,0.0,0.0,0.0,0.0,0.0,0.0,0.0,0.0,0.0,-2.0699,-2.0699,-2.0699,-2.0699,-2.0699,-2.0699,0.0,0.0,0.0,0.0,0.0,0.0,0.0,0.0,0.0,0.0,0.0,0.0,0.0,0.0,0.0,0.0,0.0,0.0,0.0,0.0,0.0,0.0,0.0,0.0,0.0,0.0,0.0,0.0,0.0,0.0,0.0,0.0,0.0,0.0,0.0,0.0,0.0,0.0,0.0,0.0,0.0,0.0,0.0,0.0,0.0,0.0,0.0,0.0,0.0,0.0,0.0,0.0,0.0,0.0,0.0,0.0,0.0,0.0,0.0,0.0,0.0,0.0,0.0,0.0,0.0,0.0,0.0,0.0,0.0,0.0,0.0,0.0,0.0,0.0,0.0,0.0,0.0,0.0,0.0,0.0,0.0,0.0,0.0,0.0,0.0,0.0,0.0,0.0,0.0,0.0,0.0,0.0,0.0,0.0,0.0,0.0,0.0,0.0,0.0,0.0,0.0,0.0,0.0,0.0,0.0,0.0,0.0,0.0,0.0,-2.0699,-2.0612,-2.0511,-2.0398,-2.0511,-2.0549,0.0,0.0,0.0,0.0,0.0,0.0,0.0,0.0,0.0,0.0,0.0,0.0,0.0,0.0,0.0,0.0,0.0,0.0,0.0,0.0,0.0,0.0,0.0,0.0,0.0,0.0,0.0,0.0,0.0,0.0,0.0,0.0,0.0,0.0,0.0,0.0,0.0,0.0,0.0,0.0,0.0,0.0,0.0,0.0,0.0,0.0,0.0,0.0,0.0,0.0,0.0,0.0,0.0,0.0,0.0,0.0,0.0,0.0,0.0,0.0,0.0,0.0,0.0,0.0,0.0,0.0,0.0,0.0,0.0,0.0,0.0,0.0,0.0,0.0,0.0,0.0,0.0,0.0,0.0,0.0,0.0,0.0,0.0,0.0,0.0,0.0,0.0,0.0,0.0,0.0,0.0,0.0,0.0,0.0,0.0,0.0,0.0,0.0,0.0,0.0,0.0,0.0,0.0,0.0,0.0,0.0,0.0,0.0,0.0,-2.0549,0.0,-2.0334,-2.0233,-2.0398,-2.0524,0.0,0.0,0.0,0.0,0.0,0.0,0.0,0.0,0.0,0.0,0.0,0.0,0.0,0.0,0.0,0.0,0.0,0.0,0.0,0.0,0.0,0.0,0.0,0.0,0.0,0.0,0.0,0.0,0.0,0.0,0.0,0.0,0.0,0.0,0.0,0.0,0.0,0.0,0.0,0.0,0.0,0.0,0.0,0.0,0.0,0.0,0.0,0.0,0.0,0.0,0.0,0.0,0.0,0.0,0.0,0.0,0.0,0.0,0.0,0.0,0.0,0.0,0.0,0.0,0.0,0.0,0.0,0.0,0.0,0.0,0.0,0.0,0.0,0.0,0.0,0.0,0.0,0.0,0.0,0.0,0.0,0.0,0.0,0.0,0.0,0.0,0.0,0.0,0.0,0.0,0.0,0.0,0.0,0.0,0.0,0.0,0.0,0.0,0.0,0.0,0.0,0.0,0.0,0.0,0.0,0.0,0.0,0.0,-2.0398,-2.0246,-2.0182,-2.0182,-2.0169,-2.0347,-2.0474,0.0,0.0,0.0,0.0,0.0,0.0,0.0,0.0,0.0,0.0,0.0,0.0,0.0,0.0,0.0,0.0,0.0,0.0,0.0,0.0,0.0,0.0,0.0,0.0,0.0,0.0,0.0,0.0,0.0,0.0,0.0,0.0,0.0,0.0,0.0,0.0,0.0,0.0,0.0,0.0,0.0,0.0,0.0,0.0,0.0,0.0,0.0,0.0,0.0,0.0,0.0,0.0,0.0,0.0,0.0,0.0,0.0,0.0,0.0,0.0,0.0,0.0,0.0,0.0,0.0,0.0,0.0,0.0,0.0,0.0,0.0,0.0,0.0,0.0,0.0,0.0,0.0,0.0,0.0,0.0,0.0,0.0,0.0,0.0,0.0,0.0,0.0,0.0,0.0,0.0,0.0,0.0,0.0,0.0,0.0,0.0,0.0,0.0,0.0,0.0,0.0,0.0,0.0,0.0,0.0,0.0,0.0,0.0,0.0,-1.9914,-1.9914,-1.9862,-1.9811,-1.9926,-2.008,0.0,0.0,0.0,0.0,0.0,0.0,0.0,0.0,0.0,0.0,0.0,0.0,0.0,0.0,0.0,0.0,0.0,0.0,0.0,0.0,0.0,0.0,0.0,0.0,0.0,0.0,0.0,0.0,0.0,0.0,0.0,0.0,0.0,0.0,0.0,0.0,0.0,0.0,0.0,0.0,0.0,0.0,0.0,0.0,0.0,0.0,0.0,0.0,0.0,0.0,0.0,0.0,0.0,0.0,0.0,0.0,0.0,0.0,0.0,0.0,0.0,0.0,0.0,0.0,0.0,0.0,0.0,0.0,0.0,0.0,0.0,0.0,0.0,0.0,0.0,0.0,0.0,0.0,0.0,0.0,0.0,0.0,0.0,0.0,0.0,0.0,0.0,0.0,0.0,0.0,0.0,0.0,0.0,0.0,0.0,0.0,0.0,0.0,0.0,0.0,0.0,0.0,0.0,0.0,0.0,0.0,0.0,0.0,0.0,-1.9932,-1.9986,-2.0084,-2.0184,-2.0192,-2.0273,-2.0411,0.0,0.0,0.0,0.0,0.0,0.0,0.0,0.0,0.0,0.0,0.0,0.0,0.0,0.0,0.0,0.0,0.0,0.0,0.0,0.0,0.0,0.0,0.0,0.0,0.0,0.0,0.0,0.0,0.0,0.0,0.0,0.0,0.0,0.0,0.0,0.0,0.0,0.0,0.0,0.0,0.0,0.0,0.0,0.0,0.0,0.0,0.0,0.0,0.0,0.0,0.0,0.0,0.0,0.0,0.0,0.0,0.0,0.0,0.0,0.0,0.0,0.0,0.0,0.0,0.0,0.0,0.0,0.0,0.0,0.0,0.0,0.0,0.0,0.0,0.0,0.0,0.0,0.0,0.0,0.0,0.0,0.0,0.0,0.0,0.0,0.0,0.0,0.0,0.0,0.0,0.0,0.0,0.0,0.0,0.0,0.0,0.0,0.0,0.0,0.0,0.0,0.0,0.0,0.0,0.0,0.0,0.0,0.0,-2.0287,-2.0416,-2.0747,-2.1153,-2.0931,-2.076,0.0,0.0,0.0,0.0,0.0,0.0,0.0,0.0,0.0,0.0,0.0,0.0,0.0,0.0,0.0,0.0,0.0,0.0,0.0,0.0,0.0,0.0,0.0,0.0,0.0,0.0,0.0,0.0,0.0,0.0,0.0,0.0,0.0,0.0,0.0,0.0,0.0,0.0,0.0,0.0,0.0,0.0,0.0,0.0,0.0,0.0,0.0,0.0,0.0,0.0,0.0,0.0,0.0,0.0,0.0,0.0,0.0,0.0,0.0,0.0,0.0,0.0,0.0,0.0,0.0,0.0,0.0,0.0,0.0,0.0,0.0,0.0,0.0,0.0,0.0,0.0,0.0,0.0,0.0,0.0,0.0,0.0,0.0,0.0,0.0,0.0,0.0,0.0,0.0,0.0,0.0,0.0,0.0,0.0,0.0,0.0,0.0,0.0,0.0,0.0,0.0,0.0,0.0,0.0,0.0,0.0,0.0,0.0,0.0,-2.1464,-2.1544,-2.1453,-2.1202,-2.0748,-2.0592,0.0,0.0,0.0,0.0,0.0,0.0,0.0,0.0,0.0,0.0,0.0,0.0,0.0,0.0,0.0,0.0,0.0,0.0,0.0,0.0,0.0,0.0,0.0,0.0,0.0,0.0,0.0,0.0,0.0,0.0,0.0,0.0,0.0,0.0,0.0,0.0,0.0,0.0,0.0,0.0,0.0,0.0,0.0,0.0,0.0,0.0,0.0,0.0,0.0,0.0,0.0,0.0,0.0,0.0,0.0,0.0,0.0,0.0,0.0,0.0,0.0,0.0,0.0,0.0,0.0,0.0,0.0,0.0,0.0,0.0,0.0,0.0,0.0,0.0,0.0,0.0,0.0,0.0,0.0,0.0,0.0,0.0,0.0,0.0,0.0,0.0,0.0,0.0,0.0,0.0,0.0,0.0,0.0,0.0,0.0,0.0,0.0,0.0,0.0,0.0,0.0,0.0,0.0,0.0,0.0,0.0,0.0,0.0,-2.1051,-2.175,-2.2201,-2.2262,-2.1969,-2.1406,-2.1044,0.0,0.0,0.0,0.0,0.0,0.0,0.0,0.0,0.0,0.0,0.0,0.0,0.0,0.0,0.0,0.0,0.0,0.0,0.0,0.0,0.0,0.0,0.0,0.0,0.0,0.0,0.0,0.0,0.0,0.0,0.0,0.0,0.0,0.0,0.0,0.0,0.0,0.0,0.0,0.0,0.0,0.0,0.0,0.0,0.0,0.0,0.0,0.0,0.0,0.0,0.0,0.0,0.0,0.0,0.0,0.0,0.0,0.0,0.0,0.0,0.0,0.0,0.0,0.0,0.0,0.0,0.0,0.0,0.0,0.0,0.0,0.0,0.0,0.0,0.0,0.0,0.0,0.0,0.0,0.0,0.0,0.0,0.0,0.0,0.0,0.0,0.0,0.0,0.0,0.0,0.0,0.0,0.0,0.0,0.0,0.0,0.0,0.0,0.0,0.0,0.0,0.0,0.0,0.0,0.0,0.0,0.0,0.0,-2.1316,-2.1654,-2.2518,-2.3001,-2.2957,-2.2354,-2.1841,0.0,0.0,0.0,0.0,0.0,0.0,0.0,0.0,0.0,0.0,0.0,0.0,0.0,0.0,0.0,0.0,0.0,0.0,0.0,0.0,0.0,0.0,0.0,0.0,0.0,0.0,0.0,0.0,0.0,0.0,0.0,0.0,0.0,0.0,0.0,0.0,0.0,0.0,0.0,0.0,0.0,0.0,0.0,0.0,0.0,0.0,0.0,0.0,0.0,0.0,0.0,0.0,0.0,0.0,0.0,0.0,0.0,0.0,0.0,0.0,0.0,0.0,0.0,0.0,0.0,0.0,0.0,0.0,0.0,0.0,0.0,0.0,0.0,0.0,0.0,0.0,0.0,0.0,0.0,0.0,0.0,0.0,0.0,0.0,0.0,0.0,0.0,0.0,0.0,0.0,0.0,0.0,0.0,0.0,0.0,0.0,0.0,0.0,0.0,0.0,0.0,0.0,0.0,0.0,0.0,0.0,0.0,0.0,-2.1527,-2.2517,-2.2871,-2.3001,-2.3001,-2.2365,-2.1811,0.0,0.0,0.0,0.0,0.0,0.0,0.0,0.0,0.0,0.0,0.0,0.0,0.0,0.0,0.0,0.0,0.0,0.0,0.0,0.0,0.0,0.0,0.0,0.0,0.0,0.0,0.0,0.0,0.0,0.0,0.0,0.0,0.0,0.0,0.0,0.0,0.0,0.0,0.0,0.0,0.0,0.0,0.0,0.0,0.0,0.0,0.0,0.0,-2.6413,0.0,0.0,0.0,0.0,0.0,0.0,0.0,0.0,0.0,0.0,0.0,0.0,0.0,0.0,0.0,0.0,0.0,0.0,0.0,0.0,0.0,0.0,0.0,0.0,0.0,0.0,0.0,0.0,0.0,0.0,0.0,0.0,0.0,0.0,0.0,0.0,0.0,0.0,0.0,0.0,0.0,0.0,0.0,0.0,0.0,0.0,0.0,0.0,0.0,0.0,0.0,0.0,0.0,0.0,0.0,0.0,0.0,0.0,0.0,-2.1733,-2.27,-2.2834,-2.2927,-2.2968,-2.2607,-2.2205,0.0,0.0,0.0,0.0,0.0,0.0,0.0,0.0,0.0,0.0,0.0,0.0,0.0,0.0,0.0,0.0,0.0,0.0,0.0,0.0,0.0,0.0,0.0,0.0,0.0,0.0,0.0,0.0,0.0,0.0,0.0,0.0,0.0,0.0,0.0,0.0,0.0,0.0,0.0,0.0,0.0,0.0,0.0,0.0,0.0,0.0,0.0,0.0,0.0,0.0,0.0,0.0,0.0,0.0,0.0,0.0,0.0,0.0,0.0,0.0,0.0,0.0,0.0,0.0,0.0,0.0,0.0,0.0,0.0,0.0,0.0,0.0,0.0,0.0,0.0,0.0,0.0,0.0,0.0,0.0,0.0,0.0,0.0,0.0,0.0,0.0,0.0,0.0,0.0,0.0,0.0,0.0,0.0,0.0,0.0,0.0,0.0,0.0,0.0,0.0,0.0,0.0,0.0,0.0,0.0,0.0,0.0,-2.1339,-2.189,-2.2595,-2.2731,-2.2852,-2.299,-2.2895,-2.2648,-2.2395,0.0,0.0,0.0,0.0,0.0,0.0,0.0,0.0,0.0,0.0,0.0,0.0,0.0,0.0,0.0,0.0,0.0,0.0,0.0,0.0,0.0,0.0,0.0,0.0,0.0,0.0,0.0,0.0,0.0,0.0,0.0,0.0,0.0,0.0,0.0,0.0,0.0,0.0,-2.535,-2.5437,0.0,0.0,0.0,0.0,0.0,0.0,0.0,0.0,-2.7128,0.0,0.0,0.0,0.0,0.0,0.0,0.0,0.0,0.0,0.0,0.0,0.0,0.0,0.0,0.0,0.0,0.0,0.0,0.0,0.0,0.0,0.0,0.0,0.0,0.0,0.0,0.0,0.0,0.0,0.0,0.0,0.0,0.0,0.0,0.0,0.0,0.0,0.0,0.0,0.0,0.0,0.0,0.0,0.0,0.0,0.0,0.0,0.0,0.0,0.0,0.0,0.0,0.0,0.0,0.0,0.0,-2.18,-2.1693,-2.2,-2.2922,-2.2957,-2.3001,-2.2979,-2.2906,-2.2865,-2.2951,0.0,0.0,0.0,0.0,0.0,0.0,0.0,0.0,0.0,0.0,0.0,0.0,0.0,0.0,0.0,0.0,0.0,0.0,0.0,0.0,0.0,0.0,0.0,0.0,0.0,0.0,0.0,0.0,0.0,0.0,0.0,0.0,0.0,0.0,0.0,0.0,0.0,0.0,0.0,-2.5729,-2.5449,0.0,0.0,0.0,0.0,0.0,0.0,0.0,0.0,-2.8069,0.0,0.0,0.0,0.0,0.0,0.0,0.0,0.0,0.0,0.0,0.0,0.0,0.0,0.0,0.0,0.0,0.0,0.0,0.0,0.0,0.0,0.0,0.0,0.0,0.0,0.0,0.0,0.0,0.0,0.0,0.0,0.0,0.0,0.0,0.0,0.0,0.0,0.0,0.0,0.0,0.0,0.0,0.0,0.0,0.0,0.0,0.0,0.0,0.0,0.0,0.0,0.0,0.0,0.0,0.0,-2.1989,-2.2252,-2.27,-2.334,-2.3547,-2.3678,-2.3755,-2.3353,-2.3225,0.0,0.0,0.0,0.0,0.0,0.0,0.0,0.0,0.0,0.0,0.0,0.0,0.0,0.0,0.0,0.0,0.0,0.0,0.0,0.0,0.0,0.0,0.0,0.0,0.0,0.0,0.0,0.0,0.0,0.0,0.0,0.0,0.0,0.0,0.0,0.0,0.0,0.0,0.0,0.0,-2.6205,-2.6321,-2.6862,0.0,0.0,0.0,0.0,0.0,0.0,-2.873,-2.9016,0.0,0.0,0.0,0.0,0.0,0.0,0.0,0.0,0.0,0.0,0.0,0.0,0.0,0.0,0.0,0.0,0.0,0.0,0.0,0.0,0.0,0.0,0.0,0.0,0.0,0.0,0.0,0.0,0.0,0.0,0.0,0.0,0.0,0.0,0.0,0.0,0.0,0.0,0.0,0.0,0.0,0.0,0.0,0.0,0.0,0.0,0.0,0.0,0.0,0.0,0.0,0.0,0.0,0.0,0.0,-2.2564,-2.3127,-2.3512,-2.3864,-2.41,-2.4306,-2.4465,-2.3904,-2.3648,0.0,0.0,0.0,0.0,0.0,0.0,0.0,0.0,0.0,0.0,0.0,0.0,0.0,0.0,0.0,0.0,0.0,0.0,0.0,0.0,0.0,0.0,0.0,0.0,0.0,0.0,0.0,0.0,0.0,0.0,0.0,0.0,0.0,0.0,0.0,0.0,0.0,0.0,0.0,0.0,0.0,-2.7176,-2.7773,-2.7379,0.0,0.0,0.0,0.0,-2.8695,-2.9638,0.0,0.0,0.0,0.0,0.0,0.0,0.0,0.0,0.0,0.0,0.0,0.0,0.0,0.0,0.0,0.0,0.0,0.0,0.0,0.0,0.0,0.0,0.0,0.0,0.0,0.0,0.0,0.0,0.0,0.0,0.0,0.0,0.0,0.0,0.0,0.0,0.0,0.0,0.0,0.0,0.0,0.0,0.0,0.0,0.0,0.0,0.0,0.0,0.0,0.0,0.0,0.0,0.0,0.0,0.0,0.0,-2.4295,-2.4118,-2.4183,-2.4377,-2.4454,-2.4486,-2.4476,-2.4194,-2.3925,0.0,0.0,0.0,0.0,0.0,0.0,0.0,0.0,0.0,0.0,0.0,0.0,0.0,0.0,0.0,0.0,0.0,0.0,0.0,0.0,0.0,0.0,0.0,0.0,0.0,0.0,0.0,0.0,0.0,0.0,0.0,0.0,0.0,0.0,0.0,0.0,0.0,0.0,0.0,0.0,0.0,-2.7216,-2.8329,-2.7976,-2.7637,0.0,0.0,-2.9292,-2.9374,-3.0515,0.0,0.0,0.0,0.0,0.0,0.0,0.0,0.0,0.0,0.0,0.0,0.0,0.0,0.0,0.0,0.0,0.0,0.0,0.0,0.0,0.0,0.0,0.0,0.0,0.0,0.0,0.0,0.0,0.0,0.0,0.0,0.0,0.0,0.0,0.0,0.0,0.0,0.0,0.0,0.0,0.0,0.0,0.0,0.0,0.0,0.0,0.0,0.0,0.0,0.0,0.0,0.0,0.0,0.0,0.0,-2.4324,-2.4587,-2.47,-2.481,-2.488,-2.5153,-2.5284,-2.5295,-2.4756,-2.4422,0.0,0.0,0.0,0.0,0.0,0.0,0.0,0.0,0.0,0.0,0.0,0.0,0.0,0.0,0.0,0.0,0.0,0.0,0.0,0.0,0.0,0.0,0.0,0.0,0.0,0.0,0.0,0.0,0.0,0.0,0.0,0.0,0.0,0.0,0.0,0.0,0.0,0.0,0.0,0.0,0.0,0.0,-2.898,-2.8872,0.0,0.0,0.0,-2.9604,-2.9957,0.0,0.0,0.0,0.0,0.0,0.0,0.0,0.0,0.0,0.0,0.0,0.0,0.0,0.0,0.0,0.0,0.0,0.0,0.0,0.0,0.0,0.0,0.0,0.0,0.0,0.0,0.0,0.0,0.0,0.0,0.0,0.0,0.0,0.0,0.0,0.0,0.0,0.0,0.0,0.0,0.0,0.0,0.0,0.0,0.0,0.0,0.0,0.0,0.0,0.0,0.0,0.0,0.0,0.0,0.0,0.0,0.0,-2.4985,-2.5217,-2.536,-2.536,-2.571,-2.5895,-2.5874,-2.5352,0.0,0.0,0.0,0.0,0.0,0.0,0.0,0.0,0.0,0.0,0.0,0.0,0.0,0.0,0.0,0.0,0.0,0.0,0.0,0.0,0.0,0.0,0.0,0.0,0.0,0.0,0.0,-2.3703,0.0,0.0,0.0,0.0,0.0,0.0,0.0,0.0,0.0,0.0,0.0,0.0,0.0,0.0,-2.8872,-2.9604,-2.9699,-2.993,0.0,0.0,-2.9916,-3.054,-3.1251,-3.143,0.0,0.0,0.0,0.0,0.0,0.0,0.0,0.0,0.0,0.0,0.0,0.0,0.0,0.0,0.0,0.0,0.0,0.0,0.0,0.0,0.0,0.0,0.0,0.0,0.0,0.0,0.0,0.0,0.0,0.0,0.0,0.0,0.0,0.0,0.0,0.0,0.0,0.0,0.0,0.0,0.0,0.0,0.0,0.0,0.0,0.0,0.0,0.0,0.0,0.0,0.0,0.0,0.0,0.0,0.0,-2.6048,-2.5909,-2.5841,-2.5852,-2.5884,-2.5895,-2.5895,-2.578,-2.5564,0.0,0.0,0.0,0.0,0.0,0.0,0.0,0.0,0.0,0.0,0.0,0.0,0.0,0.0,0.0,0.0,0.0,0.0,0.0,0.0,0.0,0.0,0.0,0.0,0.0,0.0,0.0,0.0,0.0,0.0,0.0,0.0,0.0,0.0,0.0,0.0,0.0,0.0,0.0,0.0,0.0,-2.9021,-3.0188,-3.0351,-3.0554,0.0,0.0,-3.0554,-3.1137,-3.1721,-3.1734,-3.0581,0.0,0.0,0.0,0.0,0.0,0.0,0.0,0.0,0.0,0.0,0.0,0.0,0.0,0.0,0.0,0.0,0.0,0.0,0.0,0.0,0.0,0.0,0.0,0.0,0.0,0.0,0.0,0.0,0.0,0.0,0.0,0.0,0.0,0.0,0.0,0.0,0.0,0.0,0.0,0.0,0.0,0.0,0.0,0.0,0.0,0.0,0.0,0.0,0.0,0.0,0.0,0.0,0.0,-2.5577,-2.6153,-2.5976,-2.5895,-2.5895,-2.5895,-2.5895,-2.5895,-2.5847,-2.5588,0.0,0.0,0.0,0.0,0.0,0.0,0.0,0.0,0.0,0.0,0.0,0.0,0.0,0.0,0.0,0.0,0.0,0.0,0.0,0.0,0.0,0.0,0.0,0.0,0.0,0.0,0.0,0.0,-2.6999,-2.7298,-2.7271,0.0,0.0,0.0,0.0,0.0,0.0,0.0,0.0,0.0,0.0,-2.9577,-3.0785,-3.0961,0.0,0.0,-3.111,-3.0907,-3.0771,-3.1246,-3.1219,-3.0038,-2.9333,0.0,0.0,0.0,0.0,0.0,0.0,0.0,0.0,0.0,0.0,0.0,0.0,0.0,0.0,0.0,0.0,0.0,0.0,0.0,0.0,0.0,0.0,0.0,0.0,0.0,0.0,0.0,0.0,0.0,0.0,0.0,0.0,0.0,0.0,0.0,0.0,0.0,0.0,0.0,0.0,0.0,0.0,0.0,0.0,0.0,0.0,0.0,0.0,0.0,0.0,0.0,0.0,-2.5702,-2.6153,-2.5965,-2.5895,-2.5895,-2.5895,-2.5895,-2.5895,-2.5815,-2.5643,0.0,0.0,0.0,0.0,0.0,0.0,0.0,0.0,0.0,0.0,0.0,0.0,0.0,0.0,0.0,0.0,0.0,0.0,0.0,0.0,0.0,0.0,0.0,0.0,0.0,0.0,0.0,0.0,-2.761,-2.7727,-2.7105,0.0,0.0,0.0,0.0,0.0,0.0,0.0,0.0,0.0,0.0,-3.0066,-3.0907,-3.1029,-3.1029,-3.1029,-3.088,-3.0663,-3.0446,-3.0771,-3.073,-2.9889,0.0,0.0,0.0,0.0,0.0,0.0,0.0,0.0,0.0,0.0,0.0,0.0,0.0,0.0,0.0,0.0,0.0,0.0,0.0,0.0,0.0,0.0,0.0,0.0,0.0,0.0,0.0,0.0,0.0,0.0,-1.9013,0.0,0.0,0.0,0.0,0.0,0.0,0.0,0.0,0.0,0.0,0.0,0.0,0.0,0.0,0.0,0.0,0.0,0.0,0.0,0.0,0.0,0.0,-2.5627,-2.6153,-2.5976,-2.5895,-2.5895,-2.5895,-2.5895,-2.5895,-2.5884,-2.5975,-2.5995,0.0,0.0,0.0,0.0,0.0,0.0,0.0,0.0,0.0,0.0,0.0,0.0,0.0,0.0,0.0,0.0,0.0,0.0,0.0,0.0,0.0,0.0,0.0,0.0,0.0,0.0,-2.7583,-2.8207,-2.8135,0.0,0.0,0.0,0.0,0.0,0.0,0.0,0.0,0.0,0.0,-2.9618,-3.0391,-3.0432,-3.0432,-3.0473,-3.0473,-2.9944,-2.974,-3.0323,-3.0418,-3.0418,0.0,0.0,0.0,0.0,0.0,0.0,0.0,0.0,0.0,0.0,0.0,0.0,0.0,0.0,0.0,0.0,0.0,0.0,0.0,0.0,0.0,0.0,0.0,0.0,0.0,0.0,0.0,-2.0396,-2.0392,0.0,0.0,0.0,0.0,0.0,0.0,0.0,0.0,0.0,0.0,0.0,-2.2772,-2.2772,0.0,0.0,0.0,0.0,0.0,0.0,0.0,0.0,0.0,0.0,0.0,0.0,-2.5978,-2.62,-2.5965,-2.5895,-2.5895,-2.5895,-2.5895,-2.5895,-2.5895,-2.5915,-2.5971,0.0,0.0,0.0,0.0,0.0,0.0,0.0,0.0,0.0,0.0,0.0,0.0,0.0,0.0,0.0,0.0,0.0,0.0,0.0,0.0,0.0,0.0,0.0,0.0,0.0,-2.7903,0.0,0.0,0.0,0.0,0.0,0.0,0.0,0.0,0.0,0.0,0.0,-2.8302,-2.9075,-2.9523,-2.9944,-3.0351,-3.0405,-3.0554,0.0,0.0,0.0,0.0,0.0,0.0,0.0,0.0,0.0,0.0,0.0,0.0,0.0,0.0,-2.9693,-2.9822,-3.0206,-3.0615,-3.0876,0.0,0.0,0.0,0.0,0.0,0.0,0.0,0.0,0.0,0.0,0.0,0.0,0.0,0.0,-2.1314,0.0,-2.1269,0.0,0.0,0.0,0.0,0.0,0.0,0.0,0.0,-2.334,-2.3635,-2.3755,-2.3755,-2.3755,0.0,-2.3591,-2.3262,0.0,0.0,0.0,0.0,0.0,0.0,0.0,0.0,-2.6077,-2.6112,-2.5965,-2.5895,-2.5895,-2.5895,-2.5895,-2.5895,-2.5895,-2.5909,-2.5987,-2.5587,-2.5373,0.0,0.0,0.0,0.0,0.0,0.0,0.0,0.0,0.0,0.0,0.0,0.0,0.0,0.0,0.0,0.0,0.0,0.0,0.0,0.0,0.0,0.0,0.0,-2.8651,0.0,0.0,0.0,0.0,0.0,0.0,0.0,0.0,0.0,-2.8222,-2.8648,-2.9116,-2.9726,-2.9971,-3.0106,-3.0093,0.0,0.0,0.0,0.0,0.0,0.0,0.0,-2.9944,-3.0337,-3.0418,-3.0677,-3.1332,-3.1116,-3.0843,-3.1143,0.0,0.0,-3.0649,-3.0993,-3.1475,-3.1667,-3.1735,-3.1735,-3.1735,-3.1416,-3.1249,0.0,0.0,0.0,0.0,0.0,0.0,0.0,0.0,-2.2109,-2.1933,0.0,-2.2275,0.0,0.0,0.0,0.0,0.0,-2.3188,0.0,0.0,-2.5175,-2.5633,-2.5185,-2.5164,-2.5185,-2.5164,-2.4738,-2.453,-2.4486,-2.4205,0.0,0.0,0.0,0.0,0.0,0.0,-2.5958,-2.5939,-2.5962,-2.5961,-2.5961,-2.5961,-2.5961,-2.6045,-2.6045,-2.6118,-2.6096,-2.6136,-2.5871,-2.5351,-2.5548,0.0,0.0,0.0,0.0,0.0,0.0,0.0,0.0,0.0,0.0,0.0,0.0,0.0,0.0,0.0,0.0,0.0,0.0,0.0,0.0,-2.8627,0.0,0.0,0.0,0.0,0.0,0.0,0.0,0.0,0.0,0.0,-2.9035,-2.9326,-2.9699,-3.0283,0.0,0.0,0.0,0.0,-2.9984,-2.8953,-2.9197,-2.9564,-2.9645,-3.0106,-3.0866,-3.1992,0.0,0.0,-3.3043,-3.2603,-3.2223,-3.2236,-3.2698,-3.2826,-3.1812,-3.2058,-3.2499,-3.283,-3.2901,-3.2901,-3.2901,-3.2874,-3.2816,-2.1808,0.0,0.0,0.0,0.0,-2.2241,-2.2846,-2.3731,-2.3811,-2.3726,-2.3632,-2.3606,0.0,0.0,0.0,0.0,0.0,0.0,-2.4093,-2.476,-2.5196,-2.5491,-2.5688,-2.5699,-2.5688,-2.5677,-2.5557,-2.5491,-2.5502,-2.5782,-2.5494,-2.4802,0.0,0.0,0.0,0.0,-2.6325,-2.6553,-2.6749,-2.6911,-2.6911,-2.69,-2.7236,-2.7901,-2.8579,-2.8999,-2.8999,-2.8344,-2.8023,-2.8174,-2.7615,0.0,0.0,0.0,0.0,0.0,0.0,0.0,0.0,0.0,0.0,0.0,0.0,0.0,0.0,0.0,0.0,0.0,0.0,0.0,-2.9143,-2.9631,-2.9506,0.0,0.0,0.0,0.0,0.0,0.0,0.0,0.0,0.0,-3.0102,-2.9751,-2.9536,0.0,0.0,-2.9401,-2.9455,-2.9631,-3.0079,-3.1029,-3.0948,0.0,-3.1911,-3.1829,-3.1924,-3.2698,-3.3159,-3.3498,-3.3661,-3.3552,-3.3444,-3.3444,-3.3919,-3.4204,-3.3968,-3.3655,-3.3533,-3.3567,-3.3581,-3.3643,-3.3643,-3.3581,-3.3731,-2.319,-2.3094,-2.2546,-2.2625,-2.3039,-2.321,-2.3769,-2.4681,-2.4775,-2.4684,-2.461,-2.4784,-2.4339,-2.3591,-2.358,0.0,0.0,0.0,-2.4716,-2.5469,-2.5459,-2.5611,-2.5895,-2.6103,-2.619,-2.619,-2.6376,-2.6463,-2.6463,-2.6758,-2.6466,-2.5769,0.0,0.0,-2.6228,-2.6554,-2.6775,-2.6925,-2.7172,-2.7315,-2.7315,-2.7315,-2.7733,-2.8654,-2.9253,-2.9761,-3.0193,-2.9593,-2.9463,-2.9653,-2.8859,-2.8555,0.0,0.0,0.0,0.0,0.0,0.0,0.0,0.0,0.0,0.0,0.0,-2.7176,-2.7176,0.0,0.0,0.0,-2.8967,-2.9455,-2.9808,-2.9754,0.0,0.0,0.0,0.0,0.0,0.0,0.0,-2.8913,-2.9567,-3.0201,-3.0787,-3.0691,-3.0459,-3.0228,-3.0093,-3.0066,-3.0188,0.0,-3.1205,-3.2074,-3.2074,-3.2236,-3.2942,-3.2955,-3.3078,-3.3661,-3.4258,-3.456,-3.4573,-3.456,-3.4651,-3.4692,-3.4936,-3.5181,-3.5181,-3.4882,-3.4573,-3.4651,-3.4651,-3.4651,-3.4651,-3.473,-3.4977,-2.455,-2.4382,-2.3639,-2.3536,-2.3919,-2.4013,-2.4315,-2.4935,-2.5115,-2.5112,-2.4923,-2.5605,-2.5415,-2.4596,-2.4607,0.0,-2.5229,-2.5273,-2.5535,-2.5961,-2.5994,-2.6016,-2.6026,-2.6474,-2.6682,-2.6704,-2.7108,-2.7315,-2.7304,-2.7348,-2.7228,-2.6973,-2.7253,-2.7251,-2.7065,-2.7172,-2.7272,-2.7231,-2.736,-2.7424,-2.7513,-2.7591,-2.8107,-2.9039,-2.9114,-2.9626,-3.0493,-3.0493,-3.0469,-3.0408,-2.9629,-2.9585,-3.0532,0.0,0.0,0.0,0.0,0.0,0.0,0.0,0.0,0.0,0.0,0.0,0.0,0.0,0.0,0.0,-3.0161,0.0,-3.054,-2.955,0.0,0.0,0.0,-2.8529,-2.9192,-2.9251,-2.934,-2.9832,0.0,0.0,-3.1368,-3.1911,-3.2074,-3.1572,-3.1897,-3.2006,-3.1517,-3.2318,-3.2888,-3.2535,-3.2874,-3.3288,-3.3444,-3.3797,-3.4258,-3.476,-3.5357,-3.5628,-3.5642,-3.5642,-3.5683,-3.5642,-3.571,-3.5696,-3.571,-3.5655,-3.571,-3.5655,-3.5669,-3.5683,-3.5628,-3.5869,-3.6108,-2.455,-2.4444,-2.4302,-2.4281,-2.4385,-2.4534,-2.4851,-2.5105,-2.538,-2.5579,-2.5648,-2.5841,-2.5775,-2.5568,-2.5568,-2.5622,-2.5742,-2.6114,-2.6343,-2.6474,-2.6813,-2.6977,-2.6977,-2.7097,-2.7151,-2.7162,-2.7261,-2.7315,-2.7337,-2.7687,-2.7807,-2.7719,-2.8149,-2.7899,-2.6986,-2.7334,-2.7591,-2.7787,-2.8258,-2.8763,-2.9455,-3.0248,-3.1017,-3.1982,-3.2676,-3.3122,-3.3386,-3.2689,-3.25,-3.2726,-3.1863,-3.1329,-3.1318,-3.001,0.0,0.0,0.0,0.0,0.0,0.0,0.0,0.0,0.0,-2.837,-2.8383,0.0,-2.9889,0.0,-3.1151,-3.1748,-3.1762,-3.1504,0.0,0.0,-3.1484,-3.1445,-3.1805,-3.2077,-3.2085,-3.1771,-3.2132,-3.2481,-3.263,-3.2766,-3.2969,-3.324,-3.2657,-3.2277,-3.2589,-3.2861,-3.3349,-3.4027,-3.4285,-3.457,-3.4936,-3.5194,-3.5303,-3.5493,-3.5628,-3.571,-3.571,-3.571,-3.571,-3.571,-3.571,-3.571,-3.571,-3.571,-3.571,-3.571,-3.571,-3.571,-3.571,-3.579,-3.5884,-2.513,-2.514,-2.513,-2.514,-2.5109,-2.4867,-2.4871,-2.5115,-2.5285,-2.5678,-2.6075,-2.6356,-2.6529,-2.6529,-2.6529,-2.6529,-2.6551,-2.6802,-2.6933,-2.6955,-2.7195,-2.7315,-2.7326,-2.7534,-2.7632,-2.7643,-2.7861,-2.7949,-2.7971,-2.8222,-2.8353,-2.8364,-2.8626,-2.8444,-2.7777,-2.7997,-2.8181,-2.8353,-2.8626,-2.929,-3.017,-3.0687,-3.1456,-3.2544,-3.3064,-3.3462,-3.3652,-3.3122,-3.298,-3.3115,-3.225,-3.1876,-3.2006,-3.0586,-2.9889,0.0,0.0,0.0,0.0,0.0,0.0,0.0,0.0,0.0,0.0,0.0,-3.1205,-3.1205,-3.2033,-3.2453,-3.2209,-3.2169,-3.2364,-3.2695,-3.2722,-3.2818,-3.3225,-3.3404,-3.3472,-3.3084,-3.3574,-3.3851,-3.3865,-3.4082,-3.4353,-3.4692,-3.4163,-3.3783,-3.3851,-3.4054,-3.4489,-3.5113,-3.5221,-3.5316,-3.5683,-3.571,-3.571,-3.571,-3.571,-3.571,-3.571,-3.571,-3.571,-3.571,-3.571,-3.571,-3.571,-3.571,-3.571,-3.571,-3.6017,-3.6097,-3.579,-3.6191,-3.6494,-2.5885,-2.5885,-2.5885,-2.5885,-2.5813,-2.5037,-2.4792,-2.5125,-2.5296,-2.5798,-2.6476,-2.7053,-2.7315,-2.7315,-2.7315,-2.7315,-2.7315,-2.7381,-2.7403,-2.7403,-2.7468,-2.7501,-2.7512,-2.7938,-2.8134,-2.8156,-2.8549,-2.885,-2.885,-2.885,-2.885,-2.885,-2.885,-2.885,-2.885,-2.885,-2.885,-2.885,-2.8839,-2.9338,-3.0157,-3.0337,-3.0978,-3.2102,-3.216,-3.2357,-3.2725,-3.2672,-3.2672,-3.2685,-3.1941,-3.1898,-3.2684,-3.0995,-3.0407,0.0,-3.0415,0.0,0.0,0.0,0.0,0.0,0.0,0.0,0.0,-3.1951,-3.2318,-3.2399,-3.2874,-3.2996,-3.2562,-3.2521,-3.2766,-3.3397,-3.3403,-3.3607,-3.4109,-3.4099,-3.4099,-3.4177,-3.4638,-3.495,-3.4936,-3.5411,-3.5696,-3.5642,-3.556,-3.5343,-3.5086,-3.5316,-3.5601,-3.571,-3.571,-3.5669,-3.571,-3.571,-3.571,-3.571,-3.571,-3.571,-3.571,-3.571,-3.571,-3.571,-3.571,-3.571,-3.571,-3.579,-3.5871,-3.571,-3.6322,-3.6624,-3.6177,-3.6638,-3.7197,-2.5885,-2.5885,-2.5885,-2.5885,-2.5865,-2.5689,-2.5805,-2.5983,-2.626,-2.6668,-2.7096,-2.7272,-2.7315,-2.7315,-2.7315,-2.7315,-2.7337,-2.7719,-2.7894,-2.7916,-2.8309,-2.8484,-2.8495,-2.8571,-2.8626,-2.8626,-2.8713,-2.885,-2.885,-2.885,-2.885,-2.885,-2.885,-2.885,-2.885,0.0,0.0,0.0,-2.9371,-2.9873,-3.0355,-3.1124,-3.1754,-3.232,-3.2523,0.0,-3.2685,-3.2672,-3.2672,-3.2685,-3.2527,0.0,0.0,0.0,0.0,0.0,0.0,0.0,0.0,0.0,0.0,0.0,-3.2399,-3.2399,-3.206,-3.2548,-3.3091,-3.3566,-3.3715,-3.3932,-3.4299,-3.4326,-3.457,-3.5126,-3.5208,-3.5262,-3.5371,-3.5357,-3.5384,-3.5384,-3.5479,-3.5547,-3.5533,-3.5655,-3.571,-3.571,-3.571,-3.5683,-3.556,-3.5628,-3.571,-3.571,-3.571,-3.571,-3.571,-3.571,-3.571,-3.571,-3.571,-3.571,-3.571,-3.571,-3.571,-3.579,-3.571,-3.571,-3.571,-3.6256,-3.648,-3.5871,-3.6401,-3.6858,-3.6702,-3.6844,-3.7014,-2.6568,0.0,-2.6558,-2.6568,0.0,-2.6558,-2.6661,-2.6712,-2.6536,-2.6743,-2.7327,-2.7644,-2.7854,-2.7844,-2.8025,-2.8025,-2.8025,-2.8276,-2.8386,-2.8407,-2.8648,-2.885,-2.885,-2.885,-2.885,-2.885,-2.885,-2.885,-2.885,-2.885,-2.885,-2.885,-2.885,-2.885,-2.885,-2.929,-2.9463,-2.9463,-2.9818,-3.0571,-3.1625,-3.2153,-3.2592,-3.3008,-3.3062,0.0,0.0,0.0,0.0,0.0,0.0,0.0,0.0,0.0,0.0,-3.2988,-3.246,-3.2326,-3.2911,-3.3015,-3.3225,-3.3752,-3.4113,-3.4122,-3.3525,-3.4027,-3.4502,-3.4787,-3.4814,-3.4936,-3.5221,-3.5276,-3.5384,-3.5683,-3.571,-3.571,-3.571,-3.571,-3.571,-3.571,-3.571,-3.571,-3.571,-3.571,-3.571,-3.571,-3.571,-3.571,-3.571,-3.571,-3.571,-3.571,-3.571,-3.571,-3.571,-3.571,-3.571,-3.571,-3.571,-3.5857,-3.6243,-3.6336,-3.6387,-3.6766,-3.6908,-3.6752,-3.6466,-3.6922,-3.7218,-3.661,-3.7232,-3.791,-3.7692,-3.7523,-3.7372,-2.7272,-2.7272,-2.7272,-2.7272,-2.7272,-2.7272,-2.7272,-2.7295,0.0,0.0,0.0,-2.814,-2.8395,-2.8488,-2.8664,-2.885,-2.885,-2.885,-2.885,-2.885,-2.885,-2.885,-2.885,-2.885,-2.885,-2.885,-2.885,-2.885,-2.885,-2.885,-2.885,-2.885,-2.885,-2.8839,-2.9106,-2.9818,-3.0351,-3.0699,-3.0699,-3.1364,-3.2744,-3.2928,-3.311,-3.3362,-3.343,-3.3208,-3.2712,-3.2672,-3.2672,-3.2672,-3.2672,-3.2738,-3.2842,-3.2855,-3.2974,-3.3212,-3.3212,-3.3516,-3.4246,-3.4286,-3.4647,-3.5372,-3.5548,-3.5426,-3.5018,-3.5438,-3.571,-3.571,-3.571,-3.571,-3.571,-3.571,-3.571,-3.571,-3.571,-3.571,-3.571,-3.571,-3.571,-3.571,-3.571,-3.571,-3.571,-3.571,-3.571,-3.571,-3.571,-3.571,-3.571,-3.571,-3.571,-3.571,-3.5857,-3.5951,-3.5951,-3.6163,-3.6084,-3.6243,-3.6084,-3.6177,-3.6716,-3.678,-3.7,-3.7587,-3.7875,-3.7587,-3.7309,-3.7738,-3.7922,-3.7153,-3.809,-3.8859,-3.8109,-3.7899,-3.7694,-2.7272,-2.7272,-2.7272,-2.7272,-2.7272,-2.7272,-2.7272,-2.7357,-2.739,-2.7766,-2.8215,-2.8362,-2.8477,-2.8757,-2.8746,-2.885,-2.885,-2.885,-2.885,-2.885,-2.885,-2.885,-2.885,-2.885,-2.885,-2.885,-2.885,-2.885,-2.885,-2.885,-2.885,-2.885,-2.885,-2.9198,-3.0,-3.017,-3.0968,-3.255,-3.2476,-3.2253,-3.194,-3.2733,-3.2998,-3.2629,-3.2776,-3.2777,-3.2712,-3.2698,-3.2672,-3.2672,-3.2672,-3.2934,-3.343,-3.3456,-3.3666,-3.4192,-3.4232,-3.4367,-3.4719,-3.4719,-3.491,-3.5304,-3.5399,-3.544,-3.5521,-3.5669,-3.571,-3.571,-3.571,-3.571,-3.571,-3.571,-3.571,-3.571,-3.571,-3.571,-3.571,-3.571,-3.571,-3.571,-3.571,-3.571,-3.571,-3.571,-3.571,-3.571,-3.579,-3.571,-3.579,-3.571,-3.571,-3.579,-3.6336,-3.6702,-3.6702,-3.7357,-3.751,-3.7738,-3.7141,-3.678,-3.7092,-3.6545,-3.6545,-3.7063,-3.7372,-3.7434,-3.7814,-3.8561,-3.8487,-3.752,-3.7956,-3.8176,-3.7031,-3.7098,-3.7352,-2.7272,-2.7272,-2.7272,-2.7272,-2.7272,-2.7272,-2.7272,-2.7357,-2.7357,-2.7547,-2.7831,-2.8102,-2.829,-2.8373,-2.8664,-2.885,-2.885,-2.885,-2.885,-2.885,-2.885,-2.885,-2.885,-2.885,-2.885,-2.885,-2.885,-2.885,-2.885,-2.885,-2.885,-2.885,-2.885,-2.9024,-2.9452,-3.0441,-3.14,-3.219,-3.2636,-3.2953,-3.3232,-3.3662,-3.3723,-3.3463,-3.3626,-3.3626,-3.3613,-3.3613,-3.3613,-3.3613,-3.3613,-3.3744,-3.4005,-3.4031,-3.4136,-3.4384,-3.4397,-3.4481,-3.4577,-3.4839,-3.5086,-3.5249,-3.548,-3.5629,-3.571,-3.571,-3.571,-3.571,-3.571,-3.571,-3.571,-3.571,-3.571,-3.571,-3.571,-3.571,-3.571,-3.571,-3.571,-3.571,-3.571,-3.571,-3.571,-3.571,-3.571,-3.571,-3.6017,-3.6336,-3.6322,-3.6702,-3.6688,-3.5937,-3.6031,-3.6415,-3.6858,-3.7141,-3.7587,-3.8026,-3.7814,-3.7738,-3.804,-3.751,-3.7587,-3.8502,-3.8502,-3.8339,-3.8708,-3.9391,-3.9178,-3.8228,-3.8402,-3.828,-3.7316,-3.6929,-3.7112,-2.7272,-2.7272,-2.7272,-2.7272,-2.7272,-2.7272,-2.7272,-2.7272,-2.7272,-2.7272,-2.7357,-2.7715,-2.7904,-2.7987,-2.8466,-2.8653,-2.8664,-2.8675,-2.8757,-2.885,-2.885,-2.885,-2.885,-2.885,-2.885,-2.885,-2.885,-2.885,-2.885,-2.885,-2.885,-2.885,-2.885,-2.8932,-2.9117,-3.0789,-3.1665,-3.1928,-3.2809,-3.3674,-3.4397,-3.4397,-3.4397,-3.4397,-3.4397,-3.4397,-3.4397,-3.4397,-3.4397,-3.4397,-3.4397,-3.4397,-3.4397,-3.4397,-3.4397,-3.4397,-3.4397,-3.4397,-3.4397,-3.4743,-3.499,-3.5003,-3.5318,-3.5548,-3.5629,-3.5723,-3.571,-3.571,-3.571,-3.571,-3.571,-3.571,-3.571,-3.571,-3.571,-3.571,-3.571,-3.571,-3.571,-3.571,-3.571,-3.571,-3.571,-3.5871,-3.6017,-3.6097,-3.6559,-3.6858,-3.7,-3.7587,-3.751,-3.6688,-3.6243,-3.6545,-3.7078,-3.7448,-3.7904,-3.8487,-3.8473,-3.8635,-3.8928,-3.8546,-3.862,-3.955,-3.9621,-3.9391,-3.9535,-3.999,-3.9795,-3.8666,-3.8766,-3.8734,-3.741,-3.6812,-3.6907,-2.7272,-2.7272,-2.7272,-2.7272,-2.7272,-2.7272,-2.7272,-2.7272,-2.7272,-2.7272,-2.7357,-2.7547,-2.7726,-2.7998,-2.8092,-2.8196,-2.8395,-2.8488,-2.8581,-2.8757,-2.885,-2.885,-2.885,-2.885,-2.885,-2.885,-2.885,-2.885,-2.885,-2.885,-2.885,-2.885,-2.885,-2.9198,-3.0079,-3.1045,-3.2016,-3.2895,-3.3784,-3.4301,-3.4397,-3.4397,-3.4397,-3.4397,-3.4397,-3.4397,-3.4397,-3.4397,-3.4397,-3.4397,-3.4397,-3.4397,-3.4397,-3.4397,-3.4397,-3.4397,-3.4397,-3.4397,-3.4397,-3.4397,-3.4577,-3.4839,-3.5086,-3.5249,-3.5399,-3.5548,-3.571,-3.571,-3.571,-3.571,-3.571,-3.571,-3.571,-3.571,-3.571,-3.571,-3.571,-3.571,-3.571,-3.571,-3.571,-3.571,-3.579,-3.6256,-3.678,-3.6936,-3.7078,-3.7155,-3.7232,-3.7814,-3.8175,-3.7875,-3.789,-3.789,-3.804,-3.8635,-3.916,-3.9849,-3.9606,-3.9376,-3.9233,-3.8855,-3.8473,-3.9535,-3.9463,-3.955,-4.0076,-4.0424,-3.9963,-3.8815,-3.8422,-3.8154,-3.6984,-3.6553,-3.683,-2.7272,-2.7272,-2.7272,-2.7272,-2.7272,-2.7272,-2.7272,-2.7272,-2.7272,-2.7272,-2.7357,-2.7357,-2.7547,-2.7809,-2.7893,-2.8186,-2.8395,-2.8405,-2.8581,-2.8757,-2.885,-2.885,-2.885,-2.885,-2.885,-2.885,-2.885,-2.885,-2.885,-2.885,-2.885,-2.885,-2.885,-2.9013,-2.9463,-3.0866,-3.1753,-3.2202,-3.37,-3.4397,-3.4397,-3.4397,-3.4397,-3.4397,-3.4397,-3.4397,-3.4397,-3.4397,-3.4397,-3.4397,-3.4397,-3.4397,-3.4397,-3.4397,-3.4397,-3.4397,-3.4397,-3.4397,-3.4397,-3.4577,-3.4673,-3.4756,-3.5003,-3.5154,-3.5399,-3.548,-3.5562,-3.571,-3.571,-3.571,-3.571,-3.571,-3.571,-3.571,-3.571,-3.571,-3.571,-3.571,-3.571,-3.571,-3.571,-3.571,-3.579,-3.6401,-3.7295,-3.804,-3.8279,-3.8279,-3.8339,-3.9015,-3.9015,-3.8399,-3.8473,-3.8767,-3.8855,-3.9,-3.9621,-4.0146,-4.0231,-4.0005,-3.9849,-3.932,-3.9088,-3.9834,-3.9621,-3.9692,-4.0301,-4.004,-3.9601,-3.8646,-3.7677,-3.7107,-3.6569,-3.6492,-3.6645,-2.7272,-2.7272,-2.7272,-2.7272,-2.7272,-2.7272,-2.7272,-2.7272,-2.7272,-2.7272,-2.7272,-2.7272,-2.7357,-2.7536,-2.7715,-2.7914,-2.8207,-2.8207,-2.8301,-2.856,-2.856,-2.8571,-2.8571,-2.8664,-2.8664,-2.8664,-2.8757,-2.885,-2.885,-2.885,-2.885,-2.885,-2.885,-2.8932,-2.929,-3.0866,-3.1753,-3.2103,-3.3602,-3.4397,-3.4397,-3.4397,-3.4397,-3.4397,-3.4397,-3.4397,-3.4397,-3.4397,-3.4397,-3.4397,-3.4397,-3.4397,-3.4397,-3.4397,-3.4397,-3.4397,-3.4397,-3.4397,-3.4397,-3.4577,-3.4673,-3.4673,-3.4908,-3.5086,-3.5236,-3.5399,-3.548,-3.571,-3.571,-3.571,-3.571,-3.571,-3.571,-3.571,-3.571,-3.571,-3.571,-3.571,-3.579,-3.5937,-3.5871,-3.5937,-3.6322,-3.6766,-3.7448,-3.887,-3.9233,-3.9305,-3.9391,-3.9849,-3.999,-3.9,-3.9305,-3.9463,-3.9391,-3.9305,-3.9692,-4.0231,-4.0455,-4.0455,-4.0524,-3.992,-3.9692,-4.0146,-3.9849,-3.9698,-3.9933,-3.9625,-3.9139,-3.8308,-3.7369,-3.6584,-3.6507,-3.6492,-3.6492,-2.7272,-2.7272,-2.7272,-2.7272,-2.7272,-2.7272,-2.7272,-2.7272,-2.7272,-2.7272,-2.7272,-2.7272,-2.7367,-2.7357,-2.7357,-2.7441,-2.7641,-2.7631,-2.7809,-2.8081,-2.8081,-2.8092,-2.8092,-2.8301,-2.8405,-2.8488,-2.8664,-2.8757,-2.8757,-2.8757,-2.885,-2.885,-2.885,-2.9198,-2.9988,-3.0968,-3.2028,-3.2809,-3.3771,-3.4397,-3.4397,-3.4397,-3.4397,-3.4397,-3.4397,-3.4397,-3.4397,-3.4397,-3.4397,-3.4397,-3.4397,-3.4397,-3.4397,-3.4397,-3.4397,-3.4397,-3.4397,-3.4397,-3.4397,-3.441,-3.4397,-3.4481,-3.466,-3.4921,-3.5072,-3.5236,-3.5399,-3.571,-3.571,-3.571,-3.571,-3.571,-3.571,-3.571,-3.571,-3.571,-3.571,-3.571,-3.6097,-3.648,-3.6177,-3.6466,-3.7738,-3.7295,-3.7829,-3.8942,-3.9391,-3.9391,-3.9535,-4.0076,-4.0301,-4.0301,-4.0231,-4.0161,-3.9535,-3.9463,-3.9763,-4.0216,-4.0524,-4.0524,-4.0524,-4.0455,-4.0455,-4.0424,-4.0178,-3.9948,-3.9687,-3.9247,-3.8677,-3.7938,-3.7138,-3.6553,-3.6492,-3.6492,-3.6492,-2.7272,-2.7272,-2.7272,-2.7272,-2.7272,-2.7272,-2.7272,-2.7272,-2.7272,-2.7272,-2.7272,-2.7272,-2.7272,-2.7272,-2.7272,-2.7441,-2.7536,-2.7631,-2.7726,-2.7987,-2.7987,-2.8092,-2.829,-2.8395,-2.8405,-2.8405,-2.8488,-2.8581,-2.8581,-2.8581,-2.8675,-2.8757,-2.885,-2.9024,-2.9463,-3.026,-3.1134,-3.2115,-3.3066,-3.3784,-3.4384,-3.4397,-3.4397,-3.4397,-3.4397,-3.4397,-3.4397,-3.4397,-3.4397,-3.4397,-3.4397,-3.4397,-3.4397,-3.4397,-3.4397,-3.4397,-3.4397,-3.4397,-3.4397,-3.4397,-3.4397,-3.4397,-3.4494,-3.466,-3.4825,-3.5003,-3.5154,-3.5399,-3.548,-3.5575,-3.5723,-3.571,-3.571,-3.571,-3.571,-3.571,-3.571,-3.571,-3.579,-3.6097,-3.6256,-3.7155,-3.8264,-3.8635,-3.8884,-3.9849,-4.0076,-4.0076,-4.0076,-4.037,-4.0524,-4.0524,-4.0455,-4.037,-4.0161,-4.0076,-4.0231,-4.037,-4.0524,-4.0524,-4.0524,-4.0524,-4.0455,-4.0255,-4.0232,-3.9831,-3.9339,-3.8523,-3.7984,-3.7338,-3.6553,-3.6538,-3.6492,-3.6492,-3.6492,-2.7272,-2.7272,-2.7272,-2.7272,-2.7272,-2.7272,-2.7272,-2.7272,-2.7272,-2.7272,-2.7272,-2.7272,-2.7272,-2.7272,-2.7272,-2.7357,-2.7547,-2.7547,-2.7631,-2.7809,-2.7809,-2.7914,-2.8019,-2.8113,-2.8124,-2.8207,-2.8301,-2.8405,-2.8395,-2.8488,-2.8675,-2.8757,-2.885,-2.8932,-2.9382,-3.017,-3.1134,-3.2028,-3.298,-3.3771,-3.4314,-3.4397,-3.4397,-3.4397,-3.4397,-3.4397,-3.4397,-3.4397,-3.4397,-3.4397,-3.4397,-3.4397,-3.4397,-3.4397,-3.4397,-3.4397,-3.4397,-3.4397,-3.4397,-3.4397,-3.4397,-3.4397,-3.4397,-3.4481,-3.4756,-3.4756,-3.5003,-3.5318,-3.5399,-3.548,-3.5629,-3.571,-3.571,-3.571,-3.571,-3.571,-3.571,-3.571,-3.571,-3.5857,-3.6688,-3.7738,-3.8708,-3.9073,-3.9621,-4.0385,-4.0524,-4.0524,-4.0524,-4.0524,-4.0524,-4.0524,-4.0524,-4.0455,-4.0385,-4.0316,-4.037,-4.0439,-4.0524,-4.0524,-4.0447,-4.0462,-4.0355,-4.017,-3.9831,-3.9385,-3.8723,-3.7877,-3.7215,-3.6615,-3.6507,-3.6507,-3.6492,-3.6492,-3.6492,-2.7272,-2.7272,-2.7272,-2.7272,-2.7272,-2.7272,-2.7272,-2.7272,-2.7272,-2.7272,-2.7272,-2.7272,-2.7272,-2.7272,-2.7272,-2.7357,-2.7357,-2.7357,-2.7367,-2.7357,-2.7357,-2.7347,-2.7452,-2.7631,-2.7726,-2.7736,-2.8113,-2.8395,-2.8395,-2.8571,-2.8757,-2.8757,-2.885,-2.9198,-3.0079,-3.0866,-3.194,-3.2722,-3.3602,-3.423,-3.4397,-3.4397,-3.4397,-3.4397,-3.4397,-3.4397,-3.4397,-3.4397,-3.4397,-3.4397,-3.4397,-3.4397,-3.4397,-3.4397,-3.4397,-3.4397,-3.4397,-3.4397,-3.4397,-3.4397,-3.4397,-3.4397,-3.4397,-3.4481,-3.4673,-3.4756,-3.5003,-3.5318,-3.5399,-3.548,-3.5629,-3.571,-3.571,-3.571,-3.571,-3.571,-3.571,-3.571,-3.579,-3.6177,-3.7281,-3.8026,-3.8324,-3.9,-3.9763,-4.0301,-4.0524,-4.0524,-4.0524,-4.0524,-4.0524,-4.0524,-4.0524,-4.0524,-4.0524,-4.0455,-4.0509,-4.0493,-4.0509,-4.0509,-4.0293,-4.0232,-3.9908,-3.9677,-3.92,-3.8739,-3.7923,-3.7153,-3.6923,-3.6492,-3.6492,-3.6492,-3.6492,-3.6492,-3.6492,-2.7272,-2.7272,-2.7272,-2.7272,-2.7272,-2.7272,-2.7272,-2.7272,-2.7272,-2.7272,-2.7272,-2.7272,-2.7272,-2.7272,-2.7272,-2.7272,-2.7272,-2.7272,-2.7272,-2.7272,-2.7272,-2.7357,-2.7452,-2.7536,-2.7631,-2.7631,-2.7726,-2.7914,-2.8196,-2.8384,-2.8581,-2.8757,-2.885,-2.8932,-2.929,-3.017,-3.1146,-3.2016,-3.2993,-3.3687,-3.4314,-3.4397,-3.4397,-3.4397,-3.4397,-3.4397,-3.4397,-3.4397,-3.4397,-3.4397,-3.4397,-3.4397,-3.4397,-3.4397,-3.4397,-3.4397,-3.4397,-3.4397,-3.4397,-3.4397,-3.4397,-3.4397,-3.4397,-3.4397,-3.4494,-3.4673,-3.4921,-3.5154,-3.5318,-3.548,-3.5629,-3.571,-3.571,-3.571,-3.571,-3.571,-3.579,-3.6177,-3.7078,-3.7965,-3.8635,-3.9175,-3.9621,-4.0005,-4.0146,-4.0385,-4.0524,-4.0524,-4.0524,-4.0524,-4.0524,-4.0524,-4.0524,-4.0478,-4.037,-4.0247,-4.0155,-4.0108,-4.0139,-4.0078,-3.9939,-3.977,-3.9462,-3.9,-3.8539,-3.7969,-3.7138,-3.6722,-3.6553,-3.6492,-3.6492,-3.6492,-3.6492,-3.6492,-3.6492,-2.7272,-2.7272,-2.7272,-2.7272,-2.7272,-2.7272,-2.7272,-2.7272,-2.7272,-2.7272,-2.7272,-2.7272,-2.7272,-2.7272,-2.7272,-2.7272,-2.7272,-2.7272,-2.7272,-2.7272,-2.7272,-2.7357,-2.7452,-2.7452,-2.7441,-2.7547,-2.7536,-2.7715,-2.7998,-2.829,-2.8581,-2.8757,-2.885,-2.885,-2.8932,-3.0079,-3.1057,-3.1653,-3.2895,-3.3784,-3.4314,-3.4397,-3.4397,-3.4397,-3.4397,-3.4397,-3.4397,-3.4397,-3.4397,-3.4397,-3.4397,-3.4397,-3.4397,-3.4397,-3.4397,-3.4397,-3.4397,-3.4397,-3.4397,-3.4397,-3.4397,-3.4397,-3.4397,-3.4397,-3.4397,-3.4577,-3.4743,-3.5072,-3.5168,-3.5318,-3.5562,-3.5562,-3.5548,-3.5548,-3.5629,-3.571,-3.579,-3.6401,-3.7155,-3.8055,-3.887,-3.9463,-3.992,-4.0385,-4.0455,-4.0524,-4.0524,-4.0524,-4.0524,-4.0524,-4.0524,-4.0524,-4.0524,-4.0385,-4.0155,-3.9985,-3.9816,-3.9724,-3.9677,-3.9493,-3.9293,-3.917,-3.8923,-3.8246,-3.7723,-3.7369,-3.6645,-3.6599,-3.6492,-3.6492,-3.6492,-3.6492,-3.6492,-3.6492,-3.6492,-2.7272,-2.7272,-2.7272,-2.7272,-2.7272,-2.7272,-2.7272,-2.7272,-2.7272,-2.7272,-2.7272,-2.7272,-2.7272,-2.7272,-2.7272,-2.7272,-2.7272,-2.7272,-2.7272,-2.7272,-2.7272,-2.7357,-2.7367,-2.7357,-2.7357,-2.7357,-2.7547,-2.7726,-2.7904,-2.8196,-2.8477,-2.8653,-2.8757,-2.8757,-2.9106,-3.0609,-3.1488,-3.184,-3.342,-3.4314,-3.4397,-3.4397,-3.4397,-3.4397,-3.4397,-3.4397,-3.4397,-3.4397,-3.4397,-3.4397,-3.4397,-3.4397,-3.4397,-3.4397,-3.4397,-3.4397,-3.4397,-3.4397,-3.4397,-3.4397,-3.4397,-3.4397,-3.4397,-3.4397,-3.4397,-3.4494,-3.466,-3.5003,-3.4921,-3.5003,-3.5318,-3.5399,-3.5399,-3.5399,-3.5548,-3.571,-3.5871,-3.6545,-3.7295,-3.7525,-3.8413,-3.9391,-3.9621,-4.0146,-4.0385,-4.0524,-4.0524,-4.0524,-4.0524,-4.0524,-4.0524,-4.0524,-4.0524,-4.0232,-3.9985,-3.9801,-3.9539,-3.8846,-3.8846,-3.8739,-3.8523,-3.8385,-3.8169,-3.7523,-3.7123,-3.6722,-3.6507,-3.6492,-3.6492,-3.6492,-3.6492,-3.6492,-3.6492,-3.6492,-3.6492,-2.7272,-2.7272,-2.7272,-2.7272,-2.7272,-2.7272,-2.7272,-2.7272,-2.7272,-2.7272,-2.7272,-2.7272,-2.7272,-2.7272,-2.7272,-2.7272,-2.7272,-2.7272,-2.7272,-2.7272,-2.7272,-2.7272,-2.7272,-2.7272,-2.7272,-2.7367,-2.7452,-2.7631,-2.7726,-2.8008,-2.8196,-2.8186,-2.8384,-2.8477,-2.8839,-3.0609,-3.1488,-3.184,-3.342,-3.4397,-3.4397,-3.4397,-3.4397,-3.4397,-3.4397,-3.4397,-3.4397,-3.4397,-3.4397,-3.4397,-3.4397,-3.4397,-3.4397,-3.4397,-3.4397,-3.4397,-3.4397,-3.4397,-3.4397,-3.4397,-3.4397,-3.4397,-3.4397,-3.4397,-3.4397,-3.4577,-3.4756,-3.4921,-3.4921,-3.5086,-3.5154,-3.5154,-3.5154,-3.5236,-3.548,-3.5871,-3.648,-3.7295,-3.7951,-3.8635,-3.9478,-4.0005,-4.0161,-4.0301,-4.0524,-4.0524,-4.0524,-4.0524,-4.0524,-4.0524,-4.0524,-4.0524,-4.0462,-4.0093,-3.9816,-3.9631,-3.9123,-3.8108,-3.7861,-3.7892,-3.7646,-3.74,-3.7138,-3.6707,-3.6799,-3.6538,-3.6507,-3.6492,-3.6492,-3.6492,-3.6492,-3.6492,-3.6492,-3.6492,-3.6492,-2.7272,-2.7272,-2.7272,-2.7272,-2.7272,-2.7272,-2.7272,-2.7272,-2.7272,-2.7272,-2.7272,-2.7272,-2.7272,-2.7272,-2.7272,-2.7272,-2.7272,-2.7272,-2.7272,-2.7272,-2.7272,-2.7272,-2.7272,-2.7272,-2.7272,-2.7367,-2.7441,-2.7547,-2.7641,-2.7726,-2.7904,-2.7998,-2.8196,-2.8466,-2.9106,-3.0519,-3.1753,-3.2376,-3.3687,-3.4397,-3.4397,-3.4397,-3.4397,-3.4397,-3.4397,-3.4397,-3.4397,-3.4397,-3.4397,-3.4397,-3.4397,-3.4397,-3.4397,-3.4397,-3.4397,-3.4397,-3.4397,-3.4397,-3.4397,-3.4397,-3.4397,-3.4397,-3.4397,-3.4397,-3.4397,-3.4577,-3.466,-3.4825,-3.4825,-3.4825,-3.4921,-3.5003,-3.5003,-3.5072,-3.5399,-3.579,-3.6243,-3.7204,-3.8101,-3.8855,-3.9763,-4.0524,-4.0524,-4.0524,-4.0524,-4.0524,-4.0524,-4.0524,-4.0524,-4.0524,-4.0524,-4.0524,-4.0339,-3.997,-3.94,-3.9077,-3.8508,-3.7523,-3.7215,-3.72,-3.7061,-3.6784,-3.6676,-3.6538,-3.6507,-3.6492,-3.6492,-3.6492,-3.6492,-3.6492,-3.6492,-3.6492,-3.6492,-3.6492,-3.6492,-2.7272,-2.7272,-2.7272,-2.7272,-2.7272,-2.7272,-2.7272,-2.7272,-2.7272,-2.7272,-2.7272,-2.7272,-2.7272,-2.7272,-2.7272,-2.7272,-2.7272,-2.7272,-2.7272,-2.7272,-2.7272,-2.7272,-2.7272,-2.7272,-2.7272,-2.7272,-2.7272,-2.7357,-2.7547,-2.7536,-2.7809,-2.8081,-2.8175,-2.8806,-2.9897,-3.0968,-3.1928,-3.2895,-3.3869,-3.4397,-3.4397,-3.4397,-3.4397,-3.4397,-3.4397,-3.4397,-3.4397,-3.4397,-3.4397,-3.4397,-3.4397,-3.4397,-3.4397,-3.4397,-3.4397,-3.4397,-3.4397,-3.4397,-3.4397,-3.4397,-3.4397,-3.4397,-3.4397,-3.4397,-3.4397,-3.4397,-3.4481,-3.466,-3.4494,-3.4577,-3.4673,-3.4756,-3.4839,-3.4908,-3.5154,-3.5236,-3.5615,-3.6816,-3.7936,-3.8161,-3.9535,-4.0301,-4.0524,-4.0524,-4.0524,-4.0524,-4.0524,-4.0524,-4.0524,-4.0524,-4.0524,-4.0524,-4.0232,-3.9831,-3.9154,-3.8477,-3.7738,-3.6953,-3.6799,-3.6738,-3.6738,-3.6584,-3.6538,-3.6492,-3.6492,-3.6492,-3.6492,-3.6492,-3.6492,-3.6492,-3.6492,-3.6492,-3.6492,-3.6492,-3.6492,-2.7272,-2.7272,-2.7272,-2.7272,-2.7272,-2.7272,-2.7272,-2.7272,-2.7272,-2.7272,-2.7272,-2.7272,-2.7272,-2.7272,-2.7272,-2.7272,-2.7272,-2.7272,-2.7272,-2.7272,-2.7272,-2.7272,-2.7272,-2.7272,-2.7272,-2.7272,-2.7272,-2.7367,-2.7357,-2.7441,-2.7809,-2.8445,-2.8795,-2.9601,-3.0711,-3.184,-3.2636,-3.3164,-3.3953,-3.4397,-3.4397,-3.4397,-3.4397,-3.4397,-3.4397,-3.4397,-3.4397,-3.4397,-3.4397,-3.4397,-3.4397,-3.4397,-3.4397,-3.4397,-3.4397,-3.4397,-3.4397,-3.4397,-3.4397,-3.4397,-3.4397,-3.4397,-3.4397,-3.4397,-3.4397,-3.4397,-3.4397,-3.4494,-3.4397,-3.4481,-3.4494,-3.4494,-3.4577,-3.4647,-3.4647,-3.4825,-3.5386,-3.683,-3.7861,-3.8399,-3.9463,-4.0524,-4.0524,-4.0524,-4.0524,-4.0524,-4.0524,-4.0524,-4.0524,-4.0524,-4.0524,-4.0524,-4.0062,-3.9601,-3.8877,-3.8123,-3.7307,-3.6753,-3.6599,-3.6492,-3.6492,-3.6492,-3.6492,-3.6492,-3.6492,-3.6492,-3.6492,-3.6492,-3.6492,-3.6492,-3.6492,-3.6492,-3.6492,-3.6492,-3.6492,-2.7272,-2.7272,-2.7272,-2.7272,-2.7272,-2.7272,-2.7272,-2.7272,-2.7272,-2.7272,-2.7272,-2.7272,-2.7272,-2.7272,-2.7272,-2.7272,-2.7272,-2.7272,-2.7272,-2.7272,-2.7272,-2.7272,-2.7272,-2.7272,-2.7272,-2.7272,-2.7272,-2.7272,-2.7272,-2.7357,-2.7799,-2.8631,-2.9073,-3.0056,-3.1412,-3.2463,-3.3066,-3.3687,-3.4134,-3.4397,-3.4397,-3.4397,-3.4397,-3.4397,-3.4397,-3.4397,-3.4397,-3.4397,-3.4397,-3.4397,-3.4397,-3.4397,-3.4397,-3.4397,-3.4397,-3.4397,-3.4397,-3.4397,-3.4397,-3.4397,-3.4397,-3.4397,-3.4397,-3.4397,-3.4397,-3.4397,-3.4397,-3.4397,-3.4397,-3.4397,-3.4397,-3.4397,-3.4397,-3.4481,-3.4577,-3.4825,-3.5223,-3.6674,-3.7875,-3.8339,-3.9535,-4.0231,-4.0524,-4.047,-4.0524,-4.0524,-4.0524,-4.0524,-4.0524,-4.0524,-4.0524,-4.0385,-3.9893,-3.9308,-3.8585,-3.7815,-3.6999,-3.6645,-3.6538,-3.6492,-3.6492,-3.6492,-3.6492,-3.6492,-3.6492,-3.6492,-3.6492,-3.6492,-3.6492,-3.6492,-3.6492,-3.6492,-3.6492,-3.6492,-3.6492,-2.7272,-2.7272,-2.7272,-2.7272,-2.7272,-2.7272,-2.7272,-2.7272,-2.7272,-2.7272,-2.7272,-2.7272,-2.7272,-2.7272,-2.7272,-2.7272,-2.7272,-2.7272,-2.7272,-2.7272,-2.7272,-2.7272,-2.7272,-2.7272,-2.7272,-2.7272,-2.7272,-2.7272,-2.7272,-2.7357,-2.7998,-2.8817,-2.9257,-3.0586,-3.2115,-3.2821,-3.342,-3.4217,-3.4314,-3.4397,-3.4397,-3.4397,-3.4397,-3.4397,-3.4397,-3.4397,-3.4397,-3.4397,-3.4397,-3.4397,-3.4397,-3.4397,-3.4397,-3.4397,-3.4397,-3.4397,-3.4397,-3.4397,-3.4397,-3.4397,-3.4397,-3.4397,-3.4397,-3.4397,-3.4397,-3.4397,-3.4397,-3.4397,-3.4397,-3.4397,-3.4397,-3.4397,-3.4397,-3.4481,-3.4743,-3.499,-3.5291,-3.6439,-3.751,-3.8175,-3.9391,-4.0316,-4.047,-4.047,-4.047,-4.0524,-4.0524,-4.0524,-4.0524,-4.0524,-4.0524,-4.0185,-3.9662,-3.8616,-3.7815,-3.7523,-3.6707,-3.6584,-3.6492,-3.6492,-3.6492,-3.6492,-3.6492,-3.6492,-3.6492,-3.6492,-3.6492,-3.6492,-3.6492,-3.6492,-3.6492,-3.6492,-3.6492,-3.6492,-3.6492,-2.7272,-2.7272,-2.7272,-2.7272,-2.7272,-2.7272,-2.7272,-2.7272,-2.7272,-2.7272,-2.7272,-2.7272,-2.7272,-2.7272,-2.7272,-2.7272,-2.7272,-2.7272,-2.7272,-2.7272,-2.7272,-2.7272,-2.7272,-2.7272,-2.7272,-2.7272,-2.7272,-2.7272,-2.7272,-2.7357,-2.8269,-2.9612,-3.0305,-3.1553,-3.2993,-3.3869,-3.405,-3.4314,-3.4397,-3.4397,-3.4397,-3.4397,-3.4397,-3.4397,-3.4397,-3.4397,-3.4397,-3.4397,-3.4397,-3.4397,-3.4397,-3.4397,-3.4397,-3.4397,-3.4397,-3.4397,-3.4397,-3.4397,-3.4397,-3.4397,-3.4397,-3.4397,-3.4397,-3.4397,-3.4397,-3.4397,-3.4397,-3.4397,-3.4397,-3.4397,-3.4397,-3.4397,-3.4397,-3.4397,-3.4564,-3.4895,-3.5669,-3.6596,-3.751,-3.8026,-3.9247,-4.0401,-4.0401,-4.0401,-4.047,-4.047,-4.0524,-4.0524,-4.0524,-4.0524,-4.0524,-4.0031,-3.9385,-3.8154,-3.6938,-3.6846,-3.6522,-3.6538,-3.6492,-3.6492,-3.6492,-3.6492,-3.6492,-3.6492,-3.6492,-3.6492,-3.6492,-3.6492,-3.6492,-3.6492,-3.6492,-3.6492,-3.6492,-3.6492,-3.6492,-2.7272,-2.7272,-2.7272,-2.7272,-2.7272,-2.7272,-2.7272,-2.7272,-2.7272,-2.7272,-2.7272,-2.7272,-2.7272,-2.7272,-2.7272,-2.7272,-2.7272,-2.7272,-2.7272,-2.7272,-2.7272,-2.7272,-2.7272,-2.7272,-2.7272,-2.7272,-2.7272,-2.7272,-2.7357,-2.7809,-2.8806,-3.0068,-3.1033,-3.2277,-3.3445,-3.4147,-3.4397,-3.4397,-3.4397,-3.4397,-3.4397,-3.4397,-3.4397,-3.4397,-3.4397,-3.4397,-3.4397,-3.4397,-3.4397,-3.4397,-3.4397,-3.4397,-3.4397,-3.4397,-3.4397,-3.4397,-3.4397,-3.4397,-3.4397,-3.4397,-3.4397,-3.4397,-3.4397,-3.4397,-3.4397,-3.4397,-3.4397,-3.4397,-3.4397,-3.4397,-3.4397,-3.4397,-3.4397,-3.441,-3.4494,-3.4977,-3.583,-3.6738,-3.742,-3.8026,-3.9262,-4.0121,-4.0331,-4.0401,-4.0401,-4.047,-4.047,-4.0524,-4.0524,-4.0524,-4.0524,-3.9893,-3.9216,-3.8046,-3.6892,-3.6584,-3.6492,-3.6492,-3.6492,-3.6492,-3.6492,-3.6492,-3.6492,-3.6492,-3.6492,-3.6492,-3.6492,-3.6492,-3.6492,-3.6492,-3.6492,-3.6492,-3.6492,-3.6492,-3.6492,-2.7272,-2.7272,-2.7272,-2.7272,-2.7272,-2.7272,-2.7272,-2.7272,-2.7272,-2.7272,-2.7272,-2.7272,-2.7272,-2.7272,-2.7272,-2.7272,-2.7272,-2.7272,-2.7272,-2.7272,-2.7272,-2.7272,-2.7272,-2.7272,-2.7272,-2.7272,-2.7272,-2.7272,-2.7452,-2.8175,-2.9176,-3.0249,-3.1589,-3.2747,-3.3628,-3.4134,-3.4314,-3.4397,-3.4397,-3.4397,-3.4397,-3.4397,-3.4397,-3.4397,-3.4397,-3.4397,-3.4397,-3.4397,-3.4397,-3.4397,-3.4397,-3.4397,-3.4397,-3.4397,-3.4397,-3.4397,-3.4397,-3.4397,-3.4397,-3.4397,-3.4397,-3.4397,-3.4397,-3.4397,-3.4397,-3.4397,-3.4397,-3.4397,-3.4397,-3.4397,-3.4397,-3.4397,-3.4397,-3.441,-3.4577,-3.4977,-3.5749,-3.6582,-3.751,-3.8279,-3.9292,-3.9895,-4.0191,-4.0261,-4.0277,-4.047,-4.0524,-4.0524,-4.0524,-4.0524,-4.0385,-3.977,-3.9,-3.7969,-3.7092,-3.6569,-3.6492,-3.6492,-3.6492,-3.6492,-3.6492,-3.6492,-3.6492,-3.6492,-3.6492,-3.6492,-3.6492,-3.6492,-3.6492,-3.6492,-3.6492,-3.6492,-3.6492,-3.6492,-3.6492,-2.7272,-2.7272,-2.7272,-2.7272,-2.7272,-2.7272,-2.7272,-2.7272,-2.7272,-2.7272,-2.7272,-2.7272,-2.7272,-2.7272,-2.7272,-2.7272,-2.7272,-2.7272,-2.7272,-2.7272,-2.7272,-2.7272,-2.7272,-2.7272,-2.7272,-2.7272,-2.7272,-2.7272,-2.7547,-2.8269,-2.9268,-3.0339,-3.1677,-3.2747,-3.3628,-3.4134,-3.4397,-3.4397,-3.4397,-3.4397,-3.4397,-3.4397,-3.4397,-3.4397,-3.4397,-3.4397,-3.4397,-3.4397,-3.4397,-3.4397,-3.4397,-3.4397,-3.4397,-3.4397,-3.4397,-3.4397,-3.4397,-3.4397,-3.4397,-3.4397,-3.4397,-3.4397,-3.4397,-3.4397,-3.4397,-3.4397,-3.4397,-3.4397,-3.4397,-3.4397,-3.4397,-3.4397,-3.4397,-3.4397,-3.4494,-3.4964,-3.5736,-3.6517,-3.7357,-3.8308,-3.925,-3.9768,-4.0137,-4.0137,-4.0137,-4.0331,-4.0524,-4.0524,-4.0524,-4.0524,-4.0216,-3.9616,-3.9016,-3.8015,-3.723,-3.6722,-3.6492,-3.6492,-3.6492,-3.6492,-3.6492,-3.6492,-3.6492,-3.6492,-3.6492,-3.6492,-3.6492,-3.6492,-3.6492,-3.6492,-3.6492,-3.6492,-3.6492,-3.6492,-3.6492,-2.7272,-2.7272,-2.7272,-2.7272,-2.7272,-2.7272,-2.7272,-2.7272,-2.7272,-2.7272,-2.7272,-2.7272,-2.7272,-2.7272,-2.7272,-2.7272,-2.7272,-2.7272,-2.7272,-2.7272,-2.7272,-2.7272,-2.7272,-2.7272,-2.7272,-2.7272,-2.7272,-2.7272,-2.7726,-2.8724,-2.9897,-3.0351,-3.2028,-3.3275,-3.3713,-3.4134,-3.4314,-3.4397,-3.4397,-3.4397,-3.4397,-3.4397,-3.4397,-3.4397,-3.4397,-3.4397,-3.4397,-3.4397,-3.4397,-3.4397,-3.4397,-3.458,-3.4711,-3.4659,-3.4515,-3.4894,-3.4567,-3.441,-3.4397,-3.4397,-3.4397,-3.4397,-3.4397,-3.4397,-3.4397,-3.4397,-3.4397,-3.4397,-3.4397,-3.4397,-3.4397,-3.4397,-3.4397,-3.4397,-3.4397,-3.5182,-3.5816,-3.6503,-3.7357,-3.8308,-3.9177,-3.9625,-3.9996,-4.0066,-4.0137,-4.0331,-4.0455,-4.0524,-4.0524,-4.0524,-4.0078,-3.9447,-3.8846,-3.8169,-3.7446,-3.6846,-3.6553,-3.6492,-3.6492,-3.6492,-3.6492,-3.6492,-3.6492,-3.6492,-3.6492,-3.6492,-3.6492,-3.6492,-3.6492,-3.6492,-3.6492,-3.6492,-3.6492,-3.6492,-3.6492,-2.7272,-2.7272,-2.7272,-2.7272,-2.7272,-2.7272,-2.7272,-2.7272,-2.7272,-2.7272,-2.7272,-2.7272,-2.7272,-2.7272,-2.7272,-2.7272,-2.7272,-2.7272,-2.7272,-2.7272,-2.7272,-2.7272,-2.7272,-2.7272,-2.7272,-2.7272,-2.7272,-2.7452,-2.8175,-2.9176,-3.0079,-3.0351,-3.2463,-3.3445,-3.3713,-3.4063,-3.4397,-3.4397,-3.4397,-3.4397,-3.4397,-3.4397,-3.4397,-3.4397,-3.4397,-3.4397,-3.4397,-3.4397,-3.4397,-3.441,-3.462,-3.4881,-3.5103,-3.492,-3.4868,-3.5025,-3.4724,-3.441,-3.4397,-3.4397,-3.4397,-3.4397,-3.4397,-3.4397,-3.4397,-3.4397,-3.4397,-3.4397,-3.4397,-3.4397,-3.4397,-3.4397,-3.4397,-3.4397,-3.4397,-3.5251,-3.6029,-3.6582,-3.7049,-3.7753,-3.862,-3.9409,-3.9768,-3.9925,-4.0121,-4.0385,-4.0455,-4.0455,-4.0524,-4.0524,-4.0108,-3.9508,-3.8877,-3.8277,-3.7584,-3.703,-3.6722,-3.6492,-3.6492,-3.6492,-3.6492,-3.6492,-3.6492,-3.6492,-3.6553,-3.6492,-3.6492,-3.6492,-3.6492,-3.6492,-3.6492,-3.6492,-3.6492,-3.6538,-3.6739,-2.7272,-2.7272,-2.7272,-2.7272,-2.7272,-2.7272,-2.7272,-2.7272,-2.7272,-2.7272,-2.7272,-2.7272,-2.7272,-2.7272,-2.7272,-2.7272,-2.7272,-2.7272,-2.7272,-2.7272,-2.7272,-2.7272,-2.7272,-2.7272,-2.7272,-2.7272,-2.7357,-2.7809,-2.862,-2.9532,-3.0079,-3.0531,-3.2562,-3.3275,-3.3641,-3.4063,-3.4314,-3.4397,-3.4397,-3.4397,-3.4397,-3.4397,-3.4397,-3.4397,-3.4397,-3.4397,-3.4397,-3.4397,-3.4489,-3.4502,-3.4881,-3.5208,-3.5351,-3.5195,-3.5208,-3.5116,-3.4724,-3.445,-3.4397,-3.4397,-3.4397,-3.4397,-3.4397,-3.4397,-3.4397,-3.4397,-3.4397,-3.4397,-3.4397,-3.4397,-3.4397,-3.4397,-3.4397,-3.4397,-3.4481,-3.4937,-3.5803,-3.6503,-3.6972,-3.7372,-3.8144,-3.9162,-3.9625,-3.9854,-4.0066,-4.0331,-4.0455,-4.0524,-4.0524,-4.0493,-4.0185,-3.9677,-3.9016,-3.8369,-3.7677,-3.7215,-3.6846,-3.6584,-3.6492,-3.6492,-3.6492,-3.6492,-3.6507,-3.6692,-3.6769,-3.663,-3.6615,-3.6923,-3.7015,-3.6645,-3.6553,-3.6784,-3.7063,-3.7234,-3.7404,-2.7272,-2.7272,-2.7272,-2.7272,-2.7272,-2.7272,-2.7272,-2.7272,-2.7272,-2.7272,-2.7272,-2.7272,-2.7272,-2.7272,-2.7272,-2.7272,-2.7272,-2.7272,-2.7272,-2.7272,-2.7272,-2.7272,-2.7272,-2.7272,-2.7272,-2.7272,-2.7357,-2.7809,-2.8724,-2.9715,-3.0543,-3.1436,-3.276,-3.3215,-3.3654,-3.3907,-3.4243,-3.4397,-3.4397,-3.4397,-3.4397,-3.4397,-3.4397,-3.4397,-3.4397,-3.4397,-3.4397,-3.4397,-3.4607,-3.4894,-3.5168,-3.543,-3.5613,-3.5469,-3.5312,-3.5221,-3.4724,-3.445,-3.4397,-3.4397,-3.4397,-3.4397,-3.4397,-3.4397,-3.4397,-3.4397,-3.4397,-3.4397,-3.4397,-3.4397,-3.4397,-3.4397,-3.4397,-3.4397,-3.4634,-3.4937,-3.5655,-3.6517,-3.7295,-3.7843,-3.8472,-3.9322,-3.9625,-3.9783,-4.0066,-4.0277,-4.0401,-4.0524,-4.0524,-4.0524,-4.0278,-3.9985,-3.937,-3.8862,-3.82,-3.76,-3.6999,-3.6815,-3.6645,-3.6738,-3.683,-3.6507,-3.6569,-3.6799,-3.7169,-3.7292,-3.7446,-3.7661,-3.7507,-3.7046,-3.7092,-3.7369,-3.7604,-3.7919,-3.8341,-2.7272,-2.7272,-2.7272,-2.7272,-2.7272,-2.7272,-2.7272,-2.7272,-2.7272,-2.7272,-2.7272,-2.7272,-2.7272,-2.7272,-2.7272,-2.7272,-2.7272,-2.7272,-2.7272,-2.7272,-2.7272,-2.7272,-2.7272,-2.7272,-2.7272,-2.7272,-2.7452,-2.7809,-2.9268,-2.9897,-3.0902,-3.1977,-3.2797,-3.324,-3.3411,-3.3738,-3.416,-3.4314,-3.4397,-3.4397,-3.4397,-3.4397,-3.4397,-3.4397,-3.4397,-3.4397,-3.4397,-3.4437,-3.4711,-3.5038,-3.5338,-3.5587,-3.5704,-3.5665,-3.5351,-3.509,-3.4789,-3.4424,-3.4397,-3.4397,-3.4397,-3.4397,-3.4397,-3.4397,-3.4397,-3.4397,-3.4397,-3.4397,-3.4397,-3.4397,-3.4397,-3.4397,-3.4397,-3.4397,-3.4868,-3.5345,-3.6056,-3.683,-3.7706,-3.8486,-3.9031,-3.9409,-3.9553,-3.9783,-4.0066,-4.0277,-4.0401,-4.0524,-4.0524,-4.0524,-4.0493,-4.0185,-3.9801,-3.9339,-3.8877,-3.8262,-3.7738,-3.7677,-3.7507,-3.7384,-3.7323,-3.703,-3.7076,-3.7569,-3.7892,-3.8061,-3.8138,-3.8169,-3.7831,-3.7369,-3.7791,-3.8387,-3.8592,-3.8998,-3.9624,-2.7272,-2.7272,-2.7272,-2.7272,-2.7272,-2.7272,-2.7272,-2.7272,-2.7272,-2.7272,-2.7272,-2.7272,-2.7272,-2.7272,-2.7272,-2.7272,-2.7272,-2.7272,-2.7272,-2.7272,-2.7272,-2.7272,-2.7272,-2.7272,-2.7272,-2.7272,-2.7631,-2.8445,-2.9988,-3.0351,-3.1347,-3.2426,-3.3068,-3.324,-3.3167,-3.3569,-3.3979,-3.4301,-3.4397,-3.4397,-3.4397,-3.4397,-3.4397,-3.4397,-3.4397,-3.4397,-3.4397,-3.4397,-3.4698,-3.5182,-3.5286,-3.5534,-3.5822,-3.5534,-3.5286,-3.5142,-3.4685,-3.4437,-3.4397,-3.4397,-3.4397,-3.4397,-3.4397,-3.4397,-3.4397,-3.4397,-3.4397,-3.4397,-3.4397,-3.4397,-3.4397,-3.4397,-3.4397,-3.4551,-3.5032,-3.5736,-3.636,-3.7169,-3.8098,-3.8811,-3.9119,-3.9424,-3.9568,-3.9783,-4.0121,-4.0331,-4.047,-4.0524,-4.0524,-4.0524,-4.0524,-4.0416,-4.0078,-3.9693,-3.9247,-3.8846,-3.8492,-3.8431,-3.8262,-3.8015,-3.8,-3.7954,-3.8108,-3.8431,-3.8569,-3.8692,-3.8631,-3.8569,-3.8492,-3.8558,-3.9078,-3.9549,-3.9752,-4.0158,-4.0865,-2.7272,-2.7272,-2.7272,-2.7272,-2.7272,-2.7272,-2.7272,-2.7272,-2.7272,-2.7272,-2.7272,-2.7272,-2.7272,-2.7272,-2.7272,-2.7272,-2.7272,-2.7272,-2.7272,-2.7272,-2.7272,-2.7272,-2.7272,-2.7272,-2.7272,-2.7547,-2.7904,-2.8724,-3.017,-3.0621,-3.1713,-3.2797,-3.324,-3.3386,-3.3569,-3.381,-3.416,-3.4314,-3.4397,-3.4397,-3.4397,-3.4397,-3.4397,-3.4397,-3.4397,-3.4397,-3.4397,-3.4397,-3.4711,-3.5182,-3.5273,-3.5365,-3.5561,-3.5299,-3.5103,-3.4842,-3.4424,-3.441,-3.4397,-3.4397,-3.4397,-3.4397,-3.4397,-3.4397,-3.4397,-3.4397,-3.4397,-3.4397,-3.4397,-3.4397,-3.4397,-3.4397,-3.4397,-3.4551,-3.5114,-3.5883,-3.6674,-3.7553,-3.8352,-3.8958,-3.9424,-3.9496,-3.964,-3.9696,-3.998,-4.0261,-4.0401,-4.0455,-4.0524,-4.0524,-4.0524,-4.0524,-4.0324,-3.997,-3.9616,-3.9339,-3.9016,-3.8846,-3.8631,-3.8385,-3.8446,-3.8739,-3.8893,-3.9077,-3.9185,-3.9277,-3.937,-3.9493,-3.9754,-3.9988,-4.0291,-4.0642,-4.0817,-4.1494,-4.2518,-2.7272,-2.7272,-2.7272,-2.7272,-2.7272,-2.7272,-2.7272,-2.7272,-2.7272,-2.7272,-2.7272,-2.7272,-2.7272,-2.7272,-2.7272,-2.7272,-2.7272,-2.7272,-2.7272,-2.7272,-2.7272,-2.7272,-2.7272,-2.7272,-2.7272,-2.7547,-2.7998,-2.8817,-3.017,-3.0812,-3.1801,-3.2797,-3.3326,-3.3484,-3.3725,-3.3894,-3.416,-3.4314,-3.4397,-3.4397,-3.4397,-3.4397,-3.4397,-3.4397,-3.4397,-3.4397,-3.4397,-3.4489,-3.4672,-3.5051,-3.5142,-3.5116,-3.5168,-3.5038,-3.4829,-3.4502,-3.4397,-3.4397,-3.4397,-3.4397,-3.4397,-3.4397,-3.4397,-3.4397,-3.4397,-3.4397,-3.4397,-3.4397,-3.4397,-3.4397,-3.4397,-3.4397,-3.4481,-3.4634,-3.5426,-3.6281,-3.6908,-3.7796,-3.8664,-3.928,-3.9424,-3.9496,-3.9625,-3.9768,-3.991,-4.0121,-4.0246,-4.0385,-4.0455,-4.0524,-4.0524,-4.0524,-4.0524,-4.0262,-4.0078,-3.997,-3.9647,-3.9293,-3.9139,-3.9016,-3.9277,-3.9616,-3.9677,-3.9724,-3.9816,-3.997,-4.0262,-4.0447,-4.0339,-4.0624,-4.1197,-4.147,-4.1804,-4.2583,-4.3512,-2.7272,-2.7272,-2.7272,-2.7272,-2.7272,-2.7272,-2.7272,-2.7272,-2.7272,-2.7272,-2.7272,-2.7272,-2.7272,-2.7272,-2.7272,-2.7272,-2.7272,-2.7272,-2.7272,-2.7272,-2.7272,-2.7272,-2.7272,-2.7272,-2.7272,-2.7357,-2.7904,-2.9084,-3.017,-3.0991,-3.1889,-3.2797,-3.3326,-3.3484,-3.3725,-3.3979,-3.416,-3.4314,-3.4397,-3.4397,-3.4397,-3.4397,-3.4397,-3.4397,-3.4397,-3.4397,-3.4397,-3.4437,-3.4698,-3.4842,-3.475,-3.4881,-3.4868,-3.4685,-3.4502,-3.4397,-3.4397,-3.4397,-3.4397,-3.4397,-3.4397,-3.4397,-3.4397,-3.4397,-3.4397,-3.4397,-3.4397,-3.4397,-3.4397,-3.4397,-3.4397,-3.4397,-3.4481,-3.5182,-3.5976,-3.6674,-3.7218,-3.8008,-3.8958,-3.9424,-3.9424,-3.9424,-3.9496,-3.9625,-3.9839,-3.991,-4.0106,-4.0331,-4.0401,-4.0524,-4.0524,-4.0524,-4.0524,-4.0524,-4.0416,-4.0293,-4.0216,-3.9831,-4.0016,-4.0016,-4.0278,-4.0262,-4.0185,-4.0185,-4.0385,-4.0524,-4.0524,-4.0524,-4.0509,-4.093,-4.1401,-4.1869,-4.2078,-4.3031,-4.3898,-2.7272,-2.7272,-2.7272,-2.7272,-2.7272,-2.7272,-2.7272,-2.7272,-2.7272,-2.7272,-2.7272,-2.7272,-2.7272,-2.7272,-2.7272,-2.7272,-2.7272,-2.7272,-2.7272,-2.7272,-2.7272,-2.7272,-2.7272,-2.7272,-2.7272,-2.7809,-2.8538,-2.9349,-3.0453,-3.1258,-3.2164,-3.3081,-3.3326,-3.3484,-3.3725,-3.3992,-3.416,-3.4314,-3.4397,-3.4397,-3.4397,-3.4397,-3.4397,-3.4397,-3.4397,-3.4397,-3.4397,-3.4397,-3.458,-3.4541,-3.4502,-3.4567,-3.4541,-3.4476,-3.4397,-3.4397,-3.4397,-3.4397,-3.4397,-3.4397,-3.4397,-3.4397,-3.4397,-3.4397,-3.4397,-3.4397,-3.4397,-3.4397,-3.4397,-3.4397,-3.4481,-3.4564,-3.4799,-3.5426,-3.6294,-3.7155,-3.7706,-3.8412,-3.928,-3.9424,-3.9424,-3.9424,-3.9424,-3.9553,-3.9696,-3.9839,-3.9965,-4.0191,-4.0331,-4.047,-4.0524,-4.0524,-4.0524,-4.0524,-4.0524,-4.0432,-4.0478,-4.0478,-4.0524,-4.0524,-4.0462,-4.0432,-4.0509,-4.0524,-4.0524,-4.0524,-4.0524,-4.0524,-4.0524,-4.0715,-4.1147,-4.1804,-4.252,-4.3333,-4.4047,-2.7272,-2.7272,-2.7272,-2.7272,-2.7272,-2.7272,-2.7272,-2.7272,-2.7272,-2.7272,-2.7272,-2.7272,-2.7272,-2.7272,-2.7272,-2.7272,-2.7272,-2.7272,-2.7272,-2.7272,-2.7272,-2.7272,-2.7272,-2.7272,-2.7272,-2.7904,-2.8713,-2.9532,-3.0621,-3.1989,-3.3081,-3.3081,-3.3227,-3.3386,-3.3556,-3.381,-3.4063,-3.423,-3.4314,-3.4397,-3.4397,-3.4397,-3.4397,-3.4397,-3.4397,-3.4397,-3.4397,-3.4397,-3.4397,-3.4397,-3.4397,-3.4397,-3.441,-3.4397,-3.4397,-3.4397,-3.4397,-3.4397,-3.4397,-3.4397,-3.4397,-3.4397,-3.4397,-3.4397,-3.4397,-3.4397,-3.4397,-3.4397,-3.4397,-3.4397,-3.4564,-3.4716,-3.5196,-3.5669,-3.661,-3.763,-3.8263,-3.8885,-3.9207,-3.9352,-3.9424,-3.9424,-3.9424,-3.9568,-3.964,-3.9625,-3.9768,-3.998,-4.0191,-4.0401,-4.047,-4.0524,-4.0524,-4.0524,-4.0524,-4.0524,-4.0524,-4.0524,-4.0524,-4.0524,-4.0524,-4.0524,-4.0524,-4.0524,-4.0524,-4.0524,-4.0524,-4.0524,-4.0524,-4.0768,-4.1142,-4.1885,-4.2583,-4.3213,-4.3856,-2.7272,-2.7272,-2.7272,-2.7272,-2.7272,-2.7272,-2.7272,-2.7272,-2.7272,-2.7272,-2.7272,-2.7272,-2.7272,-2.7272,-2.7272,-2.7272,-2.7272,-2.7272,-2.7272,-2.7272,-2.7272,-2.7272,-2.7272,-2.7367,-2.7452,-2.7726,-2.8538,-2.9988,-3.089,-3.2164,-3.3081,-3.3081,-3.3167,-3.324,-3.3484,-3.3641,-3.381,-3.4076,-3.4147,-3.423,-3.4397,-3.4397,-3.4397,-3.4397,-3.4397,-3.4397,-3.4397,-3.4397,-3.4397,-3.4397,-3.4397,-3.4397,-3.4397,-3.4397,-3.4397,-3.4397,-3.4397,-3.4397,-3.4397,-3.4397,-3.4397,-3.4397,-3.4397,-3.4397,-3.4397,-3.4716,-3.4799,-3.495,-3.5032,-3.495,-3.5114,-3.5494,-3.5963,-3.636,-3.7078,-3.7947,-3.8649,-3.9119,-3.928,-3.9424,-3.9424,-3.9424,-3.9424,-3.9496,-3.9496,-3.9496,-3.964,-3.9854,-3.998,-4.0261,-4.0401,-4.047,-4.0524,-4.0524,-4.0524,-4.0524,-4.0524,-4.0524,-4.0524,-4.0524,-4.0524,-4.0524,-4.0524,-4.0524,-4.0524,-4.0524,-4.0524,-4.0524,-4.0524,-4.0715,-4.1209,-4.2078,-4.2769,-4.3273,-4.3781,-2.7272,-2.7272,-2.7272,-2.7272,-2.7272,-2.7272,-2.7272,-2.7272,-2.7272,-2.7272,-2.7272,-2.7272,-2.7272,-2.7272,-2.7272,-2.7272,-2.7272,-2.7272,-2.7272,-2.7272,-2.7272,-2.7272,-2.7272,-2.7367,-2.7726,-2.8538,-2.9452,-3.0633,-3.1989,-3.281,-3.3081,-3.3081,-3.3081,-3.324,-3.3398,-3.3484,-3.3654,-3.3823,-3.3894,-3.4147,-3.4314,-3.4397,-3.4397,-3.4397,-3.4397,-3.4397,-3.4397,-3.4397,-3.4397,-3.4397,-3.4397,-3.4397,-3.4397,-3.4397,-3.4397,-3.4397,-3.4397,-3.4397,-3.4397,-3.4397,-3.4397,-3.4397,-3.4397,-3.4397,-3.4551,-3.5114,-3.5426,-3.5494,-3.5575,-3.5507,-3.5655,-3.6108,-3.666,-3.7063,-3.7553,-3.8323,-3.9031,-3.9192,-3.9352,-3.9424,-3.9424,-3.9424,-3.9424,-3.9424,-3.9424,-3.9496,-3.9625,-3.9768,-3.991,-4.0051,-4.0331,-4.0401,-4.047,-4.0524,-4.0524,-4.0524,-4.0524,-4.0524,-4.0524,-4.0524,-4.0524,-4.0524,-4.0524,-4.0524,-4.0524,-4.0524,-4.0524,-4.0524,-4.0593,-4.0783,-4.1276,-4.2141,-4.2769,-4.3257,-4.3856,-2.7272,-2.7272,-2.7272,-2.7272,-2.7272,-2.7272,-2.7272,-2.7272,-2.7272,-2.7272,-2.7272,-2.7272,-2.7272,-2.7272,-2.7272,-2.7272,-2.7272,-2.7272,-2.7272,-2.7272,-2.7272,-2.7272,-2.7272,-2.7367,-2.7904,-2.8817,-3.026,-3.1625,-3.2896,-3.3081,-3.3081,-3.3081,-3.3068,-3.3154,-3.3313,-3.3313,-3.3484,-3.3543,-3.3641,-3.3894,-3.423,-3.4243,-3.4314,-3.4314,-3.4397,-3.4397,-3.4397,-3.4397,-3.4397,-3.4397,-3.4397,-3.4397,-3.4397,-3.4397,-3.4397,-3.4397,-3.4397,-3.4397,-3.4397,-3.4397,-3.4397,-3.4397,-3.4397,-3.4397,-3.4564,-3.495,-3.5114,-3.5264,-3.5032,-3.495,-3.5655,-3.6201,-3.7,-3.7567,-3.8263,-3.8958,-3.9192,-3.9265,-3.9424,-3.9424,-3.9424,-3.9424,-3.9424,-3.9424,-3.9424,-3.9424,-3.9568,-3.9625,-3.9768,-3.991,-4.0191,-4.0331,-4.0401,-4.047,-4.0524,-4.0524,-4.0524,-4.0524,-4.0524,-4.0524,-4.0524,-4.0524,-4.0524,-4.0524,-4.0524,-4.0524,-4.0524,-4.0524,-4.0783,-4.1091,-4.1656,-4.2269,-4.2769,-4.3273,-4.3914,-2.7272,-2.7272,-2.7272,-2.7272,-2.7272,-2.7272,-2.7272,-2.7272,-2.7272,-2.7272,-2.7272,-2.7272,-2.7272,-2.7272,-2.7272,-2.7272,-2.7272,-2.7272,-2.7272,-2.7272,-2.7272,-2.7272,-2.7272,-2.7357,-2.8081,-2.936,-3.0902,-3.1989,-3.3081,-3.3081,-3.3081,-3.3081,-3.3081,-3.3081,-3.3154,-3.324,-3.3398,-3.3398,-3.3484,-3.3725,-3.3907,-3.4076,-3.4243,-3.4314,-3.4397,-3.4397,-3.4397,-3.4397,-3.4397,-3.4397,-3.4397,-3.4397,-3.4397,-3.4397,-3.4397,-3.4397,-3.4397,-3.4397,-3.4397,-3.4397,-3.4397,-3.4397,-3.4397,-3.4481,-3.4634,-3.4716,-3.4881,-3.4881,-3.4634,-3.5101,-3.5896,-3.661,-3.74,-3.8037,-3.8738,-3.9352,-3.9352,-3.9424,-3.9424,-3.9424,-3.9424,-3.9424,-3.9424,-3.9424,-3.9424,-3.9424,-3.9424,-3.9496,-3.9625,-3.9768,-3.998,-4.0121,-4.0207,-4.0331,-4.0455,-4.047,-4.047,-4.0524,-4.0524,-4.0524,-4.0524,-4.0524,-4.0524,-4.0524,-4.0524,-4.0524,-4.0524,-4.0524,-4.0904,-4.1225,-4.1343,-4.1706,-4.2707,-4.3273,-4.3972,-2.7272,-2.7272,-2.7272,-2.7272,-2.7272,-2.7272,-2.7272,-2.7272,-2.7272,-2.7272,-2.7272,-2.7272,-2.7272,-2.7272,-2.7272,-2.7272,-2.7272,-2.7272,-2.7272,-2.7272,-2.7272,-2.7272,-2.7452,-2.7715,-2.8538,-2.9897,-3.1524,-3.2711,-3.3081,-3.3081,-3.3081,-3.3081,-3.3081,-3.3081,-3.3081,-3.3167,-3.324,-3.324,-3.324,-3.3496,-3.381,-3.3992,-3.416,-3.4327,-3.4397,-3.4397,-3.4397,-3.4397,-3.4397,-3.4397,-3.4397,-3.4397,-3.4397,-3.4397,-3.4397,-3.4397,-3.4397,-3.4397,-3.4397,-3.4397,-3.4397,-3.4397,-3.4397,-3.4397,-3.4481,-3.4481,-3.4634,-3.4881,-3.5032,-3.5963,-3.6738,-3.74,-3.8127,-3.8427,-3.8885,-3.9192,-3.9424,-3.9424,-3.9424,-3.9424,-3.9424,-3.9424,-3.9424,-3.9424,-3.9424,-3.9424,-3.9424,-3.9496,-3.9481,-3.9625,-3.9768,-3.991,-4.0066,-4.0261,-4.0455,-4.047,-4.047,-4.047,-4.0524,-4.0524,-4.0524,-4.0524,-4.0524,-4.0524,-4.0524,-4.0524,-4.0524,-4.0524,-4.0646,-4.0904,-4.0715,-4.1091,-4.2205,-4.3136,-4.3798]}]]